GFSSGP_sfc_thetae_000.txt.gz
Theta_e
360 355 351 344 318 312 308 313 320 319 322 330 332 328 326 328 322 313 340 346 350 348 353 356 363 361 360 360 360 360 360 363 365 366 367 366 365 366 364 364 364 364 362 362 362 362 361 360 358
354 352 348 333 308 303 305 317 316 322 328 333 333 331 329 324 336 337 339 351 352 351 353 357 362 363 361 362 363 362 362 364 367 367 368 367 366 365 365 364 363 362 361 361 360 359 358 357 357
352 347 333 322 306 303 306 317 321 328 333 332 329 335 332 329 338 340 347 352 355 353 356 357 363 363 363 364 364 366 366 367 366 368 366 367 367 366 364 363 362 362 361 359 358 357 357 356 356
341 335 327 307 304 310 315 319 327 328 332 333 332 328 337 342 341 345 352 354 354 355 357 362 364 364 364 365 365 365 367 367 368 369 367 367 365 363 362 361 361 360 359 358 357 357 357 357 357
334 322 307 305 308 319 322 324 327 325 330 331 333 328 331 342 347 349 351 353 354 355 359 361 366 367 365 364 365 367 367 366 368 368 366 366 364 363 362 362 361 359 358 358 357 358 358 358 358
318 315 305 302 308 320 322 324 327 330 332 332 330 330 333 344 344 348 351 352 358 358 359 360 365 365 366 367 368 368 368 368 368 366 365 365 364 364 362 361 359 358 357 358 358 359 360 360 360
320 311 307 307 313 317 321 331 328 328 329 329 335 326 336 339 346 349 351 354 358 359 359 361 362 364 367 369 368 368 366 366 365 364 365 365 364 363 362 361 360 359 359 359 360 360 361 360 361
320 312 310 309 312 313 324 329 332 329 329 338 337 326 329 340 348 349 350 353 357 358 360 360 361 361 360 364 365 364 365 364 364 365 364 364 362 362 360 363 362 361 361 362 360 360 360 360 359
325 309 306 309 311 314 324 327 334 337 332 334 336 334 339 347 349 347 347 350 353 355 355 358 358 358 362 363 362 364 362 364 363 362 364 365 359 358 359 356 359 359 359 359 361 359 359 359 358
316 310 310 315 316 319 324 329 331 329 329 331 333 340 345 347 345 343 342 343 347 349 353 357 358 359 361 364 362 358 359 359 359 360 360 359 356 355 349 357 358 356 355 360 360 358 359 356 352
316 312 316 317 319 326 323 328 329 326 324 330 329 336 342 343 343 343 343 344 345 350 354 356 357 358 359 361 359 357 359 357 357 358 358 356 352 352 353 349 350 352 355 354 354 353 351 351 350
311 318 319 319 323 323 323 326 327 327 327 335 336 340 342 341 342 342 343 345 347 349 353 356 356 357 357 356 357 355 355 356 354 355 355 353 349 348 348 349 350 351 351 349 349 348 349 349 349
307 309 319 323 319 322 325 325 327 326 333 338 338 340 340 340 343 344 346 348 348 348 352 354 356 356 358 355 356 354 354 355 355 355 355 353 350 344 345 350 351 350 350 348 348 348 346 345 346
309 316 319 320 319 321 323 325 327 329 336 337 337 337 339 340 342 344 346 347 348 350 351 354 355 357 356 354 355 353 353 354 354 354 354 354 348 347 347 348 348 348 349 347 348 346 344 342 342
318 313 317 317 319 324 326 320 321 330 335 335 337 338 339 341 344 343 346 347 348 350 352 353 355 357 355 355 351 352 354 354 352 353 353 352 351 348 348 346 346 347 345 346 345 343 341 340 340
311 312 308 315 319 324 319 311 325 331 331 332 336 338 339 341 343 346 348 348 349 350 350 352 356 356 354 353 351 351 352 352 351 352 351 350 352 351 347 345 344 345 345 344 343 340 339 339 338
306 304 306 311 319 320 317 313 326 330 329 330 334 335 337 339 341 344 347 348 349 349 350 350 355 355 354 350 352 352 352 350 350 351 350 350 350 351 349 345 345 346 345 343 341 339 338 338 337
303 305 305 309 314 318 314 314 325 327 327 328 330 331 334 335 337 341 342 346 348 348 350 352 354 354 350 352 351 349 350 350 350 351 349 350 350 350 349 346 345 346 343 341 340 339 339 338 337
307 308 309 311 315 313 313 314 323 326 325 325 326 328 331 332 337 339 341 344 344 346 348 350 350 352 351 349 348 347 347 348 348 349 350 350 348 350 348 347 345 344 342 342 341 339 338 337 337
308 304 306 308 313 314 313 314 322 325 325 325 326 327 328 331 332 334 337 341 340 342 347 349 350 351 352 351 349 349 348 348 349 349 350 350 350 349 347 345 344 344 342 340 338 338 336 337 339
299 300 300 307 312 314 314 311 314 323 325 326 328 329 330 330 330 332 334 338 340 340 344 347 348 350 352 350 348 349 349 350 348 348 349 350 348 348 347 346 344 341 339 338 337 336 335 334 336
296 304 304 307 307 301 311 298 309 316 319 322 324 326 328 330 332 333 333 335 338 340 344 346 347 349 350 350 348 347 345 344 345 343 347 347 346 345 343 342 340 338 337 336 336 339 337 336 332
302 305 304 307 304 303 306 300 304 315 313 318 322 325 327 329 331 332 333 335 338 341 343 345 345 346 349 350 350 348 345 345 338 337 340 341 338 337 339 338 337 338 336 335 336 337 336 336 334
306 300 299 298 298 294 302 303 299 308 315 319 323 326 328 330 331 333 335 336 338 341 342 344 344 345 348 349 349 347 346 339 334 333 336 334 331 332 335 337 339 337 334 335 335 336 335 335 335
300 295 290 289 291 292 299 301 305 310 319 321 322 325 329 331 332 332 332 335 337 339 341 344 344 344 348 349 349 350 347 339 334 332 333 329 327 331 333 336 334 333 332 333 334 335 334 334 334
297 297 290 286 288 294 300 299 306 316 317 322 323 326 328 331 333 333 334 335 337 340 342 344 344 344 348 350 350 351 347 338 334 332 329 329 329 331 333 332 333 329 330 333 335 333 333 333 334
296 293 298 291 289 290 294 298 306 309 311 317 320 323 325 329 332 334 335 336 337 340 341 343 345 346 347 349 350 345 341 333 331 330 330 329 330 330 331 331 331 330 330 334 334 332 333 334 334
301 301 294 290 286 286 291 293 297 303 308 311 316 320 323 327 331 333 336 337 339 340 342 345 346 346 347 347 345 342 337 332 329 329 329 327 328 330 330 331 330 330 331 333 333 332 332 332 332
297 295 293 293 290 288 287 292 301 305 309 311 315 320 322 324 329 332 336 339 340 341 342 344 345 346 346 344 341 337 332 330 329 329 330 329 328 329 330 330 330 330 330 332 331 331 332 332 332
302 298 296 294 289 289 290 292 304 307 309 314 315 319 318 323 328 331 335 338 339 339 341 343 345 346 347 344 339 335 332 331 330 331 331 330 329 329 330 330 331 332 332 332 331 331 333 332 331

GFSSGP_sfc_thetae_003.txt.gz
Theta_e
363 362 357 349 324 322 315 318 325 324 325 333 333 329 327 330 323 319 344 350 351 352 356 358 362 360 360 360 359 361 362 364 366 366 366 364 362 363 363 364 365 364 363 363 362 361 361 360 360
355 354 353 336 317 311 314 321 322 326 332 336 335 334 329 326 336 338 342 351 352 352 356 356 360 361 360 360 360 361 364 364 365 367 366 363 364 363 363 364 363 363 363 362 361 360 360 359 359
356 351 342 325 318 310 313 321 327 331 334 332 331 336 332 330 338 341 348 352 353 354 357 359 360 360 361 361 361 362 366 364 364 365 364 364 364 364 364 363 362 362 362 361 360 359 359 359 359
347 343 334 316 313 317 319 325 331 331 334 335 333 328 337 343 340 346 350 352 352 355 357 360 362 363 362 362 361 364 366 365 366 366 366 365 365 363 362 361 361 362 361 360 359 359 359 360 360
342 331 317 315 316 322 325 330 333 330 331 332 333 327 331 344 348 349 352 353 353 355 358 361 364 362 363 364 364 367 367 365 367 366 365 365 363 362 361 362 362 361 360 359 359 359 360 360 361
328 325 315 312 317 323 326 332 332 332 333 333 330 329 334 348 345 349 353 354 354 354 359 361 364 364 364 364 364 365 368 366 367 366 365 364 363 363 362 361 360 359 359 359 360 360 361 361 362
326 321 314 316 319 321 324 332 331 331 331 330 335 329 337 341 345 350 352 355 356 358 358 363 364 365 365 367 367 367 368 367 366 365 365 365 364 363 362 361 360 359 359 360 361 361 360 360 360
329 324 315 317 318 319 329 331 336 332 330 339 339 328 330 340 346 350 352 354 356 358 359 362 364 364 366 363 368 365 366 365 364 364 364 364 362 362 361 360 361 362 362 361 362 361 359 359 360
330 320 314 315 320 322 332 328 336 339 335 336 338 337 339 345 346 346 349 351 354 356 359 362 361 364 366 365 364 366 364 364 364 363 362 361 364 362 360 359 360 360 359 360 361 360 360 359 357
323 320 317 321 325 325 329 330 333 333 332 332 335 341 344 346 343 342 343 345 349 351 356 361 362 362 362 362 363 365 361 359 360 362 363 363 364 364 360 357 359 358 357 359 360 359 358 355 356
323 319 322 322 325 330 330 330 335 331 327 332 334 339 342 344 343 342 342 345 347 352 354 358 361 363 362 364 364 364 362 362 361 364 363 364 363 361 358 360 357 356 358 359 357 357 357 357 354
317 322 323 323 328 329 329 333 330 331 329 336 340 343 343 342 342 342 343 345 347 350 354 356 360 363 364 367 361 366 361 362 358 360 365 363 359 359 360 359 361 364 360 359 358 356 356 354 353
315 316 321 325 328 329 332 330 330 331 334 339 342 343 342 342 343 346 346 348 350 350 354 358 361 362 363 363 360 359 363 358 358 361 362 360 357 359 359 359 361 362 361 359 358 356 354 353 350
315 317 319 325 327 329 327 329 330 331 339 339 340 341 342 343 344 347 348 348 350 352 354 358 361 364 364 362 364 362 363 363 361 361 360 363 361 360 364 359 361 359 360 358 358 355 352 350 350
323 320 323 324 326 326 330 325 326 333 339 337 338 340 342 344 346 346 348 349 352 354 355 355 359 362 363 364 365 363 362 361 357 358 362 363 363 363 363 363 361 359 359 357 356 354 353 349 348
319 321 315 322 326 328 326 316 328 336 336 334 336 338 341 343 345 349 350 351 355 356 356 356 355 358 361 362 364 361 361 361 360 360 363 362 363 364 364 364 363 358 357 355 354 352 349 350 348
316 312 314 318 326 327 324 319 328 336 335 334 336 337 339 342 345 349 352 354 355 358 358 358 360 360 363 365 365 363 365 363 363 363 362 363 362 362 364 364 362 358 355 357 354 352 350 347 346
311 313 315 316 321 325 322 321 329 333 334 334 336 338 339 341 344 350 352 354 356 357 360 360 360 362 365 365 365 366 366 367 362 362 361 363 362 360 360 359 358 356 356 355 353 351 352 348 347
315 315 315 318 322 321 321 321 326 331 332 332 335 337 339 340 345 349 352 354 355 357 358 359 360 362 362 359 357 358 354 359 359 361 362 362 362 361 361 361 357 356 352 353 352 351 348 346 349
316 315 315 317 321 321 320 319 325 330 330 332 333 335 337 340 343 347 349 350 352 355 357 359 360 363 363 361 362 360 360 359 359 361 363 362 360 361 360 358 354 354 350 351 350 349 345 346 349
310 312 315 315 317 320 320 317 321 328 331 332 333 335 336 337 339 342 345 348 351 352 356 358 361 364 364 364 362 361 361 361 358 359 359 360 361 360 359 357 354 353 350 344 348 347 345 340 346
307 314 316 316 314 309 319 307 318 324 327 329 331 332 334 336 339 341 343 345 348 351 354 359 361 363 364 366 361 360 355 352 356 359 360 360 361 358 357 356 352 352 348 349 348 347 348 347 340
310 312 313 315 314 311 313 309 313 322 321 326 330 332 334 336 337 339 341 344 347 351 351 355 361 363 366 365 365 359 358 357 359 357 357 360 359 357 353 352 350 350 347 349 346 348 347 345 341
312 310 309 311 311 302 309 310 308 317 321 325 329 332 333 335 337 339 342 344 346 349 350 353 359 362 362 363 363 361 361 359 356 355 350 351 353 350 350 348 350 351 349 346 344 346 345 344 343
310 308 300 299 300 299 309 309 311 318 323 326 327 330 333 335 336 338 340 341 344 347 349 351 357 358 358 359 361 361 361 362 360 358 352 350 348 346 345 347 348 348 349 345 345 345 344 343 341
307 308 302 296 297 301 307 304 310 321 323 326 330 331 333 334 336 337 340 343 345 346 349 351 354 356 357 357 361 363 362 359 359 359 353 349 349 347 346 346 347 348 345 343 344 340 340 343 341
307 304 311 305 301 301 305 310 314 319 320 322 325 329 331 333 336 338 340 343 345 347 350 352 355 357 357 356 360 360 363 362 360 359 354 349 351 345 345 345 346 345 340 342 344 337 339 342 342
309 311 302 303 298 296 301 303 305 315 318 323 323 327 331 335 337 338 341 343 346 347 350 352 355 356 357 356 358 358 360 361 361 359 351 347 348 345 344 344 343 342 340 340 343 339 340 341 338
305 304 305 307 304 300 298 302 315 319 324 323 324 327 330 334 337 340 342 343 346 348 348 351 352 355 354 356 359 360 359 359 360 353 352 342 344 345 344 344 342 341 341 342 342 342 340 339 340
308 307 308 302 302 303 303 303 316 318 321 323 324 326 330 335 339 340 341 343 344 346 347 348 350 350 354 357 358 357 358 350 349 352 340 342 340 344 344 343 342 342 341 342 342 340 336 338 338

GFSSGP_sfc_thetae_006.txt.gz
Theta_e
364 364 364 356 332 325 317 319 328 326 328 334 333 331 329 332 327 323 349 353 354 355 357 358 360 359 359 359 361 362 364 363 366 365 362 361 363 364 365 365 364 363 363 363 361 360 360 360 359
363 360 357 344 321 312 318 325 324 330 334 337 336 334 331 328 337 341 345 353 354 353 355 356 361 360 359 359 361 362 362 362 363 363 361 361 363 363 365 364 363 363 362 361 361 361 360 359 359
357 358 344 326 318 315 318 326 330 333 335 333 333 338 334 333 341 344 351 353 354 354 354 359 360 360 359 360 361 364 363 363 364 362 362 362 362 364 365 363 363 362 361 360 360 359 359 360 360
352 348 341 317 312 318 323 329 333 333 335 335 335 331 339 345 343 348 353 353 353 355 356 357 358 360 360 361 362 363 364 363 364 363 362 363 364 363 362 362 363 361 360 360 359 359 359 360 360
349 337 320 315 316 320 327 333 334 331 332 333 334 331 334 345 350 352 353 354 353 354 358 356 362 362 361 362 363 364 363 364 364 365 364 364 362 361 361 362 362 360 358 358 358 359 360 361 361
334 331 317 313 316 322 327 334 334 333 334 334 333 334 337 348 348 352 355 354 355 355 356 360 362 364 363 364 365 366 364 365 365 364 364 363 362 361 361 361 359 358 358 358 359 360 360 360 360
329 324 317 318 317 319 325 333 330 333 334 332 337 332 341 343 351 355 356 355 355 356 357 360 361 364 365 365 365 365 365 364 363 364 364 363 362 361 360 359 357 359 360 360 360 360 358 359 359
334 327 317 320 318 318 327 331 334 331 332 340 340 331 334 343 351 354 355 354 355 357 359 360 363 364 364 364 365 365 364 361 361 363 362 363 362 360 360 360 360 360 358 359 361 358 358 359 358
335 323 318 318 319 322 330 328 335 338 336 337 339 337 342 345 350 351 351 350 354 355 357 360 360 363 365 361 361 363 362 362 362 363 362 360 359 362 358 359 359 360 358 358 359 358 359 357 357
326 322 319 323 325 327 328 329 333 333 333 333 337 340 343 344 347 346 347 349 351 352 355 356 360 360 361 358 363 364 360 358 358 358 360 357 362 364 357 360 357 358 357 357 358 356 357 359 354
323 321 325 325 326 330 329 329 335 330 329 332 335 338 341 342 345 346 347 349 350 354 355 357 359 362 362 361 360 359 358 358 358 363 362 360 360 361 362 362 360 360 357 359 360 359 357 357 355
317 322 323 326 328 329 329 333 330 330 329 336 339 342 342 342 343 344 346 348 350 352 354 357 359 361 361 370 359 358 356 357 356 357 363 361 358 359 362 360 364 361 361 359 361 357 358 357 355
317 319 321 323 327 328 333 330 330 331 335 339 341 343 342 343 343 345 347 349 350 351 354 356 359 363 363 364 359 358 357 356 356 357 361 359 356 364 360 362 361 359 362 361 358 358 357 356 353
319 319 320 322 325 329 329 330 332 333 336 339 340 341 342 343 344 346 346 347 349 352 353 356 358 362 363 363 364 359 359 357 357 356 357 362 358 366 357 358 357 357 359 360 358 358 356 354 352
320 318 323 324 327 328 332 327 328 335 338 339 340 341 342 343 346 346 348 348 351 353 354 356 359 361 364 365 364 362 359 358 356 356 362 363 365 364 361 358 356 356 364 361 359 360 356 352 350
317 319 316 324 328 330 330 319 330 337 337 337 339 340 341 343 345 348 350 351 353 355 356 358 356 359 363 363 362 360 359 358 358 357 360 364 364 364 362 358 355 358 357 357 356 355 351 348 345
317 312 315 321 329 328 328 320 330 337 336 336 338 338 340 342 346 349 350 351 353 356 358 358 359 358 361 364 362 362 363 370 369 362 361 362 364 362 361 358 357 360 355 359 357 351 350 344 341
312 313 315 316 325 328 325 323 330 335 335 334 338 338 339 340 343 348 351 353 354 357 360 361 359 362 364 370 369 364 363 360 360 359 366 366 367 362 362 358 358 358 358 353 353 352 348 346 342
316 316 315 319 326 325 323 323 327 334 334 334 337 338 339 339 344 348 351 353 354 357 360 362 361 365 367 361 355 355 353 356 358 360 365 365 363 363 363 357 359 359 356 354 352 347 345 338 347
315 314 315 319 325 324 322 322 327 330 334 334 335 337 340 341 343 347 350 352 353 356 360 363 363 365 366 360 360 358 358 356 358 360 363 364 363 364 361 361 358 359 350 353 347 347 340 341 345
314 313 315 317 322 325 322 320 322 327 333 335 336 337 341 341 341 345 347 350 352 354 359 362 365 366 368 367 362 362 362 362 358 359 361 364 364 364 364 362 358 356 347 340 347 346 343 336 345
311 316 316 316 317 312 322 310 319 324 328 332 335 336 336 341 343 345 346 348 350 353 358 363 365 367 367 369 365 366 356 351 351 355 355 360 364 363 363 360 356 350 344 348 346 346 344 343 337
312 318 316 315 316 316 317 313 316 323 322 328 333 336 336 337 341 343 345 347 351 353 356 360 366 368 369 368 371 363 361 354 353 354 361 363 363 363 357 360 352 348 345 349 349 347 346 343 338
316 315 316 316 314 308 314 313 312 317 321 324 330 335 337 336 338 342 345 347 349 352 355 357 364 369 369 368 368 367 364 360 352 356 353 350 351 355 359 358 353 349 347 348 346 346 345 343 342
313 312 305 304 304 304 315 312 314 319 322 324 323 330 337 338 337 339 342 344 348 350 353 355 362 365 367 367 366 366 365 364 362 360 353 352 346 348 354 358 353 347 350 348 347 345 343 343 341
310 311 306 300 301 305 313 308 313 322 324 325 326 329 335 338 337 338 341 344 347 349 352 355 359 363 365 365 367 370 368 363 361 361 353 349 346 346 352 357 352 349 348 348 345 340 340 342 340
310 308 315 309 310 305 308 313 318 321 322 324 325 329 332 337 338 338 341 344 347 349 353 358 362 362 363 363 365 367 369 366 362 364 362 353 356 347 353 354 350 346 347 345 344 338 340 340 341
311 315 307 309 303 300 306 308 310 317 318 321 323 328 332 337 338 338 340 343 346 349 352 355 358 361 362 362 363 363 364 366 365 364 363 361 357 356 352 351 346 346 345 343 344 340 341 340 335
308 308 311 311 309 302 302 306 318 318 320 320 322 329 331 335 338 340 340 343 346 348 350 353 356 358 359 361 364 363 362 363 365 364 364 363 361 355 352 350 346 344 343 343 343 343 339 338 338
311 309 311 306 306 308 307 307 319 321 321 322 322 324 327 335 339 342 343 344 345 347 348 350 353 355 358 362 365 361 362 362 362 365 362 360 360 353 351 348 345 346 343 343 343 340 338 337 336

GFSSGP_sfc_thetae_009.txt.gz
Theta_e
362 362 361 352 329 322 318 322 328 326 328 334 334 332 329 332 329 325 349 353 354 351 353 357 359 360 361 361 364 365 364 364 364 365 365 364 364 366 365 364 364 363 363 362 361 361 360 360 360
362 361 360 348 325 312 316 325 322 328 331 335 336 334 331 329 341 342 345 351 352 351 352 355 361 359 360 362 361 364 362 362 362 363 362 363 363 365 364 363 363 362 362 361 360 360 360 360 361
364 360 343 332 318 314 317 325 329 333 335 334 333 337 334 333 342 344 352 353 351 350 352 358 361 360 360 362 362 364 363 362 362 362 362 362 363 364 363 362 362 362 361 360 359 360 360 360 361
355 350 343 318 315 323 324 328 331 331 334 336 337 331 339 345 343 348 351 350 350 350 354 359 360 360 360 362 364 364 364 364 363 361 362 363 363 362 361 362 362 361 360 359 360 360 360 361 360
353 341 325 314 316 323 329 331 332 329 332 333 336 332 335 345 350 351 351 349 349 354 354 355 362 360 361 363 364 364 363 363 363 362 362 364 362 361 361 361 360 358 358 359 359 360 360 360 359
336 331 317 313 315 321 329 332 331 331 334 334 335 334 338 348 348 350 352 350 351 352 354 356 361 361 361 363 364 363 364 363 364 363 363 362 361 360 361 359 358 358 358 359 360 358 358 358 358
333 326 317 317 316 318 324 331 329 330 332 333 339 334 340 345 350 350 352 351 351 355 355 358 359 363 364 364 364 364 363 364 363 363 363 361 360 360 358 356 356 358 359 360 360 358 357 358 357
333 324 318 321 316 316 325 328 330 330 331 340 342 333 335 346 351 352 352 352 351 355 356 357 359 360 363 364 364 363 363 362 360 362 362 361 362 361 359 357 359 358 357 358 358 357 357 357 358
333 319 318 318 319 321 327 324 330 336 333 335 337 340 344 349 351 350 349 349 350 352 356 356 357 360 364 364 364 364 362 359 360 361 361 360 357 358 361 362 358 358 358 357 357 357 359 358 359
326 318 319 324 326 325 326 326 328 329 330 332 334 343 346 348 348 347 347 348 349 350 352 354 357 358 358 355 362 361 356 356 357 357 359 358 362 362 357 359 360 359 359 359 360 360 361 361 357
324 321 325 326 327 329 326 326 330 328 326 332 332 338 343 346 346 346 346 348 347 350 352 356 358 363 358 359 356 357 356 356 356 361 361 359 358 361 356 357 358 361 361 358 359 357 356 355 353
319 324 324 326 327 327 326 330 326 326 328 334 338 340 342 344 345 345 346 347 349 350 352 354 360 361 362 360 355 356 354 354 354 357 364 362 358 358 357 358 358 361 359 359 361 357 356 355 355
320 322 323 324 326 327 331 328 326 326 330 336 340 340 340 343 345 347 347 348 350 350 352 354 357 362 364 365 356 357 356 353 353 355 360 359 356 364 361 363 357 360 361 357 357 359 356 355 355
322 322 322 323 324 327 327 327 329 329 333 335 338 338 340 341 344 346 347 347 348 350 351 354 357 362 363 364 366 362 359 360 354 354 357 363 359 364 358 365 358 358 358 363 359 360 355 356 354
322 318 322 323 323 324 328 323 324 331 335 334 337 338 339 341 343 344 347 348 349 351 353 354 356 360 362 363 365 360 356 355 355 354 360 361 363 363 364 360 358 355 363 361 361 359 361 352 346
318 319 315 323 324 325 325 318 327 333 332 332 335 337 338 340 342 345 347 348 350 352 354 355 354 356 360 363 364 359 357 360 358 357 359 363 364 366 365 357 356 360 359 361 359 356 347 344 342
317 311 315 318 325 326 324 319 329 334 331 331 333 336 338 339 343 346 347 349 350 354 355 356 357 356 361 369 363 363 366 358 362 362 358 362 368 367 362 358 359 362 360 356 355 353 352 342 341
312 313 316 318 321 326 322 321 329 333 332 329 332 334 337 338 341 346 348 350 351 354 357 358 357 364 368 366 375 359 357 360 360 359 357 364 363 365 363 359 361 361 356 354 354 353 347 344 342
317 316 315 319 322 322 322 322 327 332 332 330 331 332 335 337 343 346 349 350 351 353 356 361 363 371 364 358 362 356 353 357 355 355 367 366 364 366 363 359 360 359 358 357 351 346 346 339 344
316 315 316 320 320 322 322 321 327 332 331 333 332 332 333 336 339 344 348 349 350 353 357 365 366 372 369 361 363 361 356 354 354 357 367 364 364 365 363 364 358 359 351 352 348 347 340 339 342
315 314 315 316 322 324 322 318 322 328 333 334 334 335 335 335 335 341 345 348 350 352 358 364 370 372 372 370 367 365 367 360 359 356 359 361 363 363 365 362 362 358 351 337 348 346 343 336 342
311 317 317 316 315 313 320 310 320 324 326 332 333 334 335 336 338 340 345 348 349 353 357 366 371 373 372 374 365 368 356 350 349 352 353 358 365 362 363 363 357 355 345 353 347 344 345 344 338
313 318 317 317 317 317 315 312 316 323 322 326 332 335 336 336 338 339 343 347 350 352 354 362 372 374 375 373 370 361 360 352 352 350 365 368 369 360 357 357 355 351 342 350 350 346 347 345 338
317 316 317 316 315 308 315 312 314 316 322 325 330 334 337 337 338 341 343 347 348 351 354 360 371 374 375 375 369 370 369 362 352 353 352 353 353 355 358 355 356 352 348 349 347 348 347 345 344
314 312 305 305 305 304 315 313 316 323 325 326 326 330 335 339 337 339 342 344 349 353 356 360 369 373 374 371 371 371 371 372 368 363 354 358 347 349 361 360 357 350 351 350 349 349 347 344 341
310 311 305 301 303 306 314 309 314 325 326 327 328 327 331 337 339 337 341 345 351 352 358 360 365 371 374 372 373 374 374 360 358 363 356 350 348 350 364 357 355 352 349 349 349 342 340 346 341
310 308 315 309 311 307 310 315 320 324 324 325 325 326 327 334 338 338 339 342 348 351 357 361 365 369 371 366 374 374 373 371 361 366 368 356 360 350 353 355 354 352 347 349 348 340 345 343 343
310 314 307 311 303 302 307 310 311 318 320 322 324 324 327 331 337 339 339 341 346 348 354 360 364 368 367 369 370 368 370 373 372 374 370 365 362 362 358 357 354 350 350 350 350 345 346 344 339
307 307 311 311 310 304 303 308 319 321 323 322 324 325 327 330 336 339 340 341 344 346 351 354 359 364 366 368 368 369 367 369 372 370 370 370 366 365 360 359 356 350 348 348 350 347 344 344 345
311 309 309 307 307 309 310 309 321 322 323 324 324 326 327 331 335 339 341 342 343 346 346 349 352 354 361 365 369 369 370 369 368 370 371 371 367 366 361 358 354 350 345 341 348 344 343 339 339

GFSSGP_sfc_thetae_012.txt.gz
Theta_e
360 359 358 350 327 322 317 320 327 325 326 334 334 331 331 334 329 321 348 350 350 350 352 355 362 362 362 364 366 367 366 367 367 368 368 368 368 368 367 366 365 365 364 363 362 361 361 361 360
357 358 355 336 319 313 317 325 324 326 330 336 335 333 332 330 339 341 345 349 350 350 351 353 363 363 364 365 366 365 365 365 366 367 367 368 368 367 365 363 362 362 362 361 360 361 360 361 361
357 358 342 333 319 313 317 325 327 332 334 334 332 336 335 333 343 344 349 350 348 349 353 356 363 364 364 365 365 365 365 365 366 366 366 367 367 366 363 362 361 361 361 360 361 361 360 360 361
356 348 345 327 317 322 323 326 331 331 334 336 335 329 338 344 343 346 350 350 348 352 353 360 364 363 364 365 365 365 366 365 365 365 366 366 365 362 362 361 359 359 359 360 361 361 361 360 360
352 342 327 319 321 324 327 331 330 328 332 332 335 330 333 342 347 348 348 349 349 351 352 356 364 364 365 366 366 365 365 364 365 365 365 363 363 361 362 359 358 358 359 360 361 359 359 358 358
335 336 320 311 314 323 328 332 331 331 332 333 332 332 334 344 346 347 349 348 351 350 350 354 363 365 365 366 366 366 364 364 364 363 364 362 361 361 360 357 357 357 359 361 361 358 358 357 355
328 326 318 316 315 319 323 331 327 330 332 331 338 330 336 341 347 348 349 351 350 350 353 355 356 361 364 367 365 364 364 364 363 363 363 361 360 360 360 359 356 358 359 359 359 356 356 356 356
333 326 318 319 315 315 324 327 330 329 331 339 340 329 331 342 349 350 349 349 351 353 353 357 359 358 360 360 365 363 363 362 362 362 361 361 361 362 362 362 362 358 356 357 357 357 357 356 358
332 320 317 317 317 318 325 322 331 336 333 337 338 337 341 346 349 346 346 347 349 351 352 355 355 362 363 362 361 363 362 361 361 360 362 364 358 360 361 364 362 361 359 356 359 361 361 361 362
327 319 319 323 324 322 324 324 325 327 329 331 336 340 343 345 347 344 343 343 347 346 351 352 358 359 360 355 363 364 359 355 357 358 362 359 355 360 360 362 360 363 362 344 357 363 360 360 358
325 318 323 325 327 326 324 324 326 325 324 329 334 338 341 344 345 344 344 345 345 349 350 355 358 361 358 361 360 358 356 357 358 366 360 363 356 366 352 354 357 356 354 345 354 361 356 356 354
318 325 326 326 329 328 323 327 324 326 327 334 340 342 341 341 343 342 343 343 346 350 354 356 358 362 365 358 355 357 356 357 356 360 368 370 364 360 353 351 356 350 353 355 360 356 357 358 355
318 323 325 325 325 326 327 325 325 325 331 335 338 341 341 341 341 344 343 346 348 349 353 356 360 365 368 366 361 355 361 354 353 362 364 361 366 360 352 364 365 360 354 360 363 358 360 360 356
321 321 322 322 323 325 326 326 326 326 331 333 335 337 340 341 340 344 344 344 348 348 353 358 360 366 366 366 373 373 362 361 361 353 362 369 369 368 365 367 361 357 359 365 360 360 360 360 356
320 317 320 321 322 322 326 322 322 328 329 331 332 335 338 341 343 342 344 346 349 351 354 356 359 361 364 371 370 372 362 357 354 360 363 366 369 370 370 364 365 362 359 362 360 356 361 349 352
315 316 312 319 322 323 323 317 323 330 328 328 332 333 336 338 341 345 345 347 349 350 355 358 353 359 360 365 370 365 359 359 357 366 355 367 371 369 372 364 353 361 356 361 356 356 356 345 346
313 309 311 315 323 322 320 317 325 330 329 327 330 332 334 337 340 345 346 349 349 354 358 359 360 360 361 367 364 366 363 361 358 362 367 358 359 370 363 362 357 364 364 359 358 354 354 349 345
307 309 313 313 320 321 321 319 322 328 328 328 328 331 334 334 338 344 346 348 351 354 359 359 360 368 364 364 364 364 359 358 359 372 356 361 365 366 364 363 366 366 363 351 358 349 348 347 344
313 313 313 316 322 319 320 317 317 324 329 327 329 330 332 335 340 344 346 347 349 354 358 359 360 368 367 364 357 358 359 358 359 361 367 364 368 369 370 365 363 359 360 346 351 352 347 346 347
313 312 313 318 322 321 320 319 321 327 329 328 328 328 330 332 337 342 345 346 348 352 356 361 361 368 367 365 363 361 360 360 356 361 364 367 367 369 363 363 363 359 358 355 351 349 345 344 348
311 311 313 314 320 321 318 316 323 327 328 330 330 331 331 333 333 340 344 345 349 351 357 360 363 366 365 367 364 364 363 366 360 361 364 365 367 365 358 364 364 362 356 351 352 350 348 340 346
308 315 315 314 315 310 319 307 317 322 326 327 329 331 331 333 335 339 343 346 348 351 358 362 364 365 367 366 363 360 354 355 357 356 359 363 366 366 367 366 363 360 355 355 352 350 346 348 339
311 316 315 314 313 315 316 312 318 323 321 327 329 331 333 335 335 336 342 346 349 353 356 360 366 366 366 366 364 361 360 356 358 358 367 363 365 365 362 365 362 357 351 357 351 349 347 348 344
316 314 314 314 313 305 313 311 312 318 319 322 329 332 334 335 337 338 343 347 348 352 356 357 365 366 367 368 364 366 358 356 356 357 359 359 361 361 365 360 359 357 351 354 352 352 351 347 348
311 309 304 302 304 303 314 312 316 323 325 325 325 329 335 337 337 338 340 344 348 350 354 358 364 364 367 367 365 364 365 361 362 369 360 357 354 355 360 360 357 354 354 356 353 352 351 348 345
308 308 305 298 301 304 313 308 314 326 327 327 329 327 334 337 337 339 341 344 348 349 354 357 361 363 367 365 367 367 366 364 362 363 362 359 356 354 357 356 355 356 352 352 352 349 344 347 345
308 305 311 306 308 305 309 312 318 323 325 325 325 327 330 336 338 338 342 344 349 350 353 356 362 364 367 367 368 367 367 365 363 363 363 363 360 362 355 355 357 353 352 352 353 344 344 348 348
309 312 303 306 300 300 306 309 311 318 323 325 326 325 328 329 338 339 340 345 348 351 353 357 361 364 368 368 367 367 367 366 363 364 364 359 362 360 358 356 355 353 350 347 349 343 348 344 344
307 306 307 308 307 302 302 307 321 323 327 326 326 327 327 329 333 338 340 342 348 351 352 355 357 363 366 367 367 367 367 367 364 366 363 364 361 359 358 356 354 352 349 349 348 345 342 343 342
311 308 307 302 304 307 306 308 321 325 324 327 326 327 329 330 333 337 341 341 344 347 350 353 357 360 364 366 366 366 367 367 366 363 366 364 365 362 358 357 354 352 346 348 344 341 340 343 341

GFSSGP_sfc_thetae_018.txt.gz
Theta_e
357 355 352 342 325 321 315 319 325 323 324 331 334 332 328 330 324 317 341 346 347 348 352 355 362 365 366 366 368 368 368 367 368 368 366 364 364 364 363 362 362 362 361 361 360 361 360 358 357
357 351 344 332 319 311 313 324 322 325 330 334 335 333 329 326 335 337 339 346 350 351 351 356 364 365 365 366 367 367 366 365 368 367 366 364 364 363 362 362 361 361 361 361 360 359 360 359 358
354 347 330 321 318 311 313 323 325 329 335 333 332 335 331 329 337 338 345 349 350 349 352 356 365 366 365 366 366 367 366 364 366 366 364 363 363 362 361 361 361 360 361 360 360 359 358 358 358
350 342 335 324 316 320 322 325 329 329 333 334 332 328 336 342 340 344 348 348 347 349 353 361 365 363 364 365 365 364 364 364 365 366 364 363 363 362 361 360 359 360 360 360 358 357 356 357 359
346 339 323 319 320 323 326 330 331 328 330 331 333 329 331 341 345 346 346 347 347 350 354 357 364 365 365 365 364 364 363 362 365 366 364 363 363 361 360 359 359 359 360 359 357 356 357 356 358
333 335 318 312 315 325 329 332 331 330 331 331 330 328 329 342 342 344 346 346 350 351 355 357 364 366 366 364 363 364 362 362 364 365 364 363 363 362 360 358 359 359 360 360 358 357 358 359 358
323 320 314 313 319 322 327 332 330 329 330 329 333 325 332 338 343 345 346 348 349 353 354 356 358 359 363 366 364 364 362 362 363 364 364 364 362 361 357 358 358 358 359 359 359 358 360 360 358
327 321 317 315 314 319 329 331 333 330 329 338 337 326 327 338 343 345 346 346 347 350 352 353 354 356 359 359 365 365 364 363 363 364 362 361 360 360 359 362 359 358 356 359 360 360 361 359 360
337 315 311 312 316 322 330 328 334 336 332 334 337 335 338 341 343 342 342 341 344 347 350 352 353 354 356 355 359 364 365 364 364 362 363 363 354 353 357 355 358 357 358 354 351 358 364 362 362
323 312 315 321 321 322 329 329 331 330 329 331 333 338 340 341 340 339 337 338 341 344 346 351 352 354 354 357 354 354 356 355 355 355 353 355 350 350 358 357 356 358 356 353 357 360 362 357 349
322 314 320 322 325 327 329 330 333 329 325 330 330 334 338 339 339 339 339 341 342 345 348 349 351 353 353 352 352 352 352 350 349 351 350 350 352 352 351 348 350 348 345 336 348 351 350 350 349
312 320 321 324 326 323 327 332 330 331 330 336 337 338 337 337 337 338 339 341 343 345 348 350 351 352 351 350 353 353 352 348 346 347 349 348 348 347 347 345 349 347 343 343 347 347 347 348 346
312 316 323 326 324 321 323 326 330 330 335 338 338 338 337 337 337 339 341 342 344 345 347 350 351 352 350 350 350 349 350 348 347 347 351 351 348 344 345 346 348 347 344 346 347 348 348 348 347
313 314 315 322 323 323 318 322 325 330 336 337 337 337 337 337 337 338 339 340 342 345 347 350 351 351 351 351 347 348 349 348 347 350 353 351 349 345 344 344 347 346 345 343 349 346 345 346 342
313 308 311 313 321 321 324 318 324 332 335 335 336 337 337 338 339 338 339 339 341 345 348 348 350 351 351 350 348 348 350 351 350 350 352 351 351 349 349 349 347 347 349 350 345 346 346 339 341
305 303 300 308 314 322 318 311 326 333 332 331 335 336 336 337 338 340 341 340 342 346 346 348 352 351 350 352 349 351 350 344 346 350 351 352 352 353 349 350 345 347 348 348 345 345 341 337 332
299 297 299 303 315 321 316 311 321 333 331 330 331 334 336 337 338 340 342 342 342 347 347 347 349 350 349 351 353 349 346 349 348 350 351 352 353 354 350 349 348 346 350 345 344 341 340 333 329
296 296 299 301 308 316 312 311 319 331 330 330 331 332 333 334 337 339 339 342 344 347 348 349 348 350 350 351 351 348 347 349 348 349 350 355 354 354 348 348 348 347 345 343 341 338 336 331 331
301 300 300 305 311 313 313 313 317 326 329 329 330 331 332 333 336 338 340 342 344 346 347 349 347 348 349 350 346 344 343 346 347 350 348 352 353 355 350 348 349 349 345 341 340 336 329 329 331
301 300 300 304 308 312 313 313 317 322 324 328 328 329 331 333 334 335 337 340 341 345 347 348 347 347 347 350 349 346 346 348 348 346 348 352 352 352 351 349 347 347 341 338 333 330 328 330 330
300 298 300 300 305 314 314 311 315 317 318 324 328 329 331 332 332 334 335 339 341 344 346 346 348 348 347 349 349 347 349 350 347 346 349 352 352 353 352 349 348 346 343 337 332 331 329 325 330
294 304 304 303 300 297 311 300 312 316 318 320 323 325 328 330 332 334 336 336 340 343 346 347 350 350 350 351 349 346 345 344 345 345 350 352 353 353 350 350 348 339 340 334 333 335 332 328 325
300 305 304 304 300 296 303 301 306 314 314 318 321 324 327 329 331 331 335 337 339 344 345 346 347 352 353 352 350 348 344 345 344 346 347 350 353 353 352 350 348 339 338 336 334 332 330 332 328
307 301 301 300 300 293 300 305 302 310 314 319 322 325 326 328 331 332 336 338 338 342 345 346 345 351 353 352 350 347 345 343 342 343 344 349 352 352 351 351 347 338 336 337 334 331 330 332 332
301 293 289 289 290 292 299 300 305 314 319 321 322 321 325 328 329 331 332 335 337 338 343 346 346 345 352 351 350 349 347 346 343 342 345 347 349 347 350 348 341 337 333 335 334 333 332 330 329
297 296 291 285 286 291 298 295 304 315 323 324 324 323 325 326 329 330 332 335 336 338 343 347 346 346 350 352 350 350 349 348 348 345 347 349 350 350 351 348 343 337 336 337 335 334 333 331 329
299 292 299 290 291 290 294 299 305 311 318 322 322 323 324 325 327 329 332 335 337 338 343 346 348 348 351 351 351 352 351 349 348 346 349 349 350 350 349 348 342 338 335 339 337 334 332 334 330
300 300 292 288 286 287 290 294 298 303 309 316 321 323 325 327 328 329 330 334 338 339 344 347 350 349 351 353 351 351 352 353 351 348 348 349 348 349 348 346 342 339 336 337 337 334 332 330 332
299 297 293 294 290 289 286 294 302 304 308 314 321 325 326 327 327 329 330 333 337 340 344 347 349 349 351 353 353 352 351 350 353 352 351 350 348 347 347 346 343 340 338 335 338 333 333 330 330
305 299 295 293 288 290 295 295 306 307 309 316 321 325 327 328 328 328 330 331 335 339 342 346 350 350 351 354 354 354 354 353 351 351 353 351 349 346 347 346 344 342 340 338 336 334 334 332 329

GFSSGP_sfc_thetae_021.txt.gz
Theta_e
355 354 351 342 324 320 315 319 325 321 323 331 333 328 326 328 323 315 339 345 346 346 351 355 361 364 364 365 366 365 366 365 365 364 363 362 363 362 362 361 361 360 360 359 361 360 359 358 358
354 350 343 332 318 308 312 322 320 324 329 333 334 331 328 325 335 335 338 345 348 349 350 354 361 365 363 365 365 366 364 364 364 363 363 363 363 361 361 360 359 359 359 359 359 359 360 358 357
353 344 328 322 316 310 312 322 323 330 334 333 329 333 330 329 336 337 342 347 348 349 352 355 363 365 363 364 365 365 366 363 363 363 363 363 362 361 360 359 359 359 359 359 359 359 359 359 357
343 341 335 320 315 320 321 324 328 330 331 333 331 326 335 339 337 341 347 348 347 349 353 359 364 363 362 363 363 363 363 364 363 362 362 362 361 360 359 359 358 359 359 359 358 358 358 358 357
345 336 321 318 317 323 325 329 331 327 329 329 332 326 329 339 344 345 346 347 346 349 352 356 364 365 363 362 362 361 361 363 364 362 362 362 361 360 358 357 357 357 359 360 358 358 358 357 357
330 331 318 310 314 323 327 331 330 329 330 330 328 327 330 342 342 344 346 345 349 350 352 356 362 363 363 362 362 361 361 362 363 362 362 362 361 360 359 357 357 358 359 359 358 358 358 356 357
322 320 315 313 318 321 326 331 329 328 327 327 331 324 331 337 342 344 345 347 349 352 353 353 354 357 362 362 362 362 361 362 363 362 362 362 361 359 358 356 357 356 357 358 358 358 357 357 358
328 319 314 316 318 317 328 329 332 329 328 335 335 324 325 336 342 344 345 346 348 352 353 353 353 352 354 356 362 362 361 361 362 362 361 361 360 359 358 360 358 357 355 357 359 358 358 357 358
336 312 309 310 314 321 328 327 333 335 330 332 335 333 335 341 342 342 342 342 346 349 351 351 352 353 355 356 358 362 363 361 362 361 362 362 353 352 356 356 356 357 357 355 354 354 361 358 357
325 310 312 318 320 325 328 329 330 329 329 330 332 336 340 340 340 338 338 338 341 344 348 351 351 354 354 358 354 354 356 355 355 355 354 354 350 349 356 356 357 357 358 349 356 359 359 355 346
326 315 318 322 325 330 328 329 331 328 324 329 328 333 337 337 338 338 338 339 339 344 347 350 351 354 353 354 351 351 351 351 351 351 350 350 350 347 352 348 348 347 345 334 344 347 347 348 346
312 323 324 322 327 329 327 330 327 329 327 334 334 336 335 335 336 337 337 339 340 342 345 349 351 352 351 349 351 351 350 348 346 347 347 346 347 346 347 344 345 346 343 338 345 345 348 346 345
315 316 317 323 323 330 331 328 328 328 334 336 336 336 335 335 336 339 339 341 342 342 345 347 350 350 351 346 351 348 348 347 345 344 347 348 346 344 345 344 345 345 344 344 343 345 346 346 345
310 311 313 316 318 325 328 328 329 330 335 334 334 334 335 336 337 338 339 339 342 344 345 348 348 349 349 347 346 347 348 347 345 345 347 350 346 344 343 343 344 345 345 342 344 346 344 345 340
310 306 308 310 312 320 329 321 325 331 334 332 333 334 335 336 337 337 340 340 342 344 347 347 348 350 348 347 347 346 347 348 345 347 350 350 348 345 344 343 346 346 346 346 346 343 343 339 335
303 301 299 306 309 319 320 311 327 331 332 330 332 333 334 335 336 337 340 341 343 344 345 347 351 350 348 348 347 347 346 346 348 349 348 350 350 348 345 346 345 344 347 346 343 343 340 334 332
297 295 298 302 308 317 315 309 326 331 331 329 331 333 334 334 336 337 339 341 342 344 345 346 349 349 349 349 348 347 348 346 345 346 348 350 350 351 347 348 344 345 344 344 343 339 338 331 328
295 295 297 299 308 315 311 310 325 329 330 330 331 333 333 334 335 338 339 340 341 344 346 346 348 349 349 349 349 346 344 346 346 347 349 350 351 352 348 347 346 344 344 342 339 337 334 329 329
300 298 298 302 308 311 312 310 322 327 328 329 330 331 333 333 336 339 340 341 340 344 344 345 346 348 348 347 346 343 344 344 345 346 348 350 351 352 347 345 347 345 342 341 338 335 328 326 328
299 297 298 300 306 306 307 309 320 326 327 328 329 331 332 334 335 337 338 340 340 342 344 345 345 346 347 347 349 346 343 343 345 347 346 350 352 352 348 346 346 346 343 338 336 329 326 328 327
296 296 298 298 303 306 309 306 312 325 328 329 330 331 333 333 332 335 335 336 340 340 344 345 345 346 346 347 347 344 345 346 344 343 344 347 350 351 352 347 346 345 340 336 331 329 327 324 328
293 300 301 300 297 293 308 298 307 311 322 326 328 330 331 332 333 333 335 335 338 341 344 346 346 346 346 347 346 345 343 341 343 344 346 347 349 351 350 348 346 344 343 336 332 332 328 326 326
299 303 301 301 296 293 298 298 302 311 313 318 323 327 330 332 333 333 333 336 338 341 343 346 346 346 346 346 346 345 342 342 343 344 345 347 348 349 350 348 346 338 338 336 333 331 330 328 324
305 300 297 296 294 289 297 297 297 307 312 315 321 325 328 330 332 334 335 336 338 341 344 345 345 345 346 346 346 345 343 341 340 341 342 344 348 349 349 348 346 339 336 334 333 331 329 331 329
300 292 287 285 287 289 295 295 300 308 318 318 318 322 326 328 330 331 332 334 335 339 342 344 343 345 347 346 346 346 345 343 342 341 344 343 346 346 347 347 345 338 335 336 333 330 328 330 329
295 295 286 282 283 288 294 292 298 310 317 322 323 323 325 327 328 330 331 333 336 337 341 342 342 345 347 348 347 347 347 345 344 342 343 345 348 349 350 349 347 340 334 335 333 331 330 329 328
295 293 297 288 288 286 291 296 302 308 311 316 320 322 323 325 327 329 331 332 335 336 339 342 342 343 349 349 349 348 347 346 345 343 344 345 348 349 348 349 346 340 335 334 333 331 330 330 327
301 299 291 285 285 285 287 291 294 301 306 312 317 318 321 325 326 329 330 332 334 336 338 342 343 342 345 349 349 348 348 348 347 346 345 345 348 348 347 348 345 341 335 336 334 331 330 331 329
295 295 290 291 288 288 285 291 299 303 306 309 314 321 322 323 325 327 329 332 333 336 337 341 343 343 343 347 349 349 348 348 347 346 346 347 348 347 347 347 345 341 336 335 335 333 332 329 329
300 299 293 290 287 286 291 292 301 305 307 307 312 317 323 325 326 327 329 330 331 334 336 340 343 344 344 347 348 348 349 349 349 348 347 348 347 347 347 346 344 341 338 334 336 334 334 331 327

GFSSGP_sfc_thetae_024.txt.gz
Theta_e
355 355 351 342 323 319 313 318 325 320 322 330 331 326 326 328 323 315 341 344 345 346 351 354 360 364 365 366 366 365 364 363 364 364 363 362 361 361 361 361 360 359 359 360 359 359 358 357 357
352 350 342 331 316 306 310 321 318 323 329 332 332 331 327 325 333 335 338 345 346 348 350 353 359 365 364 365 366 366 363 362 363 363 363 363 361 361 360 360 359 360 360 359 358 358 358 356 356
352 345 329 322 316 310 310 321 324 329 333 332 328 333 330 328 335 336 342 346 347 348 351 353 363 365 364 364 365 366 364 363 362 362 363 361 361 360 359 359 359 359 360 359 359 358 356 357 354
343 340 335 319 313 318 320 323 328 328 331 332 331 326 333 339 336 340 345 347 347 349 352 359 363 363 363 364 364 364 362 362 362 362 362 361 361 359 358 359 359 360 360 359 358 358 358 356 355
346 333 321 318 317 322 324 328 330 326 327 330 331 324 326 338 342 344 345 347 347 349 352 355 364 364 363 362 363 363 363 362 362 362 362 361 360 359 358 357 358 360 360 359 358 358 357 356 356
330 329 313 309 313 322 327 330 329 328 329 328 326 326 329 339 341 344 345 346 350 350 352 356 362 363 362 362 361 361 362 363 362 362 362 361 360 359 358 357 358 359 360 359 358 357 357 356 357
323 321 312 311 315 320 325 330 327 327 327 326 331 324 332 335 342 344 344 347 349 352 352 354 355 359 362 361 361 360 361 362 362 362 361 361 360 358 356 356 358 358 359 359 358 357 357 357 356
329 318 314 314 315 316 327 328 331 327 326 334 334 323 326 335 342 344 344 345 348 351 352 351 351 353 354 355 362 361 360 361 362 361 361 359 359 357 357 358 358 358 358 356 357 357 358 358 357
336 312 308 309 314 316 327 325 332 334 328 331 333 332 334 340 342 341 341 342 347 350 350 351 350 350 353 354 356 361 361 360 361 360 360 359 356 355 356 356 356 357 357 355 353 355 361 358 357
327 312 312 317 318 322 328 328 329 328 326 328 330 334 338 339 339 338 337 337 342 345 349 350 350 351 354 357 356 355 356 355 355 357 357 357 355 354 358 358 357 357 357 347 356 359 357 354 349
327 318 319 319 321 328 327 327 330 326 322 328 326 331 335 336 337 337 338 338 340 344 349 350 351 352 353 355 353 353 354 354 354 355 354 354 353 350 355 352 351 352 350 339 348 349 350 351 347
315 321 326 321 325 327 326 329 326 327 327 333 333 334 336 335 335 336 337 338 340 343 347 350 351 353 352 351 352 352 351 351 350 351 352 349 350 349 352 349 348 350 348 345 350 350 351 350 347
317 319 318 320 320 327 329 327 327 328 333 334 334 335 334 335 336 338 339 340 340 341 345 348 351 352 352 348 350 350 350 350 348 347 349 349 347 347 349 348 348 350 350 348 348 350 350 352 349
307 313 313 311 311 318 325 327 328 329 333 332 333 333 334 334 336 337 338 338 339 341 343 347 349 351 352 348 348 349 348 348 348 346 346 350 349 348 347 347 348 349 349 348 349 351 349 348 343
306 304 307 308 309 316 327 321 324 330 332 330 331 332 333 334 337 337 338 339 340 342 343 345 348 350 349 348 345 347 348 349 347 346 348 351 350 349 348 346 347 349 351 351 350 348 349 343 338
301 299 297 304 308 315 324 314 326 331 330 329 330 331 333 334 335 338 339 340 342 343 344 346 348 348 348 347 346 346 346 347 347 348 350 351 351 351 348 347 349 350 351 351 348 348 346 340 335
295 294 297 301 307 312 319 311 323 330 329 328 330 330 332 333 335 338 340 341 342 343 345 346 347 347 347 347 346 347 346 346 347 348 349 351 352 352 349 349 350 349 349 348 348 344 343 336 335
293 293 295 298 305 312 315 309 319 328 328 328 330 330 331 332 334 337 339 342 342 344 345 346 347 348 348 347 347 347 347 347 348 346 348 351 351 353 351 350 350 348 348 346 345 344 339 336 335
299 297 297 300 306 310 309 310 320 326 327 327 328 329 331 332 335 337 338 341 342 343 344 345 346 348 347 345 345 344 344 345 347 348 350 351 352 353 352 350 350 348 348 347 345 340 337 333 333
298 296 296 299 304 301 302 309 319 324 326 328 329 329 331 332 334 336 337 338 339 341 343 345 345 347 348 348 347 347 347 345 348 349 350 351 352 353 351 349 349 348 348 345 342 338 333 332 331
295 296 296 297 301 302 306 304 308 323 326 329 331 332 333 332 333 334 336 337 338 339 342 344 345 347 348 348 348 345 346 346 345 346 348 348 353 353 353 349 350 349 348 344 341 336 334 331 335
291 299 300 299 295 291 304 293 305 314 321 324 327 330 331 333 335 335 336 336 338 338 343 345 345 346 347 348 346 346 344 342 344 345 347 348 351 352 353 352 350 349 347 342 340 336 334 333 333
298 301 299 298 294 291 295 295 298 311 316 320 325 328 331 334 335 335 336 337 339 340 341 344 345 345 346 347 347 346 345 345 344 346 346 347 349 351 352 352 350 348 347 345 340 336 336 333 333
303 298 295 293 291 287 293 294 293 304 313 321 325 328 330 331 333 335 337 339 338 340 341 343 344 344 346 346 346 345 344 342 342 344 344 346 349 350 351 351 350 348 344 344 340 338 337 336 334
298 293 286 285 285 288 293 293 298 304 315 318 323 327 329 332 333 333 334 334 337 337 340 342 343 343 345 344 345 345 345 344 343 343 345 345 347 349 349 350 349 346 342 342 339 337 335 336 335
294 292 286 282 282 288 292 290 295 305 314 319 320 323 327 329 332 333 334 334 335 337 339 342 342 343 345 345 344 346 346 345 344 344 345 347 348 350 352 350 350 347 343 341 339 336 334 336 335
293 293 294 286 286 285 288 293 301 305 306 314 317 319 321 325 329 331 334 335 335 337 338 341 343 343 344 345 345 345 346 346 345 345 346 347 349 351 351 351 350 348 342 341 339 336 335 335 334
296 297 290 285 283 281 286 289 293 300 305 308 313 317 320 323 326 329 331 333 335 336 339 342 343 342 345 346 346 346 346 347 347 346 344 345 347 350 351 351 350 347 343 340 339 336 336 335 333
293 292 289 291 287 284 282 288 296 301 304 305 311 317 320 322 324 327 329 332 334 336 337 340 342 342 343 347 347 347 348 348 347 346 346 346 347 349 349 351 350 347 343 340 338 337 336 335 335
303 297 291 290 287 285 286 291 300 301 305 307 309 315 320 322 324 327 328 330 332 333 335 337 341 342 343 347 348 348 348 348 347 347 347 348 347 349 349 350 349 347 343 341 339 337 337 335 334

GFSSGP_sfc_thetae_027.txt.gz
Theta_e
356 356 353 343 325 322 316 319 325 323 325 332 334 329 328 331 324 320 343 346 347 349 352 354 361 363 364 364 365 366 366 364 364 364 363 362 362 362 361 360 360 360 360 359 359 358 358 357 356
356 352 345 336 322 316 317 325 321 326 331 335 334 333 330 325 333 337 339 346 348 349 351 354 361 364 363 365 366 366 363 363 363 363 362 362 362 361 360 360 360 361 360 359 358 358 357 356 355
353 347 334 327 322 315 317 324 326 331 334 332 331 335 333 329 337 339 345 346 349 350 353 356 363 366 365 366 365 365 364 363 363 363 362 361 361 360 360 360 360 361 361 360 359 357 356 355 353
346 338 336 323 316 322 323 327 331 330 332 334 334 328 334 342 340 344 347 347 348 350 353 360 364 363 365 365 365 363 363 363 363 363 362 361 360 359 360 360 361 361 360 358 358 358 357 355 354
346 339 324 320 318 324 328 332 333 329 330 331 332 326 329 340 345 346 347 347 347 349 354 359 364 365 365 365 364 362 362 362 363 362 361 361 360 359 359 360 360 360 359 358 358 358 356 356 357
336 335 319 315 317 325 330 334 333 331 331 330 329 329 331 344 344 345 348 347 350 350 354 358 363 364 364 364 363 363 362 362 362 362 362 361 360 359 359 359 360 360 359 358 358 357 356 356 358
330 326 319 317 319 323 328 335 331 331 329 328 333 327 332 338 345 347 348 348 350 352 354 355 358 361 363 362 362 362 363 362 362 361 361 361 359 358 357 359 358 359 358 358 358 357 356 356 357
337 327 318 319 321 321 331 333 335 331 328 336 336 326 326 339 345 347 349 348 350 352 353 355 356 357 359 359 361 361 362 362 362 361 360 359 358 357 358 356 359 357 357 357 357 356 355 355 355
338 324 318 316 320 322 333 330 334 337 332 333 335 334 338 344 345 344 345 346 349 351 353 354 354 359 361 360 359 360 360 361 361 360 359 359 362 361 359 358 356 357 357 357 356 357 358 356 357
334 324 319 323 324 324 331 332 332 330 329 330 333 337 340 343 342 340 341 342 345 347 351 353 353 356 358 356 361 361 359 356 358 358 361 362 362 362 360 361 358 359 353 352 357 358 357 356 353
334 322 327 324 325 329 331 331 334 330 325 331 331 334 338 340 340 339 340 342 343 346 348 352 354 357 356 355 357 358 358 358 358 361 361 361 361 361 361 362 359 361 352 352 356 357 359 355 351
326 329 327 326 327 331 331 334 331 331 328 334 337 337 338 338 338 339 339 342 343 345 347 350 353 356 357 356 356 357 357 357 356 357 362 360 357 360 362 361 360 361 359 357 360 359 360 359 357
327 325 325 327 325 323 334 331 331 331 335 338 338 337 336 337 339 341 342 343 344 344 346 350 354 356 358 358 356 357 358 356 356 357 358 357 354 357 360 362 359 359 360 357 358 363 359 357 353
318 317 316 316 316 319 328 329 332 333 337 336 335 335 336 337 339 340 341 341 343 345 347 350 353 356 358 357 359 357 359 357 357 355 355 358 356 359 360 361 358 357 361 360 358 360 358 348 347
311 307 310 312 315 315 324 322 326 335 336 333 333 335 336 338 339 340 343 344 345 346 349 350 353 356 358 358 357 357 357 355 354 354 357 356 358 360 361 359 357 358 363 361 358 358 361 350 343
307 308 305 311 313 315 320 310 325 335 334 333 333 334 335 338 339 343 345 346 348 348 349 352 352 354 357 358 358 356 355 354 353 353 354 356 357 361 361 359 357 362 362 363 360 362 359 354 341
305 302 304 307 314 318 320 313 322 335 334 333 332 333 335 337 340 343 345 346 348 349 350 350 353 352 355 357 357 356 355 354 353 353 354 357 358 361 360 359 359 363 361 360 360 358 355 348 345
299 300 303 305 311 313 317 317 322 333 333 332 333 333 334 335 337 342 344 346 348 350 351 352 352 354 356 355 356 354 352 351 352 352 353 359 360 361 361 359 361 361 358 357 358 358 352 347 346
303 303 304 307 311 312 312 315 321 331 332 332 333 333 334 336 340 342 344 346 347 349 351 353 353 356 354 352 349 349 347 349 352 356 359 359 361 362 363 359 361 360 356 358 358 353 349 345 347
302 301 303 306 309 310 311 313 320 328 331 333 333 334 334 336 339 341 343 345 346 348 351 354 355 357 356 354 354 352 351 350 355 359 361 361 361 363 362 362 360 360 356 358 356 353 346 344 346
302 301 302 303 307 308 310 308 314 325 330 333 335 336 336 336 337 339 341 343 345 347 351 354 357 359 359 359 356 354 355 355 355 356 357 359 362 363 364 363 361 361 359 355 357 352 348 341 345
299 305 304 303 303 300 310 301 311 316 324 329 332 334 336 337 339 340 341 342 344 349 351 355 357 359 358 361 357 357 350 347 351 355 357 358 362 362 363 363 362 362 359 359 357 352 349 344 339
302 307 305 305 303 303 304 302 308 316 318 324 330 333 335 338 339 340 341 344 345 348 348 353 358 359 360 361 360 355 355 352 354 354 360 364 363 362 362 363 362 362 359 360 357 352 349 344 341
309 305 304 303 303 296 302 301 304 309 316 323 329 332 335 337 340 342 344 345 345 347 347 350 356 357 360 360 360 360 359 357 352 353 352 353 356 357 361 362 363 363 361 360 358 355 352 348 344
306 302 296 294 294 294 305 301 304 312 318 319 325 331 335 338 339 341 342 343 346 347 349 349 354 354 357 358 358 359 360 360 358 357 353 355 352 353 359 361 361 360 361 360 358 355 352 349 345
303 303 296 290 292 295 303 298 304 313 316 322 325 330 334 336 338 340 343 346 347 348 349 350 351 353 356 356 357 359 360 356 356 358 354 353 353 355 362 361 362 362 361 359 357 353 350 349 347
302 300 305 297 297 296 299 304 309 312 313 318 322 325 330 335 337 339 343 346 346 348 349 350 351 353 355 355 356 357 358 358 356 359 360 355 361 356 360 362 362 362 361 359 356 351 350 348 348
304 307 297 299 291 290 296 298 301 309 311 314 318 322 326 329 335 338 341 344 346 346 349 350 352 353 355 356 356 355 356 358 358 359 358 359 360 361 360 361 362 362 361 359 357 353 351 348 345
301 301 302 302 299 294 292 297 309 312 316 316 318 321 324 327 330 334 340 344 345 345 347 348 350 352 354 355 356 356 356 357 358 358 358 359 361 361 361 361 360 360 360 358 356 355 352 348 348
306 304 303 297 297 298 298 298 310 313 315 317 318 320 325 329 332 333 335 339 341 345 345 347 349 350 353 355 356 355 357 357 356 357 358 360 360 360 362 362 360 360 359 358 356 354 352 349 347

GFSSGP_sfc_thetae_033.txt.gz
Theta_e
356 356 354 344 327 327 321 323 328 327 328 336 337 335 331 335 331 321 342 345 340 345 353 356 362 363 363 365 366 364 363 364 363 363 362 362 362 361 361 361 361 361 360 360 359 358 358 358 357
351 354 351 341 322 316 318 326 325 329 335 338 338 336 334 330 340 342 340 341 348 349 353 354 363 364 365 365 365 365 363 363 364 363 363 363 362 361 361 361 360 361 360 359 358 358 357 356 355
352 353 338 332 327 315 319 328 331 334 337 335 336 339 338 333 341 345 349 352 350 351 355 359 363 364 365 365 365 364 363 363 363 362 362 362 361 360 360 360 361 360 360 359 358 358 357 355 354
349 344 340 323 318 325 325 328 335 334 336 338 337 332 341 345 344 349 351 351 353 353 354 360 363 363 364 364 364 363 362 363 363 361 361 361 361 361 362 360 361 359 360 359 359 358 358 357 356
348 341 328 322 321 326 330 334 335 331 334 335 338 333 335 342 348 350 349 351 348 353 356 360 364 365 365 364 363 363 363 363 362 361 360 361 361 360 362 361 360 359 359 359 358 358 358 359 358
340 342 322 317 321 327 331 335 335 333 335 336 337 334 337 346 346 349 350 348 353 351 352 360 364 365 365 363 363 363 363 362 362 362 361 361 360 360 361 361 361 360 359 358 358 358 359 359 359
338 330 321 319 320 324 329 335 331 333 334 335 340 333 338 342 346 348 349 350 351 349 351 356 358 363 364 364 363 362 362 362 363 362 361 360 360 359 359 360 360 359 359 358 358 357 357 359 359
340 332 323 324 316 322 329 332 334 334 334 342 343 333 332 343 346 348 349 348 351 348 349 351 354 357 359 359 362 362 362 362 362 362 361 361 361 360 359 360 360 358 357 356 357 356 356 358 360
344 326 322 319 319 325 331 328 335 339 336 338 339 341 344 347 346 345 345 345 347 346 347 348 350 355 359 358 361 362 362 362 361 361 362 361 365 362 361 361 358 357 355 356 357 359 359 359 360
334 320 322 326 326 326 330 328 330 332 333 334 338 344 346 347 343 341 341 342 345 343 345 348 350 352 354 351 359 359 356 355 357 357 360 357 362 361 359 360 360 360 352 358 359 357 360 361 353
332 323 327 326 328 331 330 330 332 330 329 335 337 341 343 344 344 341 342 343 346 346 346 348 351 354 352 356 352 353 351 353 356 361 363 358 359 360 353 355 354 357 356 353 356 357 357 349 349
326 331 328 328 328 328 328 332 331 330 330 339 342 344 344 343 343 343 345 346 346 347 346 348 351 354 353 353 351 351 350 352 351 356 364 366 358 359 355 356 357 358 357 357 358 355 356 354 353
327 329 330 330 328 327 329 330 330 331 334 339 343 344 343 343 344 346 347 348 349 346 347 348 352 359 359 358 352 352 351 350 350 354 361 360 360 361 358 359 358 358 358 359 359 356 357 355 353
329 329 328 329 328 327 323 328 331 335 338 339 340 341 343 343 344 346 346 346 348 348 348 349 351 356 357 359 361 354 353 352 352 351 355 362 361 361 359 359 358 360 359 356 357 357 354 352 352
328 320 326 327 325 322 324 322 326 335 339 338 338 341 342 343 345 345 346 346 348 349 350 350 352 355 357 358 358 356 354 352 351 351 357 360 362 364 367 359 356 361 364 361 360 358 357 350 347
321 322 314 321 322 322 322 316 326 333 337 337 338 338 340 342 344 346 347 347 349 349 351 352 351 353 356 358 359 356 354 353 352 351 353 360 363 366 367 359 358 360 362 357 359 353 350 349 344
314 311 313 316 323 321 320 317 325 332 334 335 338 338 338 340 343 346 347 348 348 350 352 352 353 353 356 362 359 358 363 354 352 350 351 363 362 363 365 355 355 366 359 356 353 352 353 343 342
309 310 314 315 320 320 318 318 323 329 332 333 337 339 338 338 341 345 347 348 349 350 352 356 353 362 365 361 364 357 354 354 353 350 350 364 361 363 365 362 362 361 360 357 354 357 349 348 343
315 313 312 318 321 319 318 319 322 327 330 331 336 338 339 339 342 344 346 347 347 349 352 357 359 366 361 356 354 353 350 352 350 350 359 361 361 365 367 362 365 361 362 359 358 355 353 348 345
314 312 312 317 320 319 318 318 322 325 328 331 334 336 338 340 341 342 344 345 346 349 356 361 363 369 366 359 361 357 357 350 349 350 361 360 362 366 366 369 363 364 357 361 361 357 350 344 341
310 310 312 312 317 319 317 315 317 323 326 331 334 338 339 340 341 342 343 344 346 350 356 360 366 368 367 367 363 362 359 356 349 350 352 359 364 365 371 367 364 366 364 365 362 358 355 343 340
305 312 312 311 311 308 316 306 315 319 321 328 331 336 338 340 343 344 342 343 345 349 353 363 367 369 368 370 362 363 351 346 347 351 351 358 367 365 366 367 364 368 362 364 362 359 358 355 341
308 312 310 311 310 310 311 309 314 319 317 322 328 334 337 340 342 343 344 344 346 348 351 358 368 369 369 369 368 359 358 349 349 350 362 366 373 367 363 370 368 369 364 371 364 364 362 353 347
313 309 309 310 308 302 308 308 310 314 319 322 326 330 334 337 341 345 347 346 345 347 350 357 366 370 372 371 369 370 363 360 350 351 351 353 355 362 370 367 373 373 370 366 365 367 364 360 355
310 307 300 298 299 299 309 307 311 318 320 323 324 328 331 336 340 343 345 345 346 348 352 356 364 367 370 371 369 368 370 369 370 365 352 356 352 352 365 372 372 365 373 368 372 371 366 362 357
308 307 301 295 297 300 308 304 309 319 322 324 327 328 331 334 339 342 345 347 349 351 355 357 362 367 370 369 370 371 373 362 360 364 355 354 353 354 368 371 370 370 370 369 373 365 362 365 359
309 305 310 306 307 303 305 309 314 318 319 322 324 326 328 333 337 341 345 347 351 352 356 358 362 366 368 367 369 371 371 370 364 367 369 362 365 356 368 370 370 370 370 372 374 362 367 366 361
312 312 304 305 299 299 304 306 306 314 316 320 322 324 327 331 336 340 344 346 351 352 356 359 361 364 367 366 368 369 371 373 371 372 372 367 368 371 371 367 368 369 371 372 373 366 369 367 358
308 308 308 308 306 301 300 305 315 316 318 319 322 324 326 328 334 339 343 346 350 352 352 356 360 364 366 367 368 368 369 371 373 370 372 373 373 375 370 372 370 369 369 371 372 370 369 366 365
312 309 310 303 304 306 306 307 316 318 318 321 321 325 326 330 333 339 343 345 346 350 351 353 357 357 365 367 368 368 370 370 370 371 371 374 374 373 374 374 372 370 369 370 371 368 361 366 362

GFSSGP_sfc_thetae_036.txt.gz
Theta_e
355 353 353 345 327 326 318 321 327 325 328 336 337 334 331 334 328 322 343 344 342 348 352 356 363 362 365 366 366 366 366 365 365 365 364 365 363 364 364 362 362 362 361 360 359 359 359 359 359
353 352 351 340 321 315 317 327 324 329 334 338 337 335 333 329 336 336 339 342 342 348 350 353 363 365 365 366 366 366 364 364 365 363 366 365 363 364 362 361 362 361 360 360 359 358 357 357 358
352 353 337 330 322 315 319 327 328 333 337 336 336 340 336 333 338 337 341 340 343 347 350 359 365 364 364 365 366 365 365 364 363 363 364 363 363 362 361 362 361 361 361 359 359 358 357 356 356
347 344 338 322 318 324 326 329 332 333 336 338 337 332 339 344 341 338 337 342 343 348 352 361 364 364 365 366 365 365 364 363 364 362 361 362 362 362 361 362 361 361 360 360 360 360 359 358 356
348 340 325 321 321 327 331 334 334 331 333 335 337 331 334 343 343 339 343 343 343 351 356 357 366 367 366 365 365 364 363 362 362 362 361 361 361 362 362 362 361 361 361 360 360 360 360 359 358
337 331 318 316 319 328 331 334 335 332 335 336 334 332 334 344 344 346 346 348 352 351 354 357 364 366 366 364 364 365 363 362 362 361 361 361 361 362 363 362 361 361 360 360 359 359 359 359 358
323 322 317 318 320 325 329 335 331 332 333 334 339 332 336 340 345 346 349 349 350 350 353 356 360 362 364 365 363 363 362 362 362 361 361 360 360 361 361 363 363 361 360 359 357 357 358 359 359
339 332 322 322 318 319 330 332 334 334 333 343 342 330 331 341 346 348 348 348 347 348 350 356 358 356 358 358 362 362 362 362 362 361 360 359 358 358 360 365 364 360 360 357 357 355 356 360 361
341 324 320 320 320 321 328 329 336 339 336 339 342 339 342 345 345 345 346 347 346 347 348 351 350 356 360 359 359 362 362 362 362 360 360 360 364 362 358 364 363 358 357 355 356 356 359 364 363
331 320 318 327 327 326 327 327 331 331 332 336 338 342 343 344 343 341 340 342 342 340 344 347 350 353 356 352 360 362 358 357 359 356 348 352 361 360 359 361 365 360 355 355 359 357 360 362 354
329 322 326 326 329 330 326 327 332 329 328 336 335 337 340 341 342 342 342 343 342 343 343 347 352 356 353 354 356 356 355 356 355 351 347 347 355 356 362 355 356 360 358 353 344 349 354 357 354
324 327 328 328 330 329 327 327 326 329 330 341 341 341 341 339 340 340 341 343 343 342 344 346 352 356 355 354 351 353 352 352 356 357 353 353 353 353 355 360 361 360 354 351 352 353 358 351 350
325 326 329 329 329 331 329 327 327 328 336 341 342 341 340 341 341 343 343 344 346 343 345 347 353 358 363 361 352 352 356 354 355 361 368 351 357 356 355 358 352 360 356 353 355 358 353 359 352
327 328 328 330 329 326 324 327 327 329 335 337 340 339 341 340 341 345 344 344 346 347 345 351 353 358 365 365 374 360 366 354 359 354 361 368 359 360 361 365 357 358 356 353 358 364 359 348 353
325 322 326 327 326 324 325 321 325 332 335 335 337 340 341 341 344 343 346 347 347 348 348 351 353 356 363 364 368 368 364 351 356 359 365 366 369 368 355 364 362 363 367 366 364 352 356 350 347
321 322 316 324 326 325 321 314 326 334 334 333 335 337 340 341 340 345 347 348 350 348 350 351 348 353 356 360 364 363 357 361 360 360 360 364 368 374 373 362 357 354 358 364 352 359 351 352 350
318 312 316 319 325 322 319 315 324 332 333 333 334 335 337 341 342 345 344 347 347 350 353 353 353 353 355 362 361 359 362 363 362 364 360 365 367 369 371 362 354 364 365 360 359 357 350 350 348
311 310 315 315 319 320 317 316 323 327 331 333 336 335 337 337 340 344 345 347 348 353 355 356 354 359 359 359 361 359 357 361 361 363 362 365 366 368 369 363 365 367 364 357 358 360 355 352 348
316 312 311 316 320 317 316 317 322 326 327 331 335 336 336 337 342 345 346 347 348 352 354 354 356 362 358 356 355 355 352 357 359 362 365 367 367 369 372 366 354 364 363 363 362 359 352 348 348
315 312 311 314 319 319 318 316 320 324 326 327 333 336 337 336 339 343 344 345 346 349 353 355 356 361 360 358 358 357 359 356 356 359 366 366 365 372 370 368 365 368 354 364 362 360 353 350 347
314 312 311 311 315 319 317 314 318 322 325 329 332 337 338 338 338 341 343 344 346 349 352 355 357 362 363 361 362 364 364 364 356 354 358 361 366 367 369 368 366 366 364 359 361 361 361 347 346
306 315 314 313 311 307 318 306 317 319 320 325 328 334 336 339 341 341 343 344 345 348 352 357 359 361 363 364 359 360 352 349 352 353 356 358 362 366 366 366 369 368 365 363 364 365 363 357 342
307 312 312 311 310 309 310 308 313 319 317 321 327 332 335 339 341 342 342 344 345 349 353 357 360 361 364 360 364 358 356 353 353 356 359 361 364 367 367 366 370 370 368 365 363 366 364 362 355
312 309 309 309 308 302 307 307 310 314 318 321 326 330 336 338 341 344 345 346 345 349 354 357 360 361 364 363 360 365 357 357 351 352 355 358 363 363 369 367 367 369 368 367 365 368 367 363 361
310 306 299 298 299 298 308 306 310 316 321 323 324 329 336 338 340 344 344 344 345 347 351 354 360 360 362 363 360 359 365 358 361 362 351 354 354 359 363 368 367 365 367 368 368 366 368 364 361
307 306 299 294 295 298 307 302 308 318 321 323 326 329 332 336 338 343 346 346 346 347 350 352 358 359 362 362 363 361 365 361 356 364 355 353 355 356 365 364 366 366 365 366 370 368 365 364 361
307 303 309 303 304 300 303 307 312 317 318 321 322 326 329 332 336 341 346 347 347 347 349 352 356 360 362 361 364 364 360 365 360 361 364 361 360 360 368 365 365 364 367 368 369 362 364 366 362
310 312 302 304 297 297 302 306 306 312 316 319 321 323 328 331 335 341 345 348 349 348 350 352 357 359 362 363 363 364 362 364 365 362 363 360 365 362 373 365 364 365 365 368 367 364 366 363 361
307 307 307 306 304 299 300 303 317 316 318 320 322 324 327 331 334 339 344 347 350 350 350 351 353 359 361 363 363 363 364 362 363 363 365 368 363 372 364 368 365 365 365 365 366 363 363 364 361
311 308 309 302 302 305 305 305 317 320 321 321 322 325 328 332 336 338 343 347 349 350 351 351 353 356 361 364 364 363 364 365 364 362 364 367 369 366 371 368 365 365 364 365 364 363 359 362 360

GFSSGP_sfc_thetae_039.txt.gz
Theta_e
353 350 350 344 327 322 316 319 328 326 327 335 334 333 330 332 327 317 341 343 346 347 353 360 365 366 365 366 366 365 365 365 365 366 365 364 363 364 362 362 362 362 361 360 360 360 360 359 358
351 349 349 336 320 313 316 326 323 328 333 336 336 334 331 325 334 335 334 344 348 348 351 358 364 365 366 366 367 365 364 362 364 366 365 364 364 364 362 362 361 361 361 360 360 359 358 359 358
350 352 336 327 322 313 317 326 328 333 335 334 333 337 334 328 334 334 338 344 346 346 352 357 365 366 366 366 366 366 366 363 366 366 364 364 365 363 362 362 362 361 361 360 359 358 358 357 356
344 343 338 322 317 323 324 328 332 332 336 337 334 329 337 338 336 337 338 343 343 347 355 363 365 364 366 365 365 364 363 363 364 364 364 364 365 362 362 361 361 361 361 361 360 360 358 357 356
347 338 324 319 319 324 328 332 334 331 333 334 334 329 331 334 337 336 339 342 340 352 356 359 367 366 367 365 364 365 363 362 364 364 363 363 363 362 362 362 362 362 361 361 361 360 360 359 356
331 329 317 314 319 326 331 333 334 332 333 333 332 331 331 331 331 334 339 338 345 351 354 358 365 366 367 363 363 365 362 362 364 364 362 361 363 365 363 362 362 361 360 360 360 360 359 358 356
323 324 317 318 319 322 328 335 333 333 332 330 336 328 328 328 335 338 338 343 349 352 353 357 358 360 364 366 363 364 362 363 363 363 362 361 361 361 363 363 364 361 360 359 359 360 360 358 357
332 324 316 319 319 320 330 331 335 335 332 340 339 328 327 335 341 341 344 346 348 351 353 355 356 355 355 357 363 363 362 363 362 362 361 360 358 359 360 363 366 361 360 359 359 361 362 361 357
338 320 316 317 319 321 329 330 337 340 335 337 339 336 338 341 344 343 341 342 343 348 350 353 353 351 351 354 358 361 362 363 363 362 358 348 350 353 356 361 364 358 358 358 363 362 361 363 361
329 320 318 325 326 323 328 330 332 333 332 332 335 340 341 341 341 339 338 339 341 343 346 350 349 349 351 354 353 354 356 356 355 350 346 345 344 348 356 359 363 361 358 360 359 356 356 354 354
328 320 324 326 328 329 327 328 332 332 328 332 331 335 340 339 338 339 340 342 338 342 344 344 348 349 349 351 351 352 351 351 353 348 342 341 346 348 351 350 353 352 354 350 343 347 350 352 350
323 328 328 328 329 328 325 328 327 334 333 338 338 339 339 338 338 339 339 339 337 339 340 343 347 349 347 349 350 350 350 350 350 348 342 344 343 348 348 351 351 352 348 348 348 347 349 346 347
323 327 329 329 327 327 327 326 330 333 338 339 339 339 337 339 338 341 341 341 339 336 338 342 347 347 349 346 345 345 346 347 352 350 343 349 345 350 351 353 347 349 350 350 352 349 349 346 346
325 326 328 328 327 327 324 326 327 335 338 337 337 335 337 338 338 340 340 340 339 338 338 345 346 349 348 348 345 344 350 346 355 354 351 350 349 353 350 353 352 352 349 347 347 350 348 344 344
325 321 326 327 326 325 327 321 322 336 337 334 335 335 337 338 339 339 339 339 340 341 340 344 345 350 348 349 348 352 349 346 345 353 354 354 355 351 350 348 351 351 351 348 351 342 349 344 344
319 319 313 323 324 325 324 314 326 333 334 332 335 336 336 337 338 340 341 341 341 341 343 345 346 350 350 349 349 351 348 350 349 353 352 352 353 356 351 350 351 350 352 353 350 350 344 343 343
313 308 309 315 323 323 314 310 325 330 332 332 333 335 335 336 338 340 342 343 342 341 344 344 345 346 349 349 351 348 349 349 351 353 351 351 353 357 354 350 351 350 353 349 347 348 344 342 342
305 306 309 311 319 319 313 311 325 329 331 330 333 334 335 335 336 341 343 344 343 343 345 344 345 345 347 350 351 347 347 350 349 349 351 353 354 356 355 351 350 353 349 348 345 342 341 340 336
312 311 308 312 319 315 314 311 324 328 329 330 331 332 334 335 338 341 343 344 344 345 344 343 346 347 346 350 347 347 344 346 346 347 354 355 356 356 355 354 352 352 348 349 348 343 343 338 332
310 309 309 311 315 313 313 311 316 326 329 329 331 331 332 335 336 338 338 341 343 344 346 345 348 349 348 350 347 347 348 347 347 346 354 357 356 357 356 354 351 353 349 350 348 345 342 341 333
307 307 308 308 311 314 313 310 313 324 325 328 332 337 336 334 334 336 337 338 342 344 345 346 347 351 349 350 350 349 349 347 345 344 344 354 354 358 356 355 354 353 348 348 349 346 345 331 335
303 311 312 312 308 301 312 299 308 317 320 326 328 328 332 333 335 337 337 338 339 344 347 346 348 353 351 352 351 348 345 343 344 342 343 349 354 356 358 356 354 353 353 349 349 351 346 336 327
307 311 311 311 307 302 306 303 308 313 315 320 325 326 333 333 334 336 337 339 340 345 347 347 348 352 353 353 351 350 346 345 343 343 343 347 349 353 360 356 356 353 354 351 350 352 346 344 339
314 308 305 307 304 296 300 303 303 310 312 316 324 330 333 334 335 336 339 339 340 345 347 349 348 349 353 352 353 349 347 343 344 340 341 349 351 355 357 358 357 355 355 353 352 353 350 346 347
309 300 291 291 294 293 298 298 300 310 316 317 320 327 333 335 335 335 337 337 339 342 344 348 349 348 353 352 350 353 350 348 344 342 342 345 352 353 355 357 355 356 356 357 354 354 354 350 347
304 301 290 285 288 292 298 295 301 310 313 319 321 328 332 334 335 336 337 338 338 340 345 349 349 349 353 354 351 350 354 352 348 351 345 345 349 353 354 358 357 356 356 355 357 355 355 353 348
302 298 300 292 294 290 293 297 304 309 311 312 314 322 331 333 336 337 337 338 338 340 345 347 351 350 352 354 354 351 351 357 349 347 353 343 347 351 356 357 359 357 356 355 356 358 354 354 351
305 304 295 296 287 287 294 296 298 303 306 311 311 313 328 332 335 338 338 338 339 340 345 348 353 352 353 353 355 355 351 351 356 349 348 352 346 348 354 356 358 357 357 357 357 356 357 353 354
301 300 300 295 294 288 289 295 307 306 308 310 312 314 324 331 334 339 339 340 340 341 344 346 349 353 354 354 354 355 355 352 355 355 350 355 351 353 352 357 357 356 357 359 357 354 354 354 352
306 302 300 296 291 295 294 296 311 310 311 312 314 314 319 329 331 339 341 341 340 340 342 344 347 352 354 356 355 355 357 356 352 355 355 351 356 353 357 359 357 358 357 356 358 355 355 352 352

GFSSGP_sfc_thetae_042.txt.gz
Theta_e
352 351 350 343 326 321 316 318 328 325 327 333 332 330 328 329 326 314 341 343 347 349 356 360 365 366 364 363 364 365 363 362 364 363 364 365 362 363 363 363 361 360 360 361 361 360 360 357 358
349 348 348 336 320 313 314 321 323 328 332 336 335 334 330 324 333 335 335 345 349 351 355 358 365 365 365 364 365 365 363 364 363 363 365 364 362 364 362 362 361 361 360 360 359 359 360 358 356
348 351 335 326 320 313 316 324 327 332 335 334 331 336 332 327 334 334 342 347 349 350 356 358 366 366 365 364 364 363 363 362 363 362 363 364 363 362 362 361 361 361 360 360 359 358 358 358 357
345 344 337 322 316 322 324 329 332 332 335 335 334 328 331 337 334 337 346 347 346 352 355 363 366 364 364 363 364 362 362 361 363 362 363 364 363 361 362 361 361 361 361 360 359 357 357 357 356
345 338 323 318 318 324 329 331 332 330 332 332 334 325 325 334 336 342 343 345 346 352 357 360 366 366 364 363 362 362 361 361 362 363 363 364 362 362 362 362 361 361 361 360 360 359 358 357 357
330 328 316 312 317 325 328 333 332 332 333 332 329 328 322 333 335 339 342 343 351 353 357 359 365 366 364 362 363 361 361 361 362 362 362 363 363 362 362 362 361 361 360 360 360 359 358 357 357
323 323 315 317 318 322 327 335 332 331 331 330 335 321 323 328 334 338 338 350 351 354 356 357 359 359 362 363 363 362 362 362 362 362 362 362 362 361 362 362 362 361 360 359 358 359 358 357 356
329 324 318 320 318 320 330 333 336 332 330 339 332 318 316 326 335 337 336 348 349 353 355 354 353 354 356 356 363 362 362 362 362 361 360 360 360 360 360 363 363 361 360 359 358 358 359 357 355
334 317 317 318 319 322 331 330 337 339 333 335 337 329 327 331 334 333 339 345 347 351 353 353 352 352 353 354 357 361 363 362 362 361 361 351 346 351 356 358 361 359 358 358 359 360 361 358 357
330 319 320 326 326 324 329 330 333 332 332 332 331 329 335 335 332 335 338 341 343 346 350 352 351 350 351 356 353 352 356 356 354 345 343 343 344 347 355 358 360 358 355 357 355 355 359 355 353
330 319 324 325 329 330 326 333 335 331 327 331 328 332 334 334 337 337 339 341 343 346 350 349 348 349 349 350 350 350 351 352 351 345 341 341 345 347 349 349 352 350 352 347 343 345 348 349 350
321 330 328 325 329 329 325 330 332 333 332 336 335 336 336 335 337 337 338 339 342 344 347 347 347 348 345 350 350 350 350 349 348 343 338 342 340 346 346 346 348 351 346 345 345 346 347 346 345
321 325 328 329 328 326 327 327 330 332 336 338 337 336 335 337 337 339 340 340 341 341 343 344 346 347 346 345 346 347 347 347 348 346 341 343 343 345 347 349 349 348 348 346 346 346 347 346 341
324 324 327 327 323 325 322 326 332 333 337 336 336 334 335 336 337 339 339 337 338 340 341 343 346 346 347 344 341 343 345 345 349 347 342 347 343 347 348 347 346 346 346 346 345 347 346 341 340
320 319 325 323 323 323 326 322 327 334 335 333 334 335 336 337 338 338 340 337 337 338 340 342 345 346 345 342 341 342 345 346 350 349 348 348 345 349 348 349 348 347 347 345 344 342 343 338 339
313 316 313 323 324 326 324 316 330 334 332 331 333 334 335 337 337 340 341 340 338 336 338 343 346 347 344 347 345 347 344 343 347 352 351 350 351 350 349 349 349 349 351 349 347 345 339 340 340
305 303 309 317 326 324 322 316 330 333 331 329 331 332 334 335 337 339 341 340 340 338 339 342 343 347 343 346 344 345 346 346 347 349 350 351 354 354 349 347 350 349 348 348 343 346 341 339 342
299 303 306 309 316 322 320 319 328 331 330 330 331 331 333 334 335 339 340 341 341 341 341 341 342 347 345 346 343 343 343 345 347 348 348 349 351 355 352 348 346 349 347 345 344 339 340 340 337
306 306 307 311 316 315 317 321 326 330 330 330 331 331 332 334 337 339 341 341 341 342 341 341 341 345 346 344 343 340 338 341 344 345 348 349 351 353 352 351 352 350 348 347 342 341 339 334 331
304 302 306 312 315 311 310 318 323 327 329 330 331 332 333 334 335 338 339 340 340 341 341 341 341 343 346 345 345 344 341 342 344 344 349 351 352 353 352 350 348 349 348 346 345 342 338 334 330
302 300 303 306 312 310 308 310 318 325 329 328 330 335 335 334 334 336 338 339 340 340 341 341 342 342 344 346 344 344 346 343 342 342 346 351 353 354 353 352 350 349 347 346 345 344 339 327 333
297 305 306 307 305 299 308 299 315 321 322 324 327 331 333 334 336 337 338 339 340 341 342 342 344 344 344 347 344 343 343 343 343 341 340 350 352 354 354 352 351 351 348 345 346 346 343 327 327
302 306 305 307 302 299 305 298 309 320 318 322 324 327 331 334 336 335 337 340 341 343 343 342 346 345 346 348 346 343 341 343 342 341 340 345 350 352 354 353 351 350 350 347 347 348 344 336 328
310 306 305 304 299 294 302 299 299 315 319 322 324 324 327 331 335 336 338 338 341 343 343 343 346 346 346 348 347 345 343 342 341 339 339 341 346 349 353 354 352 352 351 349 347 349 344 345 336
308 299 293 292 290 291 302 295 301 312 323 324 324 327 329 329 334 335 335 336 339 341 342 343 344 346 347 347 348 347 346 344 343 339 338 341 344 345 349 354 351 351 351 350 349 349 348 343 344
303 299 291 287 285 292 295 291 297 307 316 326 328 330 329 328 333 334 336 336 337 342 343 343 343 344 348 348 347 348 347 348 346 342 340 341 346 348 350 354 354 354 353 353 350 349 351 347 345
303 299 300 289 288 287 291 294 300 305 306 310 322 328 327 331 333 334 336 337 338 340 343 343 343 343 347 348 349 349 350 348 348 345 345 339 345 352 351 355 354 354 353 353 352 350 349 351 345
302 302 293 288 285 283 290 291 294 300 303 304 308 323 326 333 334 334 336 337 338 340 343 345 345 343 345 349 348 347 348 353 351 347 345 347 342 349 352 352 356 354 353 352 351 353 350 351 349
301 299 294 295 289 286 285 292 300 301 303 304 306 321 329 332 333 334 335 338 338 340 342 344 345 345 346 348 351 350 347 348 353 350 345 346 348 343 348 352 353 355 353 352 350 351 354 350 350
308 298 297 294 288 289 289 295 306 305 307 308 309 311 329 333 334 335 335 337 337 338 341 342 347 346 347 349 351 351 351 349 347 352 349 347 347 349 344 352 352 354 354 353 352 351 354 354 350

GFSSGP_sfc_thetae_045.txt.gz
Theta_e
353 351 349 342 326 321 316 318 327 325 325 332 330 329 327 329 324 313 339 342 348 350 355 359 363 362 362 362 363 363 364 363 363 363 362 362 362 362 362 360 360 361 361 361 360 358 356 358 357
350 348 346 336 319 312 314 322 323 328 332 334 333 332 328 325 333 335 335 347 351 353 354 358 363 364 362 363 363 363 362 362 362 363 362 362 362 362 361 361 360 360 361 360 360 359 356 356 356
347 349 333 324 317 313 316 322 327 330 335 333 331 335 330 327 334 334 342 349 352 352 354 358 364 364 362 362 362 364 363 361 362 362 363 362 363 361 361 361 361 360 359 357 358 357 357 355 356
343 342 337 321 316 322 323 327 330 330 334 335 332 324 330 337 334 339 347 351 352 353 354 362 362 363 361 362 363 363 361 361 362 364 362 362 362 362 362 361 361 360 360 359 358 357 357 356 355
344 338 322 316 318 324 327 331 332 329 332 332 331 322 326 334 341 344 347 349 350 351 356 357 364 364 363 361 362 362 361 362 363 364 362 362 362 362 362 362 362 361 361 360 359 358 357 356 355
329 328 316 311 317 324 329 332 333 332 332 328 325 323 324 336 340 343 345 347 352 353 356 357 363 362 363 361 361 361 361 362 362 362 363 362 362 362 362 362 361 360 360 360 359 358 356 356 356
323 320 316 317 318 321 327 335 331 331 330 329 330 318 323 333 339 342 343 349 353 355 355 356 357 357 362 363 361 361 362 362 362 362 363 362 362 361 362 362 361 360 360 359 359 357 357 356 355
329 324 317 320 318 320 329 332 336 332 330 335 329 319 318 331 337 339 347 348 350 353 354 353 353 352 353 356 361 361 362 362 362 361 361 361 360 361 360 363 364 360 359 358 358 358 359 358 357
331 316 314 319 319 322 331 328 337 338 332 334 332 325 329 334 337 339 343 344 347 352 351 350 350 351 352 353 356 361 362 362 361 360 361 355 348 351 354 358 361 358 358 359 360 359 359 360 360
327 316 318 325 326 323 328 332 333 331 331 325 323 327 330 334 333 337 340 340 343 346 350 348 349 349 351 356 352 352 355 354 353 349 344 344 344 348 354 356 359 357 356 359 351 356 356 355 349
330 320 324 325 328 328 326 331 334 330 326 326 320 323 328 331 331 336 340 341 342 346 350 349 348 348 349 351 350 350 352 352 351 341 340 342 343 346 348 349 351 348 352 346 345 345 347 347 348
322 329 330 327 329 329 325 333 331 332 331 332 326 326 328 329 328 335 339 341 343 345 348 348 347 346 346 347 348 349 349 349 348 344 338 339 343 345 346 345 346 347 344 344 343 344 347 343 345
322 325 328 333 332 327 326 330 331 331 335 329 330 327 326 327 331 338 341 343 344 343 346 347 346 346 345 345 346 347 347 348 348 342 338 340 341 343 345 346 346 346 346 344 345 343 344 342 338
320 321 323 326 326 321 322 324 330 332 334 330 331 327 328 328 335 337 339 340 342 344 344 345 344 345 344 343 342 344 345 346 348 346 341 343 343 345 345 345 344 344 345 344 343 345 344 340 338
316 314 317 321 323 323 327 324 326 333 333 330 331 331 331 334 337 336 339 339 341 342 343 342 343 345 342 342 340 342 344 345 346 347 344 343 343 347 347 345 345 344 345 344 341 339 341 336 336
310 309 305 317 324 323 322 312 328 333 331 329 330 331 332 334 336 338 339 339 341 340 340 341 345 344 342 341 339 341 342 343 344 347 347 346 346 348 347 347 346 346 346 346 346 343 337 337 335
299 299 307 311 323 323 321 317 328 332 330 328 329 330 332 333 335 338 340 339 339 338 338 339 343 343 342 342 341 343 343 342 344 348 348 348 349 351 347 348 348 347 346 345 348 343 339 339 337
295 300 303 305 314 321 317 318 327 330 330 329 330 330 331 332 334 338 340 340 338 337 337 339 342 343 342 343 341 342 343 344 344 346 347 349 351 352 346 346 346 346 346 344 342 341 337 336 335
303 304 305 309 314 316 317 317 325 328 328 328 329 330 331 332 336 338 339 341 338 337 335 338 340 342 342 342 339 337 337 339 343 345 347 348 350 352 349 346 346 348 343 344 340 339 333 330 329
299 298 300 307 312 310 311 316 325 327 327 328 329 329 330 332 334 336 338 339 338 337 335 338 339 341 343 343 343 339 338 339 342 343 346 348 349 351 350 348 347 347 345 344 343 339 336 330 329
298 297 299 301 308 309 313 312 320 327 328 329 330 331 332 332 332 334 336 337 338 338 337 337 339 340 344 344 341 342 342 340 340 340 344 346 349 352 351 349 347 347 345 344 343 341 336 325 330
292 302 303 303 303 298 306 300 316 322 324 326 328 330 331 332 334 335 336 337 338 338 340 340 339 340 344 343 342 340 338 336 336 338 340 346 349 351 352 350 347 347 345 342 344 344 340 326 327
299 303 302 302 298 299 301 296 307 319 319 323 327 330 332 334 334 334 335 337 339 339 340 340 340 339 343 343 342 341 337 336 340 339 339 344 347 350 352 350 348 348 347 345 345 343 341 327 326
306 301 300 299 296 292 299 298 296 312 316 323 326 328 331 334 335 336 338 338 338 340 340 341 340 340 341 342 342 340 339 338 339 338 337 339 345 348 350 351 348 347 348 347 345 345 343 338 331
304 295 288 288 288 291 298 296 301 315 321 323 325 326 327 333 335 335 336 337 338 339 339 340 340 340 341 342 343 342 340 340 341 339 337 336 340 342 347 349 348 347 348 349 346 345 345 342 337
301 299 289 284 286 292 296 291 298 311 322 326 327 328 329 331 334 335 336 337 338 339 340 339 340 340 342 343 343 343 342 342 342 342 339 339 342 344 347 350 350 349 350 349 347 346 347 343 343
300 298 301 290 285 287 294 292 299 305 315 322 325 327 328 327 328 332 336 336 337 339 340 340 340 341 342 343 344 344 344 343 343 342 341 340 340 345 345 348 352 351 350 350 348 346 346 348 343
305 303 294 289 286 282 287 290 295 299 301 312 323 324 327 329 329 330 335 336 336 340 341 342 341 342 343 344 344 345 345 345 345 344 341 339 341 345 346 347 349 350 351 350 349 347 346 347 347
298 299 296 297 290 291 283 290 297 299 303 305 317 323 325 329 329 329 334 337 337 339 341 341 341 341 343 345 345 345 346 346 347 346 344 345 340 344 347 347 350 350 350 350 349 350 350 347 347
298 299 293 296 290 287 288 294 302 303 304 303 307 318 323 329 330 331 334 336 337 336 340 341 341 341 342 345 346 346 347 348 349 347 345 344 346 341 345 347 348 351 351 350 349 348 351 350 347

GFSSGP_sfc_thetae_048.txt.gz
Theta_e
352 350 347 340 324 319 315 317 326 323 325 330 329 326 325 329 322 312 337 342 347 348 354 357 363 363 362 361 364 362 362 362 362 362 361 361 361 360 361 360 359 360 361 359 357 357 357 355 356
349 347 344 335 318 311 314 321 322 327 331 330 331 331 328 325 333 334 335 346 350 351 354 356 361 363 362 362 363 362 362 362 362 360 360 360 360 361 359 360 360 358 358 359 358 356 357 356 356
348 347 334 325 317 312 315 322 324 331 334 329 330 332 329 326 334 334 341 349 352 351 355 356 362 364 361 362 363 361 362 362 362 361 361 361 361 361 361 361 360 358 358 356 357 357 356 354 355
342 341 336 320 315 321 323 326 331 329 334 334 330 322 331 337 334 339 349 351 351 352 355 360 362 361 361 363 363 361 361 361 361 362 361 361 362 361 361 361 359 360 360 359 357 357 356 356 355
344 337 322 317 318 324 328 331 333 329 331 330 329 322 326 334 341 346 349 351 350 350 354 356 364 363 361 363 362 361 361 360 362 362 362 362 361 361 361 361 361 360 360 359 357 357 355 355 355
331 328 314 311 317 325 329 333 333 332 331 328 325 325 325 339 340 345 349 349 351 352 354 356 361 363 361 361 361 361 362 360 362 363 363 362 362 361 362 360 360 360 359 358 357 356 355 356 355
326 318 315 317 318 322 326 330 325 331 329 326 328 319 327 336 341 346 347 350 352 355 354 354 353 360 360 360 360 361 362 362 362 363 363 362 362 362 361 360 360 359 358 358 356 356 356 356 355
325 322 317 320 317 320 329 330 336 333 330 332 329 319 324 335 341 343 347 349 351 353 353 353 351 352 354 354 360 360 361 361 362 362 362 362 362 361 360 357 360 359 359 358 356 357 358 357 357
331 316 312 318 319 323 331 329 336 338 331 331 329 326 332 338 340 343 343 346 349 351 351 351 350 351 352 354 356 360 362 361 361 360 360 355 352 355 357 359 359 358 359 359 359 359 361 360 358
324 314 315 325 326 324 329 331 333 330 329 322 324 330 335 336 339 337 337 338 342 347 350 349 349 350 351 357 354 354 357 355 355 353 348 348 349 352 355 357 357 357 358 355 357 358 358 354 353
328 318 323 326 327 329 326 331 334 329 325 322 321 327 331 333 336 336 336 339 341 344 350 348 349 350 351 353 351 352 353 354 352 347 345 347 347 350 351 352 353 352 352 348 348 349 351 351 351
322 329 329 328 330 328 326 332 330 330 331 329 327 330 331 330 335 335 336 338 341 344 347 348 348 348 348 350 350 350 351 352 350 345 341 343 345 348 350 350 350 351 348 347 348 349 350 346 351
323 327 328 331 332 330 329 328 330 330 329 328 328 330 329 330 335 338 340 342 343 343 347 348 347 347 347 346 349 349 349 350 350 347 340 343 344 347 350 349 348 350 350 348 349 350 349 346 343
320 324 325 325 323 325 325 325 330 329 326 325 326 327 330 330 333 339 341 340 342 344 346 347 346 346 345 344 346 347 347 349 349 344 341 343 344 347 348 347 349 348 350 348 349 351 347 344 342
316 309 313 316 320 321 324 323 324 327 326 323 323 326 329 330 334 337 341 341 342 343 345 345 344 345 343 343 343 345 347 348 348 349 346 343 346 347 350 350 349 348 350 349 348 344 345 342 341
306 306 303 314 319 322 321 311 328 328 325 322 322 323 326 328 334 338 340 342 343 343 343 344 346 344 342 342 342 343 345 346 346 349 349 346 348 347 351 351 351 349 350 350 350 349 343 342 341
297 299 304 310 319 320 318 315 328 330 327 324 323 323 324 326 333 337 340 341 343 342 342 341 342 341 342 342 341 341 344 344 345 348 349 348 349 351 351 351 352 352 352 351 351 348 345 343 341
295 296 302 306 311 318 315 316 326 328 327 326 326 326 326 327 332 337 339 341 342 342 341 340 341 341 341 341 342 343 344 345 345 347 349 350 350 353 350 351 351 351 352 350 347 346 341 343 339
301 302 303 308 312 315 314 317 324 327 327 326 327 327 328 328 334 338 339 340 340 340 338 338 340 340 340 340 339 340 341 344 346 347 351 351 352 354 349 350 349 352 350 350 347 344 339 336 337
299 296 298 305 311 310 311 313 324 326 326 327 327 327 328 330 332 335 338 338 337 337 336 337 340 340 342 342 342 342 340 342 346 347 349 351 352 355 352 350 350 352 350 347 347 346 342 335 336
297 295 296 300 305 310 308 306 318 326 327 329 330 331 331 330 331 333 336 337 337 335 335 337 339 340 343 343 342 342 342 342 343 344 346 348 351 354 354 352 351 351 349 347 348 346 343 333 337
289 300 302 300 299 295 307 296 310 320 322 325 327 329 330 331 333 334 335 336 338 337 337 337 339 339 343 344 342 341 339 337 339 342 345 348 351 352 354 353 351 351 349 349 350 348 344 336 336
295 301 299 300 297 295 299 297 300 319 318 322 325 328 330 332 333 334 335 336 339 339 338 337 338 339 342 343 343 342 341 339 340 341 343 346 349 351 354 353 352 351 351 350 350 349 346 336 335
303 299 297 296 294 289 296 299 297 309 318 322 326 329 330 331 333 335 336 338 338 340 339 339 338 338 341 343 343 341 341 338 339 339 340 342 347 349 352 354 352 352 353 351 349 350 347 342 337
301 295 286 285 286 290 297 298 299 305 319 324 326 328 331 333 333 334 335 335 337 338 338 339 338 337 340 342 343 342 342 339 340 340 339 339 343 346 349 352 351 351 352 353 352 350 350 347 342
298 294 286 281 283 291 294 291 298 309 315 325 327 330 332 333 334 334 335 336 337 338 339 339 338 338 339 341 342 343 342 341 342 342 341 341 342 346 350 351 353 352 353 353 352 350 350 350 348
297 294 297 289 285 286 295 294 301 305 309 318 322 326 329 330 332 335 337 338 338 338 338 339 339 339 340 340 341 342 343 342 342 343 344 343 343 346 349 351 352 353 353 353 352 350 350 352 349
299 301 292 289 284 281 288 289 298 299 305 310 317 322 326 330 330 333 337 337 339 340 340 340 340 339 340 341 341 342 343 343 343 344 343 343 343 346 348 348 351 353 353 353 353 352 351 351 352
295 298 295 296 291 287 283 289 299 301 306 307 310 322 325 328 329 332 336 338 339 340 341 340 340 340 341 342 342 343 343 344 345 344 344 344 343 345 347 348 349 350 352 353 353 353 352 350 351
295 293 294 295 290 287 288 293 301 303 304 305 309 315 326 329 330 330 332 335 338 338 339 340 340 340 341 343 343 343 344 345 345 345 345 345 343 345 348 349 349 351 351 353 352 352 354 351 350

GFSSGP_sfc_thetae_051.txt.gz
Theta_e
351 350 350 343 325 322 316 319 326 324 327 331 332 328 327 330 325 320 342 346 347 353 355 360 364 364 363 363 364 363 363 363 362 362 361 362 361 361 360 358 359 360 358 357 358 356 355 358 359
350 347 344 335 320 315 316 322 323 327 332 333 334 332 330 326 335 335 340 347 349 353 354 358 363 364 362 363 364 364 362 362 362 361 361 361 360 361 360 359 358 358 359 358 357 357 357 357 357
349 346 334 325 319 316 316 323 325 332 332 331 332 335 332 328 335 337 345 349 350 354 355 359 364 362 363 362 363 364 363 362 360 360 361 360 361 359 359 358 357 358 356 358 358 356 356 356 356
343 343 337 322 316 321 323 327 332 331 331 333 334 327 334 339 337 342 348 350 349 354 354 360 363 361 363 363 363 363 362 361 361 361 360 361 361 360 360 359 359 359 359 357 357 357 357 355 354
346 338 325 319 319 324 327 330 333 330 330 332 331 325 327 336 343 347 348 349 350 351 355 359 364 363 362 363 361 363 361 361 361 361 361 362 362 362 360 361 360 360 359 357 357 357 356 355 356
334 330 319 314 318 325 331 333 333 332 331 329 329 327 327 341 343 346 348 349 352 350 354 358 362 362 361 363 361 362 362 361 362 362 364 364 361 362 362 361 359 359 357 356 355 356 357 355 356
329 327 317 319 319 324 328 332 327 333 330 329 333 324 331 338 344 346 348 351 352 351 355 356 360 360 362 362 361 363 362 362 361 363 364 363 363 362 362 360 359 358 357 356 356 356 357 356 357
335 329 318 322 319 320 330 329 335 334 327 335 334 325 326 337 345 348 348 349 352 350 355 355 361 355 357 358 361 362 362 363 363 363 363 363 362 361 360 361 359 359 357 356 357 357 357 358 359
334 321 316 320 321 323 330 330 337 340 329 331 332 332 336 342 345 346 344 345 350 349 354 353 357 357 360 359 359 359 362 362 362 363 363 361 360 359 357 359 359 358 358 358 357 357 359 359 359
327 322 319 326 327 326 331 332 334 332 330 326 329 335 339 341 343 340 338 339 344 346 352 352 355 356 357 355 361 362 360 359 360 361 361 360 360 360 357 358 359 358 357 357 359 358 358 356 354
330 322 327 328 329 332 329 331 338 332 328 330 328 333 335 338 339 338 337 340 343 346 351 353 354 358 356 357 358 358 359 359 361 359 357 358 360 361 358 358 359 358 354 355 355 356 354 353 353
325 331 331 330 331 329 330 335 333 334 334 337 334 336 336 336 336 337 337 340 344 347 350 354 354 357 358 358 357 358 357 358 356 356 356 358 357 359 362 356 357 358 357 358 358 356 357 355 356
326 329 331 332 333 332 333 330 330 333 335 335 336 336 334 335 336 337 339 343 345 344 347 353 355 356 358 359 357 358 358 357 356 354 351 356 356 358 358 358 357 359 361 359 359 359 355 356 355
326 326 329 329 329 330 327 327 332 332 334 332 333 333 334 334 335 338 340 342 344 345 348 353 355 355 357 356 359 357 357 357 357 357 352 352 356 358 359 360 359 359 360 359 361 359 353 353 352
322 319 320 321 324 325 327 323 328 332 332 330 331 333 333 334 336 337 340 341 345 347 350 352 354 354 355 356 357 356 356 355 355 354 353 352 356 358 361 359 358 357 359 360 359 356 353 350 351
311 312 312 321 323 325 325 317 331 331 330 328 330 331 332 333 336 339 342 343 345 347 350 352 351 351 353 353 354 353 353 354 357 358 359 356 356 359 362 359 358 359 359 360 357 353 349 349 349
308 304 309 316 324 324 324 318 331 331 330 327 328 330 331 332 335 340 343 345 347 348 349 351 352 350 351 353 352 352 353 353 355 357 357 360 358 358 362 363 361 361 360 358 358 356 352 348 347
301 303 310 315 320 322 321 320 330 330 329 326 327 329 330 330 332 339 343 346 348 349 350 351 351 352 353 352 353 351 349 352 355 355 356 359 359 359 361 364 362 360 361 358 356 357 348 353 350
307 306 308 315 321 320 321 321 328 331 330 327 326 327 329 330 334 338 342 345 348 350 350 350 350 352 350 348 347 347 346 350 353 356 359 361 360 361 362 361 362 360 365 363 356 352 350 344 347
303 304 307 313 316 317 318 319 327 331 331 331 328 327 328 329 331 336 341 343 345 348 350 350 350 352 351 349 352 351 352 353 357 358 359 361 361 363 362 361 359 362 361 359 358 356 345 345 346
301 301 305 306 308 314 315 314 320 330 332 333 333 333 332 330 330 334 338 341 344 345 348 349 351 352 352 354 352 352 354 354 352 355 356 359 361 363 365 363 360 363 367 356 359 356 352 341 347
296 303 305 305 304 305 315 306 315 323 327 330 332 333 333 333 334 336 338 339 341 345 347 349 352 352 353 355 352 354 348 346 350 354 356 359 362 362 364 365 363 362 362 362 359 358 355 349 344
299 303 301 304 304 304 306 306 313 321 322 327 331 334 335 336 336 336 338 341 343 345 345 347 352 354 355 355 356 351 352 350 352 352 357 361 362 362 361 364 363 361 360 363 361 361 359 350 346
304 303 302 302 301 297 304 304 308 315 321 326 331 334 336 337 337 339 341 342 344 346 345 346 351 353 355 355 355 357 356 354 350 351 350 352 355 357 361 362 363 363 362 362 361 362 361 355 348
303 299 294 292 292 293 306 303 306 315 322 326 330 333 336 338 338 338 339 341 343 346 346 347 349 350 353 353 354 355 357 358 355 354 350 352 351 354 358 362 362 361 364 363 363 363 360 358 353
302 301 294 289 290 292 304 300 305 315 318 324 330 334 336 337 339 339 340 342 345 346 348 348 348 349 351 352 354 356 358 351 351 354 350 350 349 352 360 361 362 363 363 363 364 361 360 360 357
302 298 304 297 298 295 298 304 311 314 316 319 323 330 334 337 338 339 341 343 345 346 347 348 350 350 351 349 354 355 356 356 352 357 356 352 357 351 357 360 361 362 363 363 364 359 361 362 361
304 307 297 298 290 290 296 298 301 311 313 316 319 325 332 337 339 340 341 342 345 346 348 349 350 350 351 351 353 353 355 356 356 357 356 357 354 355 354 359 360 361 362 363 364 360 362 362 360
300 300 302 302 299 292 291 297 309 312 317 317 319 323 328 335 338 340 342 344 345 346 347 348 349 350 351 351 352 353 352 352 353 353 355 357 356 356 357 359 359 360 360 362 362 362 361 361 362
300 300 302 297 297 299 299 298 310 315 317 319 320 323 327 333 338 340 341 344 344 346 347 347 348 347 350 351 352 352 354 354 352 354 354 358 358 356 357 359 359 359 359 360 360 359 358 360 360

GFSSGP_sfc_thetae_054.txt.gz
Theta_e
352 349 350 346 325 327 322 323 329 329 329 335 335 330 331 334 329 324 347 347 350 349 357 360 363 364 363 364 364 363 362 362 361 361 361 362 362 361 359 360 361 359 358 359 356 356 358 359 358
349 346 345 341 323 318 322 327 326 330 334 337 334 334 331 330 338 340 342 350 350 349 355 356 362 363 363 364 364 364 364 363 362 362 362 362 362 361 359 358 358 360 359 358 359 358 357 359 359
349 347 339 327 323 319 321 329 330 334 335 334 333 338 336 333 339 342 348 350 349 349 354 360 363 365 363 364 363 363 363 362 362 362 361 361 361 360 359 358 359 358 360 359 357 357 358 356 358
343 344 337 325 318 324 324 332 333 333 334 336 336 332 339 343 342 346 348 348 347 349 353 362 362 363 363 364 363 363 363 362 361 361 360 361 361 360 359 359 360 359 357 358 358 358 356 355 357
347 343 327 325 322 325 331 333 335 332 330 332 336 331 329 340 346 348 346 346 346 348 354 360 364 363 363 363 363 363 362 361 362 362 362 361 361 361 361 360 360 359 358 358 357 357 357 356 356
337 338 324 321 319 328 329 332 334 333 333 333 333 333 331 343 344 347 346 346 347 348 352 356 362 363 364 363 363 362 361 362 362 362 361 362 362 362 361 360 359 357 357 356 357 357 357 357 358
334 331 323 323 321 325 331 338 334 335 333 332 339 332 335 340 345 347 347 347 347 350 351 354 359 362 362 362 363 363 362 362 362 363 363 364 363 362 360 360 358 357 357 356 357 357 357 358 360
339 333 323 325 320 325 332 329 333 336 333 341 340 332 330 340 345 347 347 346 346 349 350 354 355 360 358 359 363 363 362 361 361 362 364 363 362 359 357 360 359 357 357 356 356 357 358 358 360
340 325 323 323 323 327 334 330 338 341 333 335 338 338 342 345 345 343 344 344 345 347 350 354 351 355 358 359 361 363 363 363 364 363 363 362 355 355 358 360 359 358 357 357 356 357 359 360 360
332 325 323 328 330 325 331 334 338 336 334 333 334 340 343 343 341 339 340 341 341 344 347 352 352 354 356 355 360 361 360 359 359 359 361 356 358 358 356 359 359 359 358 359 357 358 358 360 355
333 325 329 328 330 333 332 333 340 335 331 335 334 337 340 342 343 339 340 342 341 344 346 349 352 356 354 357 357 357 357 358 360 363 361 359 357 355 357 357 358 357 359 355 356 357 354 352 352
326 332 333 331 334 332 330 335 335 336 337 341 340 341 342 340 339 338 339 341 341 343 347 348 353 356 356 357 355 355 354 356 355 356 362 360 356 356 358 357 357 359 357 358 358 355 356 358 358
326 330 332 333 333 334 335 332 332 335 340 342 342 340 340 340 340 340 340 341 343 343 347 348 353 358 358 359 356 355 355 354 353 356 359 358 356 358 356 359 361 359 359 356 357 356 356 358 355
325 326 333 332 332 333 331 331 332 336 341 340 340 339 339 339 340 340 340 340 343 343 346 350 352 356 358 358 361 358 357 357 356 354 355 361 358 360 358 361 360 359 358 357 357 357 353 351 351
322 322 326 326 329 327 332 326 328 339 340 338 339 339 338 339 340 339 341 341 344 345 347 350 352 354 357 359 360 358 357 356 356 356 359 358 361 364 364 359 364 359 362 362 359 356 355 347 348
312 318 316 327 324 327 328 320 333 339 338 337 338 338 337 339 339 340 342 342 345 346 347 351 349 351 355 357 358 355 355 355 354 355 357 360 362 365 364 362 357 360 357 353 352 350 347 346 347
308 307 313 320 327 325 327 323 334 337 337 336 337 337 337 338 339 341 342 343 345 347 349 351 351 350 353 357 356 356 358 357 358 358 359 364 362 363 360 357 358 364 354 353 349 348 347 345 343
305 305 311 314 325 327 325 325 333 335 335 335 337 337 337 336 337 341 343 344 345 348 351 352 351 353 355 354 356 354 355 357 358 358 359 365 363 363 360 360 360 360 353 351 351 352 354 348 347
309 309 309 320 325 325 324 325 331 334 334 334 336 336 336 337 340 342 343 344 345 348 350 352 352 355 353 350 349 351 350 353 355 357 362 364 363 364 363 359 359 357 356 358 360 354 354 347 350
307 308 310 316 322 324 324 323 328 334 334 335 335 335 336 337 338 340 343 344 344 348 350 352 353 355 355 349 351 352 353 353 355 359 363 365 364 366 364 365 360 358 353 358 358 357 348 347 348
305 304 308 311 315 319 322 320 324 332 336 337 336 337 337 337 336 338 341 342 344 347 350 352 355 356 356 356 351 354 356 357 356 358 358 363 365 365 367 366 365 361 359 352 356 359 354 343 348
301 306 306 309 309 309 321 310 320 326 331 334 336 336 335 336 338 339 340 342 343 346 352 354 356 357 357 358 354 360 352 349 350 354 355 359 365 365 366 367 366 363 361 361 356 358 356 353 344
303 307 305 305 308 310 312 312 316 324 325 331 335 337 338 338 337 338 339 344 345 346 348 353 358 360 361 360 360 352 356 349 351 352 362 366 367 366 364 367 367 366 359 361 362 362 360 352 348
308 305 305 305 303 300 309 310 313 318 323 328 334 337 339 340 340 340 341 344 345 347 348 351 357 360 360 359 355 361 360 358 350 355 353 354 356 361 366 365 367 367 362 361 361 362 362 359 355
307 303 297 295 295 294 308 307 312 320 325 327 331 336 339 341 342 341 341 343 345 346 347 349 356 358 359 357 356 357 359 362 359 358 353 357 351 353 361 366 367 363 367 365 370 365 364 364 356
305 304 298 293 294 296 303 301 310 321 324 328 331 336 339 340 343 343 344 344 346 347 348 349 354 357 358 358 361 363 363 353 354 358 354 353 351 353 360 364 365 366 365 365 366 362 360 364 359
306 302 307 302 304 300 302 304 311 318 320 323 325 330 335 339 341 343 345 346 346 348 352 353 357 356 358 355 362 363 363 362 356 365 359 355 361 353 357 360 363 364 365 366 366 360 363 363 363
307 311 301 302 295 294 300 302 302 312 316 320 323 325 331 337 341 343 345 347 348 348 350 352 353 356 358 356 358 358 358 361 362 361 362 362 358 360 358 359 360 360 363 365 367 362 364 364 360
303 303 305 305 302 297 296 301 311 312 315 319 322 325 329 335 340 342 345 347 348 349 349 351 352 353 354 358 359 359 357 358 359 358 360 362 361 361 362 360 359 358 362 364 365 364 362 364 364
305 304 305 299 300 302 302 302 314 314 316 319 322 325 328 332 338 342 344 346 348 348 349 349 350 351 353 358 361 360 360 361 357 359 359 362 362 362 362 362 360 359 360 364 364 362 359 360 361

GFSSGP_sfc_thetae_057.txt.gz
Theta_e
353 351 352 343 325 327 320 323 331 328 328 334 335 332 330 333 330 325 347 350 351 350 357 360 363 363 363 362 362 362 362 362 361 361 361 362 362 359 360 360 360 359 359 357 358 358 357 359 360
349 346 350 340 322 319 320 329 326 330 334 337 335 334 333 331 340 341 345 353 350 349 350 355 364 364 364 364 364 362 362 361 361 362 363 362 361 360 359 358 359 359 360 360 359 358 360 359 359
346 348 338 329 326 319 318 329 330 333 336 335 333 337 337 333 341 344 349 350 349 348 352 361 363 364 364 363 364 363 363 363 362 363 361 362 360 360 359 359 359 361 359 358 359 357 357 359 359
343 341 340 326 321 325 326 333 333 331 336 337 337 333 341 345 342 346 349 348 348 347 353 362 364 363 363 363 363 363 362 363 363 361 362 361 361 360 359 360 359 358 359 359 358 357 357 357 358
345 343 327 325 324 326 331 335 335 331 332 334 336 333 335 341 346 349 348 346 347 348 354 358 364 364 364 364 363 363 363 362 361 361 362 362 361 361 361 361 360 358 358 358 357 357 357 356 357
336 339 325 318 324 329 334 335 335 331 332 334 336 334 335 346 343 347 348 346 348 347 350 358 363 363 364 364 363 362 362 362 363 362 362 361 361 361 360 359 358 358 357 358 358 357 358 359 358
335 330 323 323 323 323 328 337 332 333 335 333 340 334 338 342 344 346 346 345 346 348 350 357 360 362 364 362 363 362 362 362 362 362 362 362 362 361 359 359 358 357 357 357 357 357 358 359 359
338 333 324 324 323 324 334 335 339 336 333 343 344 333 333 343 344 344 345 344 345 347 348 354 358 357 358 361 363 363 362 362 362 363 363 362 359 357 357 361 360 357 357 357 357 358 358 360 359
342 328 321 321 322 328 335 330 336 341 337 339 341 341 343 346 344 341 341 342 345 344 346 349 352 354 357 361 363 363 362 362 364 363 363 362 354 356 356 360 359 357 357 356 357 358 359 360 360
333 327 322 331 331 330 334 334 336 335 335 337 338 344 344 344 341 338 340 338 342 342 345 345 349 351 354 353 362 362 360 359 357 354 362 359 358 360 355 359 359 358 358 357 357 358 359 360 355
334 326 330 330 333 333 331 333 338 335 331 336 336 339 340 342 341 340 340 340 341 343 344 346 349 353 352 355 356 355 355 357 358 359 359 357 354 354 355 356 357 357 359 354 354 355 356 355 354
326 331 330 330 335 332 331 337 334 336 334 340 343 342 342 341 340 339 340 340 341 343 343 346 351 353 356 353 352 360 354 354 352 355 359 357 360 357 357 354 358 356 357 356 355 351 355 356 352
326 328 333 334 334 332 332 328 332 336 341 344 344 342 341 340 340 341 342 342 342 342 343 346 352 356 358 367 360 357 353 351 352 356 358 356 355 355 358 359 354 353 354 351 352 357 357 352 352
325 326 331 332 335 335 330 330 333 336 342 342 342 341 341 341 340 340 342 341 341 344 344 348 351 356 357 361 366 359 356 356 351 352 355 359 362 359 360 358 356 361 360 359 358 360 354 354 350
323 321 328 331 333 332 334 327 328 338 342 340 340 341 341 341 341 340 341 341 342 343 346 348 351 354 357 360 358 358 358 352 356 352 360 359 362 362 363 356 357 360 359 360 356 352 349 345 350
317 319 318 329 330 332 330 319 330 340 340 339 340 340 340 341 341 342 342 342 344 344 346 349 349 352 355 358 358 356 357 355 357 355 357 360 362 364 364 359 357 355 359 354 349 351 352 345 351
311 309 315 321 328 328 327 322 330 339 339 339 340 339 339 340 341 342 342 343 345 345 347 349 351 351 354 359 358 357 360 359 358 356 359 363 363 362 361 358 358 362 356 353 354 357 351 343 345
306 307 313 317 326 327 325 325 331 336 337 338 339 339 339 338 340 342 343 343 345 346 348 350 350 357 361 358 359 354 354 356 361 356 360 365 363 361 362 361 359 360 357 350 357 352 355 348 346
310 311 311 318 326 324 322 324 329 334 335 337 338 338 338 339 342 343 343 344 344 346 347 351 354 363 356 353 351 351 350 355 356 359 363 365 364 362 364 361 359 360 359 350 356 348 351 343 345
309 308 311 316 323 323 322 321 327 333 334 337 338 337 338 339 340 342 342 343 342 345 348 355 356 364 359 354 357 356 357 352 353 355 363 363 362 364 362 361 359 361 358 359 357 357 347 346 347
307 307 311 313 320 326 322 319 325 330 335 337 339 340 338 339 339 340 341 342 343 345 348 355 360 363 361 362 357 358 359 357 352 357 356 361 363 363 365 363 365 362 363 354 358 357 363 347 344
305 310 308 310 313 311 322 308 319 323 330 334 336 338 337 339 341 341 342 342 343 345 349 357 359 363 361 364 356 362 351 348 350 355 355 359 364 363 363 365 363 366 362 366 360 358 360 359 345
307 311 308 307 308 312 312 312 319 325 323 330 335 337 339 339 340 340 342 344 345 346 349 351 361 364 364 362 362 355 357 351 351 351 368 373 371 365 361 366 364 364 359 363 361 361 363 354 353
311 308 308 307 305 300 309 312 314 316 324 328 334 337 338 339 340 342 343 345 345 346 348 353 361 365 366 364 362 364 358 359 348 352 355 352 358 360 365 364 369 366 364 363 362 364 362 365 358
309 306 299 297 297 296 307 309 315 323 326 326 331 336 339 340 340 341 341 342 345 347 349 354 361 363 365 363 360 361 364 364 367 363 352 356 349 351 367 371 368 364 367 365 364 366 364 362 357
307 306 301 295 296 298 305 302 311 323 328 329 329 335 339 340 341 341 342 343 347 348 352 353 359 363 365 363 363 361 365 353 352 359 353 351 349 352 371 366 365 366 366 365 368 361 360 367 359
307 304 309 304 306 302 304 306 312 320 323 327 327 332 334 339 341 343 343 344 346 349 353 354 358 362 364 359 364 364 363 360 352 360 365 356 361 354 357 364 364 364 364 367 370 359 366 365 364
308 312 302 303 296 296 302 305 304 309 316 322 325 328 332 339 341 343 345 345 346 347 350 355 358 361 361 362 364 363 363 365 362 364 368 363 365 367 361 362 361 363 366 366 372 365 366 368 361
304 304 306 307 304 298 298 303 315 313 314 318 323 327 330 336 339 342 345 347 348 349 349 351 354 358 359 361 363 361 362 362 363 366 367 369 368 370 368 367 364 363 363 366 372 370 366 364 367
305 304 304 301 301 304 303 304 317 317 316 318 322 326 328 332 337 341 343 346 348 349 349 350 351 351 357 361 364 362 364 362 360 361 366 370 369 368 370 368 367 363 362 367 369 363 362 363 362

GFSSGP_sfc_thetae_060.txt.gz
Theta_e
353 349 347 341 324 324 320 321 328 327 328 334 335 332 329 333 327 320 346 350 352 352 357 360 364 362 362 362 363 363 364 364 364 363 363 363 360 362 360 360 360 358 359 359 359 359 361 361 360
346 347 346 341 321 317 319 327 325 329 333 336 336 334 332 329 338 339 344 349 349 353 356 357 364 366 363 363 363 363 362 362 363 364 363 363 361 360 360 360 360 361 361 361 360 360 359 360 361
351 346 337 329 324 317 311 327 329 332 335 335 333 339 335 332 339 342 348 347 346 347 352 359 365 366 364 364 365 364 363 363 363 363 363 362 362 362 360 360 361 359 360 359 357 359 359 360 360
340 339 340 325 318 325 327 331 332 331 335 337 336 331 338 343 340 345 349 345 342 349 354 362 366 365 365 363 363 363 363 363 363 363 362 362 362 361 360 359 359 360 360 359 358 357 358 358 357
342 340 326 324 324 328 332 335 335 331 332 334 336 329 332 341 346 346 344 344 344 351 355 358 366 364 365 363 365 364 363 363 362 363 363 363 361 361 361 361 359 360 359 358 358 358 357 357 357
335 337 323 319 322 330 334 337 334 332 335 335 333 332 334 343 343 344 345 343 349 348 351 357 363 363 363 364 364 363 363 363 364 363 363 362 364 363 361 359 359 359 359 359 358 359 359 358 357
331 330 323 322 323 326 331 338 332 331 333 333 338 331 337 339 344 344 345 344 344 347 352 354 356 362 363 363 364 364 364 364 365 365 364 365 364 361 361 361 360 359 359 358 359 358 359 359 357
337 334 325 324 322 322 332 334 336 335 333 342 343 331 330 339 345 344 344 342 344 347 349 354 354 357 358 359 363 363 364 365 363 363 365 364 363 359 359 363 362 359 358 358 359 360 360 359 358
338 327 320 321 322 324 333 330 338 343 338 340 341 339 341 343 344 340 341 340 344 344 348 350 350 356 361 361 361 363 363 363 364 362 363 361 354 356 356 362 363 358 358 358 358 359 361 359 357
330 325 322 329 330 330 335 333 336 334 334 335 338 343 343 342 341 338 337 338 337 339 343 346 350 353 357 353 362 362 360 359 359 358 356 360 363 359 354 359 364 360 359 358 358 359 357 357 355
330 324 329 330 333 335 331 332 336 333 330 335 336 338 340 339 338 338 338 340 338 340 340 347 353 354 355 356 360 358 358 360 359 362 356 359 360 358 351 358 355 357 360 353 356 356 358 354 356
324 329 331 330 333 332 333 330 326 332 335 340 342 341 340 337 336 337 336 341 337 341 339 346 350 360 354 356 358 351 359 358 355 357 361 367 358 352 347 354 362 352 358 356 349 355 354 347 349
324 327 330 332 333 333 334 329 329 335 339 341 343 340 339 337 337 340 339 340 340 339 341 346 351 358 357 361 361 355 351 355 357 358 365 351 357 353 352 354 352 352 356 351 351 352 355 349 351
325 325 328 334 332 333 328 330 332 335 338 341 339 338 339 337 339 340 340 340 342 340 345 350 351 358 359 359 359 351 357 354 355 355 357 352 359 356 356 354 354 348 353 359 358 352 354 345 351
320 319 324 330 331 330 333 324 325 336 340 338 337 338 339 339 340 339 342 341 343 342 346 349 351 355 362 360 365 366 360 358 355 359 363 365 358 361 365 355 363 362 347 363 354 357 353 351 350
314 317 313 325 331 331 332 320 331 338 337 336 337 337 338 338 338 340 343 342 343 344 348 348 346 351 357 356 368 355 364 359 361 362 361 365 367 367 355 353 348 356 364 346 346 354 347 349 346
311 307 312 317 331 330 327 321 328 334 336 334 336 337 337 338 340 341 342 343 343 348 351 349 354 353 355 363 363 350 361 361 353 361 360 369 366 369 352 348 352 366 353 358 350 356 354 340 349
305 307 310 314 324 327 323 324 330 331 332 334 335 336 337 336 338 341 342 343 344 348 351 351 354 358 360 362 366 360 357 358 367 363 360 368 367 367 365 362 367 368 350 355 358 348 353 350 343
310 308 309 313 325 325 321 320 326 325 329 331 334 336 337 338 340 342 342 343 345 347 348 354 357 359 357 357 355 351 353 349 362 358 359 369 368 368 371 367 364 360 346 354 359 356 349 346 348
311 308 307 313 322 325 323 319 325 325 325 330 334 334 336 337 339 340 341 341 343 346 348 354 357 359 357 357 359 361 352 351 348 360 362 366 366 368 368 367 366 356 354 359 359 347 347 354 351
308 306 307 309 317 323 321 318 318 322 328 333 335 336 337 338 338 340 340 341 342 345 348 351 357 358 357 362 359 365 366 359 351 360 361 365 368 366 370 369 369 367 363 361 360 353 358 351 347
304 310 308 308 309 307 321 309 319 321 325 330 332 333 335 338 341 341 340 341 341 346 350 352 357 360 357 363 357 362 356 356 354 358 356 362 368 367 368 369 370 370 356 364 363 362 359 345 349
307 312 309 307 305 307 311 311 317 326 322 320 324 332 334 339 340 341 341 342 343 348 348 352 356 360 357 358 362 357 358 355 359 355 355 364 370 369 365 367 369 365 366 367 366 363 363 361 349
311 308 308 308 305 298 304 308 310 317 318 321 327 328 336 337 340 342 343 344 344 346 348 352 354 357 359 357 358 361 355 360 358 358 354 359 362 365 369 367 369 371 366 363 366 367 366 364 363
309 304 297 296 296 295 304 302 310 321 326 325 324 328 338 339 340 341 342 343 344 344 347 350 353 354 357 356 354 360 358 357 361 365 354 355 357 357 364 369 367 366 371 369 367 368 367 367 364
306 305 298 293 295 297 305 299 305 317 324 331 332 332 335 338 340 341 343 344 344 345 347 349 353 353 356 359 354 356 361 354 355 362 356 362 355 356 364 367 365 367 368 367 367 366 365 365 364
306 303 307 301 303 300 303 306 310 314 318 327 328 332 332 330 334 341 343 344 346 347 347 350 353 355 357 356 358 353 358 358 353 362 365 359 364 362 363 365 368 366 368 367 366 362 363 363 366
305 309 301 303 294 294 300 304 304 310 314 322 326 327 329 331 331 336 344 344 347 348 350 350 355 355 358 358 359 356 352 357 358 354 363 359 365 364 365 366 365 366 369 369 368 364 365 363 361
303 302 304 304 303 297 296 301 315 316 315 319 327 329 328 330 334 337 340 345 346 349 350 350 351 357 359 359 358 358 356 355 354 357 353 362 360 372 367 370 366 365 365 368 367 365 365 363 363
305 303 303 299 299 302 302 302 316 318 318 318 320 325 333 335 335 335 333 336 346 347 348 351 351 353 358 360 359 358 358 355 355 351 359 361 363 364 369 367 370 365 365 365 365 363 358 362 362

GFSSGP_sfc_thetae_066.txt.gz
Theta_e
352 350 346 337 318 318 314 318 327 325 326 331 331 328 328 331 326 313 341 347 351 352 355 359 364 363 363 364 364 363 362 361 362 363 361 362 361 361 361 358 359 360 358 360 360 361 361 361 363
349 346 339 333 315 313 315 324 323 328 331 333 335 333 330 326 335 335 339 348 351 354 356 358 363 364 363 362 364 364 362 362 363 361 362 362 361 361 362 360 361 360 360 360 361 360 361 362 361
347 344 333 325 318 313 313 323 324 331 335 334 332 335 333 328 337 338 346 351 353 354 355 357 364 365 363 364 364 364 362 362 362 362 362 361 360 361 359 360 360 360 360 360 361 360 360 360 359
342 337 334 319 317 320 319 324 327 329 334 334 333 327 334 341 339 343 351 353 352 353 355 363 364 362 362 363 363 363 363 363 363 362 362 361 360 361 360 359 359 358 358 360 359 359 360 360 360
342 333 322 318 321 321 327 331 333 330 330 331 331 326 329 338 345 349 349 352 351 353 357 360 366 366 364 363 363 363 362 363 362 362 361 361 360 359 361 360 359 358 357 357 357 358 358 359 359
329 331 318 315 321 326 331 334 334 331 332 331 329 328 328 340 344 345 351 350 353 354 357 359 364 365 365 364 364 363 363 362 363 362 361 362 361 360 359 359 359 358 359 358 357 357 357 358 358
325 324 317 321 322 324 330 336 331 330 330 329 334 324 330 335 339 347 349 350 354 356 355 356 357 361 364 365 363 363 363 363 363 362 363 361 360 359 359 360 359 359 358 357 357 356 356 356 357
330 328 321 321 320 322 332 333 337 332 330 338 336 324 325 334 344 347 347 348 350 353 354 353 354 354 355 358 363 364 363 363 363 362 361 361 361 360 360 361 361 359 358 358 357 358 357 357 356
337 319 318 319 321 325 334 330 338 342 334 335 338 334 336 340 344 342 343 345 346 351 351 352 352 352 353 355 359 364 364 363 362 361 360 359 350 351 353 359 361 359 359 358 358 358 358 358 358
329 321 322 326 329 327 332 331 334 333 332 333 335 338 338 340 339 339 340 340 341 343 348 350 350 351 352 357 355 353 356 354 354 353 352 349 348 349 353 357 360 359 358 359 359 358 358 355 349
328 321 328 329 332 332 331 332 334 330 329 336 333 333 335 335 336 338 339 339 340 342 347 349 350 351 350 353 352 352 352 353 351 350 349 348 348 349 349 350 350 349 355 350 353 348 348 346 349
319 325 326 331 334 333 327 333 329 334 334 340 340 336 335 332 334 335 336 338 340 341 344 347 350 349 348 352 352 351 351 351 348 347 349 347 345 342 346 347 349 347 349 346 347 347 349 349 348
319 321 326 332 334 334 333 330 330 330 338 341 340 337 334 333 334 335 337 338 342 341 341 346 348 346 347 351 349 350 348 349 347 347 349 348 343 342 347 347 345 346 348 345 340 343 345 345 343
320 320 320 331 333 333 329 329 330 329 337 338 339 334 335 333 334 334 333 333 339 341 341 345 346 346 348 347 346 344 346 348 347 345 346 346 347 344 347 345 345 345 345 346 344 345 346 345 344
317 308 314 328 331 330 333 325 326 334 340 337 335 334 335 332 334 332 332 331 338 341 342 344 345 348 347 344 346 343 344 347 345 344 341 347 347 346 348 343 344 344 344 346 342 345 346 342 342
307 303 299 324 328 330 329 318 328 334 335 334 334 334 333 331 333 335 336 336 340 340 342 344 348 347 344 345 345 348 347 347 345 347 346 351 348 347 347 345 345 347 347 344 340 344 340 340 341
301 297 299 305 328 327 325 319 328 336 335 332 334 332 333 330 331 336 335 337 339 342 342 341 344 346 344 349 344 346 347 347 347 347 348 352 351 351 343 343 344 348 344 340 339 341 341 338 338
297 297 299 300 317 324 323 323 326 332 335 333 334 332 331 330 331 334 335 339 339 341 341 342 346 343 343 346 344 341 344 345 346 346 348 352 351 347 346 341 344 344 341 342 344 335 339 338 337
302 300 300 305 308 321 321 323 324 330 328 330 331 332 331 330 335 334 335 339 339 340 338 340 342 340 344 342 342 340 341 345 348 348 351 352 352 352 349 348 347 345 340 342 342 339 341 336 337
303 300 300 304 310 316 322 322 324 329 326 329 331 331 332 333 334 333 334 338 338 337 339 340 342 341 346 343 344 343 343 344 348 349 352 353 352 353 350 348 347 345 339 344 339 336 336 339 335
302 298 301 300 314 324 320 318 323 327 326 331 334 335 335 333 331 332 334 336 337 336 338 341 342 342 346 345 346 347 345 342 343 346 346 353 353 354 351 350 349 345 343 343 341 340 340 335 337
294 303 303 302 297 301 319 306 315 318 319 329 332 333 332 332 333 332 332 335 335 336 339 343 344 342 345 344 343 344 341 337 338 345 348 350 354 353 354 352 349 347 345 345 344 349 341 335 332
301 305 301 301 295 293 301 299 307 318 317 324 330 331 333 334 334 331 332 335 337 338 338 345 344 344 345 344 342 343 341 341 341 345 346 349 352 352 353 353 351 346 345 346 346 344 346 344 341
306 301 298 295 293 288 292 292 296 312 316 323 329 328 332 333 334 333 333 335 336 340 340 346 344 343 345 345 342 342 343 343 342 342 345 347 351 351 352 352 351 349 347 347 348 347 346 345 345
300 292 286 286 286 286 291 291 293 317 321 323 328 330 332 333 333 332 332 333 335 337 339 345 344 342 343 345 346 342 343 343 343 343 346 347 350 349 352 350 351 349 349 349 349 349 349 345 346
296 293 287 283 283 287 294 288 296 307 322 325 330 329 329 331 330 333 332 333 336 336 337 343 344 342 343 344 343 346 344 343 344 346 347 349 351 351 352 352 352 352 350 351 350 347 349 348 348
294 292 295 289 287 287 290 295 301 304 315 321 323 326 328 331 330 334 333 334 337 337 337 339 344 343 343 342 343 343 347 345 342 345 346 349 349 350 351 352 351 351 353 349 350 349 348 349 347
293 297 289 288 283 282 288 290 293 302 309 320 320 325 327 329 334 336 334 334 336 339 339 340 342 344 345 343 342 342 344 347 343 344 344 347 347 348 350 354 352 351 352 351 349 347 348 349 347
290 289 289 288 288 284 283 288 299 305 309 312 320 325 325 331 333 335 336 337 336 339 340 340 340 342 345 346 344 342 342 344 346 343 343 345 345 348 349 354 352 352 351 349 350 346 346 348 347
293 288 286 284 285 287 288 290 306 308 309 312 321 323 326 332 333 335 336 336 336 335 339 340 342 341 342 347 346 343 341 343 345 346 343 343 345 348 351 353 354 352 353 352 351 348 349 349 347

GFSSGP_sfc_thetae_069.txt.gz
Theta_e
352 349 346 335 317 317 312 319 326 325 325 328 327 326 324 329 325 312 338 346 345 348 355 358 363 362 362 363 362 361 359 361 361 360 360 359 360 358 359 358 358 359 360 360 360 361 362 362 362
348 345 340 333 314 312 313 321 322 327 332 329 331 331 329 325 334 335 339 348 349 352 354 357 363 364 363 363 362 360 360 363 360 361 361 360 361 359 358 360 359 358 359 360 360 360 361 361 360
347 344 332 325 318 313 313 322 327 331 333 331 330 334 331 328 335 337 345 349 351 352 354 356 363 364 363 362 362 361 361 362 360 362 359 360 360 360 360 360 359 359 359 359 359 360 361 360 359
339 337 332 319 316 320 320 324 328 329 333 334 332 326 335 339 336 343 348 351 352 353 354 360 362 362 363 363 362 362 361 361 360 361 360 360 360 358 359 358 358 359 358 359 359 359 359 360 359
341 331 321 319 320 322 325 327 328 328 330 331 331 325 328 339 347 348 349 351 350 351 355 357 364 362 363 363 362 362 361 361 361 359 360 359 360 359 359 359 357 357 357 357 357 358 359 359 359
328 330 317 315 320 324 328 333 332 331 331 331 328 328 329 344 345 348 350 350 353 354 356 358 362 362 362 362 363 362 361 361 361 360 360 359 359 359 358 358 358 357 356 356 357 358 358 359 359
324 323 316 320 318 321 329 336 330 328 329 328 333 324 334 339 345 349 349 351 354 355 354 355 357 360 362 362 362 362 361 362 361 360 360 359 359 359 359 358 358 357 357 356 356 357 357 358 358
330 328 320 319 319 321 332 333 335 331 329 335 334 324 327 337 347 348 348 350 351 353 353 352 353 355 355 356 362 362 362 362 360 361 359 359 358 359 360 361 360 358 357 357 357 357 357 356 358
337 322 315 318 320 324 332 329 337 340 331 331 338 332 336 343 346 344 345 346 349 350 349 350 351 352 353 354 357 360 362 361 360 359 360 356 348 351 353 358 359 358 358 357 357 357 357 357 357
329 321 320 326 328 327 331 332 334 331 331 332 331 335 341 342 341 339 339 339 343 346 348 349 349 350 352 357 354 353 355 354 353 351 348 347 347 347 352 356 359 358 358 358 358 357 358 353 347
328 320 326 327 332 334 331 332 335 330 327 332 328 332 337 338 338 338 338 340 342 346 350 348 348 350 351 352 351 350 351 351 350 349 347 347 347 349 349 349 348 348 354 350 350 350 347 346 348
320 325 329 329 334 332 330 333 331 332 334 337 337 336 336 335 337 337 336 337 339 343 346 348 349 348 348 351 350 348 350 350 347 346 346 345 344 344 345 346 346 346 347 345 345 344 346 347 345
320 322 322 324 333 333 332 329 331 332 339 342 338 335 334 334 337 339 339 339 339 341 344 347 349 346 347 349 348 348 348 349 347 345 347 345 342 341 344 345 346 344 346 344 342 341 343 343 343
320 320 319 318 331 332 328 329 330 332 338 339 339 333 333 334 335 337 337 338 338 340 342 346 346 344 346 346 346 347 347 348 345 345 347 346 342 343 345 344 343 343 343 346 342 341 343 344 343
319 313 311 328 329 330 331 324 325 332 334 336 335 332 332 334 335 334 336 338 340 340 341 344 344 345 346 347 346 345 345 347 344 344 344 346 344 343 344 343 341 342 342 344 343 342 344 344 341
305 302 298 325 329 330 329 318 327 336 332 331 333 332 333 332 334 334 335 339 340 340 340 343 347 345 346 344 345 343 344 345 344 343 341 348 347 346 346 341 342 344 344 344 342 340 341 339 338
300 296 298 315 327 328 325 319 328 335 335 332 332 332 332 331 333 332 332 337 339 340 341 342 344 344 344 344 344 345 343 344 343 344 345 348 347 348 346 343 344 345 344 342 337 340 338 337 337
296 296 296 299 320 323 321 320 327 332 333 333 332 331 332 329 331 333 332 336 339 340 341 342 344 344 343 345 341 342 346 342 344 345 346 350 348 348 341 342 344 344 340 339 340 336 337 336 337
300 298 298 302 308 319 319 320 323 329 331 331 331 330 330 330 332 334 334 338 338 340 340 341 342 340 343 340 338 338 340 342 343 344 348 349 349 347 343 341 343 342 340 341 339 336 336 334 334
301 298 298 303 310 310 314 320 323 328 330 331 331 330 329 330 329 332 333 337 337 339 339 341 342 339 342 342 342 341 341 343 345 346 348 348 350 350 347 346 346 339 339 339 337 334 336 335 334
298 296 298 299 309 320 319 315 319 325 328 328 331 334 332 330 329 330 332 335 336 337 337 341 341 339 342 341 343 342 341 341 344 344 346 350 349 351 349 347 347 344 340 339 335 337 336 331 334
294 303 304 301 295 291 314 300 318 321 323 324 328 332 332 332 332 330 331 334 335 336 338 341 341 339 342 342 342 341 339 336 339 344 343 349 352 352 348 349 346 344 343 342 342 345 338 332 330
301 305 301 300 294 298 302 297 305 319 317 321 326 331 333 332 334 330 331 334 336 337 338 339 340 339 342 342 342 342 339 338 338 343 343 346 349 351 353 350 347 345 343 343 343 343 342 340 336
306 299 295 292 290 286 291 291 296 313 316 320 325 331 333 333 334 332 333 335 335 336 338 340 340 339 342 342 340 341 341 340 339 339 341 344 347 349 349 351 349 346 344 344 344 343 344 343 342
297 291 285 285 285 285 289 290 293 311 321 321 323 329 333 334 333 331 330 333 333 334 336 341 340 339 341 342 340 340 341 341 341 339 341 343 345 347 348 348 348 346 345 345 346 346 344 343 343
293 291 286 282 282 287 290 288 294 301 311 323 327 329 333 332 333 333 331 333 334 334 335 340 340 339 341 341 342 340 339 342 342 343 342 345 347 350 349 349 348 348 347 348 347 346 347 346 345
291 289 291 286 284 286 288 293 299 308 311 318 323 327 330 331 332 334 331 332 334 335 335 339 340 340 340 341 342 342 341 340 341 344 343 346 346 350 349 351 348 350 349 348 347 346 344 346 344
292 293 287 287 282 281 286 288 291 301 305 317 318 324 329 331 330 332 333 332 334 335 337 339 341 340 341 341 342 342 344 344 341 342 344 344 346 347 348 351 348 349 350 349 346 345 346 346 346
288 286 285 285 285 282 282 287 300 303 305 307 315 321 324 327 329 332 334 333 334 336 336 337 340 340 341 341 342 341 341 342 343 342 342 345 346 346 346 350 350 349 349 349 347 345 345 345 345
291 286 283 281 281 284 285 288 300 301 307 317 321 324 325 328 330 333 334 334 334 335 336 336 338 341 341 342 341 340 340 341 343 343 341 341 343 344 347 347 350 350 349 348 347 346 347 344 344

GFSSGP_sfc_thetae_072.txt.gz
Theta_e
351 348 344 334 316 316 311 317 325 324 324 327 326 323 321 326 322 310 335 341 341 347 353 357 362 362 363 360 360 358 361 361 361 361 359 359 358 361 360 357 360 361 360 360 361 361 361 361 361
348 345 338 332 313 310 314 322 322 327 330 325 327 330 328 324 333 333 338 341 343 351 353 357 363 364 363 361 361 359 361 361 361 361 360 361 359 358 360 359 358 359 360 360 359 360 361 361 361
347 344 332 325 317 312 313 322 326 330 329 327 329 333 331 326 334 335 342 342 349 352 353 356 362 364 362 361 360 360 361 360 360 360 360 361 360 360 359 359 358 357 358 359 360 359 360 359 358
338 335 330 319 316 321 320 325 329 329 333 334 332 326 333 339 334 342 345 347 350 352 353 361 362 362 362 362 361 361 361 359 359 359 359 359 358 359 358 359 358 358 358 359 359 360 358 359 360
340 330 320 318 319 322 325 327 329 328 330 331 331 325 327 340 344 346 346 349 349 350 354 357 363 363 363 362 361 360 360 360 360 359 359 358 358 359 358 357 358 358 357 358 358 359 359 360 359
328 329 317 314 319 324 328 330 329 330 331 330 327 327 330 343 342 345 348 348 351 352 354 356 361 363 362 362 362 360 360 359 359 358 359 358 359 358 357 357 356 356 357 358 359 358 359 360 360
323 323 315 319 318 320 327 335 330 329 329 328 333 325 334 339 345 347 348 350 353 355 355 355 355 358 361 361 360 360 360 359 359 360 359 358 358 358 358 358 357 356 356 357 357 358 359 360 360
330 328 320 321 319 318 330 332 334 331 328 335 336 325 328 338 346 348 349 350 351 353 353 353 354 354 354 356 361 361 361 361 359 359 358 358 357 356 358 358 360 356 356 357 358 358 357 359 360
337 322 316 319 320 324 332 328 336 339 329 333 337 334 338 345 347 345 346 347 348 350 350 351 352 353 354 355 357 360 362 359 359 358 358 354 352 354 355 358 358 357 357 357 358 357 357 359 358
329 319 318 326 327 327 332 331 332 330 328 328 332 338 343 344 342 339 338 337 341 345 349 349 351 351 353 358 353 353 355 354 354 352 349 350 351 351 354 356 358 357 356 356 355 356 357 353 351
330 319 325 327 332 333 331 331 335 330 328 330 329 335 338 338 338 337 336 337 340 345 350 348 349 351 352 353 352 352 352 352 352 349 348 349 349 351 352 351 351 352 356 355 352 351 350 349 351
321 326 327 329 333 332 330 333 331 332 333 334 335 338 338 337 337 337 337 339 341 343 348 348 349 349 350 352 351 351 350 350 348 349 349 348 347 348 349 349 350 350 350 349 349 348 350 350 348
322 323 323 323 332 333 334 330 330 333 336 337 337 337 336 337 336 338 338 340 342 343 345 347 348 348 349 350 349 350 350 350 348 348 349 348 346 346 347 348 349 348 350 348 345 348 347 347 347
320 320 319 317 326 330 327 329 331 335 337 335 335 333 335 336 336 336 335 336 339 342 343 346 347 346 348 348 348 348 349 350 349 348 349 348 346 345 347 348 348 349 347 349 347 347 346 348 346
316 309 311 327 328 327 331 324 325 335 339 336 335 334 334 335 338 336 337 336 338 341 343 345 345 345 346 347 347 347 348 350 348 347 348 349 346 346 348 347 347 347 347 349 348 346 348 347 345
303 301 297 323 327 329 327 318 328 335 333 333 333 332 332 335 336 338 338 338 338 339 341 345 349 345 345 346 347 347 347 348 347 347 346 348 349 348 348 347 347 347 348 348 348 344 346 344 343
300 295 296 312 328 327 323 317 328 335 331 331 333 330 330 333 334 336 338 339 339 339 341 343 345 344 345 346 346 345 346 346 347 346 345 348 350 350 348 346 348 350 350 347 345 345 344 343 343
296 295 295 297 320 323 321 318 326 333 333 330 330 328 328 330 332 334 335 340 340 339 341 344 344 344 343 345 344 345 346 345 345 346 346 350 350 349 348 347 349 350 347 344 344 344 342 343 343
300 298 297 300 310 318 317 317 324 329 333 331 328 328 328 329 334 333 333 338 339 339 340 341 342 342 343 342 339 341 342 343 345 346 349 352 351 350 345 346 347 347 346 346 346 343 344 341 341
300 297 296 302 304 308 309 315 322 328 330 332 331 329 329 328 330 331 331 334 337 338 340 340 342 341 344 345 342 343 343 345 347 347 350 352 352 349 347 346 350 346 345 345 345 344 342 340 340
297 296 297 300 301 319 317 315 317 323 330 328 331 333 331 330 328 330 330 333 337 338 338 339 342 341 344 343 343 343 343 345 346 347 348 351 352 352 350 351 350 345 346 343 343 343 343 338 339
291 302 303 303 295 291 313 300 312 318 322 324 326 330 332 330 329 330 330 333 335 338 340 341 342 341 343 343 343 342 340 340 344 346 348 351 353 353 354 350 350 348 346 346 345 347 345 342 339
300 303 302 301 293 298 300 296 302 317 315 320 325 328 332 333 331 329 330 334 336 339 339 341 342 341 343 343 344 342 340 342 343 346 347 349 353 353 352 352 351 349 347 349 350 349 347 346 341
304 297 293 292 289 286 291 292 291 308 314 317 324 328 330 333 333 331 332 335 335 338 339 340 340 340 342 342 342 342 341 340 340 342 344 346 349 352 353 354 353 351 349 349 349 350 350 350 349
296 291 284 284 284 285 287 290 292 299 307 313 320 327 330 333 334 333 330 332 334 335 337 338 340 338 340 342 341 342 342 342 341 341 343 345 347 349 351 352 353 349 350 350 351 350 350 349 349
292 291 285 281 282 286 290 287 295 305 310 319 321 327 331 332 333 334 330 332 333 335 336 338 338 338 339 342 341 341 343 343 344 343 343 345 347 350 353 353 352 353 351 350 352 350 351 351 349
291 288 290 285 283 285 287 292 298 305 308 313 319 325 327 332 333 333 330 333 334 334 335 337 338 339 340 341 342 341 341 342 343 345 346 346 349 351 354 354 353 353 352 351 351 350 351 352 351
291 291 287 287 282 281 286 289 291 296 300 312 318 321 323 331 331 333 332 331 334 335 335 338 340 339 340 341 342 342 341 342 343 345 346 346 349 350 353 353 353 353 352 353 352 351 351 351 351
287 285 284 285 284 282 282 288 298 297 305 313 316 320 325 325 331 331 334 331 334 336 335 336 339 340 340 341 342 342 343 343 342 343 346 348 349 349 350 353 353 352 351 352 349 350 351 350 351
288 285 282 284 282 282 284 286 304 311 313 314 316 320 324 328 329 332 334 333 333 334 335 336 338 340 340 341 342 342 342 344 344 342 344 346 348 349 350 351 353 353 353 352 352 351 352 349 349

GFSSGP_sfc_thetae_075.txt.gz
Theta_e
352 350 346 338 321 321 316 319 326 324 324 328 328 324 323 325 324 320 341 345 346 351 355 358 364 362 361 359 359 362 360 362 360 359 358 359 362 358 358 360 360 361 361 360 361 360 362 363 361
350 345 343 337 320 313 314 324 322 328 329 329 331 328 329 325 335 335 338 344 349 352 355 358 363 365 361 361 359 362 361 362 361 361 361 359 358 359 358 359 360 359 360 360 361 360 362 360 360
347 346 336 330 321 312 312 323 326 331 328 329 331 335 333 328 335 336 344 346 350 353 356 359 362 364 362 362 360 362 361 361 360 359 359 359 359 359 360 359 359 360 360 361 361 361 360 359 360
342 340 337 322 317 321 321 325 330 326 333 335 334 329 334 340 335 343 344 348 350 353 355 361 363 362 362 362 361 362 361 361 360 360 359 359 359 360 360 359 359 359 360 361 360 359 358 358 359
345 337 324 320 320 323 326 329 331 328 331 332 333 326 328 339 347 343 345 348 349 353 357 360 365 363 362 361 361 362 360 360 360 359 359 359 360 358 359 359 359 358 358 358 359 359 360 360 362
333 334 320 316 319 323 329 331 331 331 332 331 329 330 332 345 342 342 345 348 351 352 355 358 363 363 363 362 361 361 360 360 359 359 359 359 359 357 358 356 357 357 359 359 359 359 359 361 361
329 328 319 320 319 321 328 334 329 330 330 329 333 328 333 338 343 344 346 351 352 354 355 357 359 363 363 362 361 360 360 359 360 359 359 359 358 358 358 357 358 357 359 359 359 360 360 361 361
336 330 321 321 318 317 331 332 334 331 329 338 338 327 327 337 344 346 348 350 352 354 354 354 357 359 360 359 361 360 360 360 360 359 359 359 358 357 357 358 360 358 359 359 359 359 361 361 360
339 324 318 320 322 324 332 328 336 339 332 333 337 334 337 343 345 344 346 348 350 351 354 357 357 359 362 361 360 361 361 360 359 359 360 359 358 356 356 359 359 358 359 359 358 358 360 359 359
332 326 321 329 330 329 331 331 331 329 331 332 335 339 342 343 341 340 340 341 345 349 352 356 357 358 359 357 362 362 358 360 361 360 360 359 359 358 356 359 358 357 357 357 357 358 357 353 356
331 325 328 330 333 335 331 331 334 327 327 333 332 334 338 339 338 339 341 343 343 349 352 354 357 359 357 359 357 357 358 358 358 359 359 359 357 358 357 357 356 357 357 356 356 356 354 355 355
325 329 330 330 336 333 331 335 331 332 331 337 338 339 338 337 338 340 340 342 343 346 351 354 357 358 359 358 354 357 356 357 355 356 359 358 355 357 359 356 357 357 356 356 357 355 356 356 355
325 327 327 329 334 334 336 332 332 332 335 340 340 338 336 337 339 342 342 342 345 343 350 354 357 359 361 360 357 356 356 355 355 357 358 358 355 355 356 356 356 357 358 356 354 356 355 356 355
322 323 321 322 327 335 331 332 332 333 336 336 338 338 340 340 339 340 341 341 344 346 349 352 354 358 360 358 359 356 356 356 356 357 359 358 355 356 354 355 356 359 359 357 357 356 355 356 354
321 314 322 329 329 330 334 327 328 335 336 333 336 337 338 338 340 339 340 341 344 347 351 351 353 356 358 358 357 355 355 355 357 359 359 359 357 357 360 358 357 358 359 360 360 358 359 354 353
310 310 307 327 330 331 329 318 329 335 333 332 332 335 337 339 339 342 341 342 345 347 350 352 351 354 356 356 356 354 356 358 359 359 359 359 359 357 359 358 357 358 359 359 359 357 355 352 351
308 307 305 321 331 330 328 322 330 336 333 331 332 334 335 336 339 342 343 342 343 347 349 350 353 352 354 357 355 356 357 357 360 360 358 358 358 358 359 359 357 361 360 358 355 355 356 350 351
306 305 305 312 327 328 325 324 329 333 333 334 334 335 335 335 338 342 344 343 343 345 350 351 353 353 355 355 355 354 355 356 359 358 358 357 360 358 360 358 359 360 358 357 353 357 354 353 352
307 306 305 307 323 321 321 323 329 334 331 333 334 335 334 335 339 343 343 343 342 344 348 351 351 354 353 351 350 352 351 354 355 357 359 358 361 358 358 357 358 359 357 357 356 354 354 352 354
307 305 305 307 313 313 314 319 327 332 331 333 334 333 334 335 336 339 341 342 342 343 346 351 352 354 354 352 354 354 354 355 355 357 359 359 361 361 357 356 357 358 355 359 357 355 351 351 352
306 306 305 305 307 325 321 319 322 329 333 334 335 335 335 335 335 334 339 341 343 343 346 349 352 354 354 355 354 355 355 356 353 354 355 357 361 361 361 358 360 358 358 354 355 354 354 347 351
306 309 307 306 305 302 321 307 318 325 328 331 334 335 335 336 337 335 337 339 342 344 348 349 352 354 355 356 354 354 350 349 351 355 356 357 361 362 361 362 361 360 357 356 353 355 355 353 347
307 309 308 307 304 306 312 308 311 324 323 326 330 335 337 337 337 337 336 339 341 344 347 348 352 354 356 355 357 353 354 352 354 355 358 359 363 362 362 362 362 360 357 359 360 358 357 354 349
310 305 303 302 302 298 308 304 302 310 312 315 328 332 337 338 337 338 340 341 341 344 345 347 350 354 354 355 355 355 355 354 352 354 353 354 356 360 363 363 363 361 359 358 359 361 359 360 358
307 303 296 295 295 297 300 302 305 312 316 320 324 325 335 339 339 337 338 339 341 342 344 345 349 350 352 353 354 355 355 357 356 356 354 356 354 356 361 363 365 365 362 360 361 361 360 359 358
305 304 298 292 292 296 299 299 303 311 319 325 328 331 331 337 340 339 338 339 341 342 344 345 347 351 351 351 355 356 356 352 353 356 354 354 354 356 362 363 363 363 362 360 361 358 357 360 358
300 300 301 297 295 297 298 301 306 314 319 321 323 326 330 335 336 340 341 340 341 342 344 346 348 349 350 350 354 355 356 355 354 357 357 355 359 356 361 362 363 362 363 362 362 357 361 364 361
301 300 298 299 293 292 295 298 300 310 311 315 319 321 326 331 337 339 342 340 342 343 344 346 348 349 351 351 352 352 352 354 356 357 357 358 358 361 360 362 362 363 363 363 362 359 360 360 359
298 297 296 299 296 295 293 296 311 309 311 313 317 320 323 332 335 340 342 341 342 343 343 344 345 347 347 348 352 352 351 351 354 354 356 359 361 361 361 362 361 362 362 363 363 362 361 360 360
296 293 294 298 295 295 299 295 311 313 312 313 315 318 322 326 332 338 341 340 341 342 343 342 345 345 346 349 351 349 352 352 351 352 353 357 358 361 361 362 362 362 362 362 362 360 359 359 357

GFSSGP_sfc_thetae_078.txt.gz
Theta_e
352 349 350 344 327 324 317 319 328 327 328 332 333 328 327 328 327 323 343 346 352 352 356 361 364 362 359 361 363 361 363 360 358 358 360 361 358 360 362 361 362 362 362 363 361 362 362 362 361
348 345 348 343 323 315 316 326 324 330 332 333 331 330 329 329 336 337 340 348 352 352 355 358 364 364 360 361 363 361 363 361 362 361 359 360 360 358 361 360 360 361 362 362 362 362 361 362 362
346 348 340 333 326 314 317 327 330 332 332 332 329 338 334 333 337 338 345 349 351 353 355 362 365 363 361 361 363 361 362 362 360 360 360 359 359 360 360 359 360 361 360 361 362 361 360 361 362
345 345 341 327 319 321 321 328 330 329 333 336 335 332 338 342 338 344 347 349 351 352 355 362 364 363 363 361 363 361 362 361 360 361 361 360 360 360 360 360 360 361 361 362 360 359 359 360 361
347 341 327 324 320 323 329 332 331 331 333 333 334 330 331 340 346 346 347 348 350 352 356 360 366 364 363 362 362 361 362 361 360 360 360 359 360 360 360 360 360 360 361 360 360 360 361 363 362
337 340 323 317 318 326 330 334 335 333 336 335 334 334 333 345 343 345 348 349 352 353 356 359 364 363 363 362 362 361 361 360 360 360 360 359 359 359 358 359 359 360 360 360 360 361 362 362 361
332 333 323 322 320 323 328 337 332 333 334 333 338 330 336 339 344 347 349 351 353 354 355 358 360 364 363 362 361 361 361 361 359 360 360 359 360 359 358 357 359 360 360 360 361 362 362 362 361
339 335 323 325 322 320 331 332 336 334 331 339 341 330 331 339 345 347 349 350 353 354 354 357 358 360 360 360 360 361 360 360 359 360 359 360 358 358 357 361 361 360 360 360 361 361 361 361 359
341 330 320 324 321 325 332 328 336 338 333 335 340 338 339 343 345 345 347 349 351 352 353 352 353 357 361 359 361 361 361 359 360 359 358 359 354 355 355 360 359 361 360 360 360 360 360 361 361
335 327 323 330 333 329 330 331 331 330 331 334 337 339 341 341 342 342 343 345 347 348 350 353 356 358 358 355 360 361 358 360 358 357 359 354 356 358 355 359 359 359 359 359 360 359 355 359 354
334 326 329 332 336 336 333 330 335 330 331 337 336 336 339 339 341 342 343 345 345 348 349 353 357 359 357 358 356 354 355 357 358 360 358 356 354 355 352 355 356 357 359 356 358 357 355 357 355
328 332 330 332 336 336 334 334 335 334 335 341 341 339 339 338 339 341 342 344 345 347 349 352 357 358 357 354 354 353 352 353 353 357 359 357 351 353 354 353 356 357 355 357 358 355 359 359 358
329 329 328 328 334 334 338 334 333 331 338 342 341 339 338 339 340 343 343 344 345 346 350 352 356 359 358 356 355 354 353 351 353 354 358 355 352 355 355 357 356 357 359 355 356 357 358 360 357
329 329 324 324 330 335 333 334 333 335 341 338 337 338 339 339 340 342 342 342 344 346 349 353 355 359 358 358 360 357 355 356 354 354 356 359 354 356 355 357 356 358 358 357 358 359 357 355 356
328 321 324 327 327 330 336 330 329 337 340 336 337 338 339 340 341 341 342 341 345 347 351 353 354 356 358 359 360 357 356 356 356 357 362 362 359 361 362 357 359 357 360 362 361 361 358 353 352
322 320 314 327 329 332 334 323 334 336 337 333 336 337 338 338 338 341 342 342 345 347 351 353 351 353 356 358 359 357 356 358 358 358 359 362 363 362 362 359 359 358 360 360 357 358 351 351 350
320 315 313 323 332 332 331 325 332 337 333 333 333 333 332 335 339 342 342 343 344 348 352 353 354 352 354 359 358 359 361 358 359 359 359 363 362 363 365 362 358 361 359 357 357 354 354 350 348
315 314 312 319 329 331 327 327 335 332 333 331 332 333 332 335 339 345 346 344 344 347 351 353 354 355 356 356 358 355 355 357 358 360 358 361 362 363 363 358 361 361 357 354 355 358 355 353 351
319 316 314 318 330 326 323 323 332 335 335 331 332 334 335 336 342 345 347 347 343 345 348 352 354 356 355 354 351 351 350 354 355 358 361 362 363 362 363 359 361 361 360 358 360 356 356 347 354
315 313 312 313 319 317 314 317 329 332 335 336 335 335 337 338 339 343 346 347 343 343 348 352 355 357 357 354 354 354 354 354 356 358 362 361 362 364 362 362 359 362 356 362 362 359 351 349 352
314 314 312 311 313 321 320 321 325 332 333 337 339 341 341 340 339 343 345 346 344 342 347 352 356 357 357 358 358 360 361 361 356 356 357 360 362 362 364 362 361 362 360 352 360 358 357 344 354
310 316 312 310 309 309 320 308 323 328 331 331 335 338 340 341 342 343 345 345 345 344 346 352 356 357 357 361 359 359 352 348 351 354 355 359 363 362 362 363 363 364 359 360 358 358 359 357 345
311 316 313 311 310 308 311 310 317 327 325 328 332 334 335 341 341 342 344 346 347 347 347 351 356 359 358 361 361 356 356 352 353 353 362 364 365 361 361 363 364 364 359 363 362 361 361 355 349
315 312 312 312 310 302 311 310 309 317 318 322 326 337 339 337 342 343 345 346 346 348 349 351 355 359 361 361 361 360 358 357 352 354 354 355 357 359 363 361 363 364 362 363 361 361 362 360 358
313 308 302 301 300 301 311 308 311 317 325 327 327 332 336 343 341 342 343 344 346 347 349 351 354 356 359 359 360 361 361 360 360 362 350 356 353 355 363 365 362 359 365 365 364 366 361 359 354
310 308 302 296 297 301 308 305 308 323 327 330 331 334 331 340 344 342 344 345 346 347 349 350 352 356 358 358 360 362 363 357 355 357 353 353 353 356 362 365 361 362 362 363 365 357 355 360 354
309 305 311 304 306 303 305 309 316 321 323 326 324 328 332 337 343 344 345 345 347 348 349 351 353 356 357 356 359 360 362 361 356 358 358 355 360 356 361 364 363 362 362 363 365 357 359 360 360
309 312 303 304 298 297 302 304 308 314 316 319 319 322 330 338 341 344 346 346 347 348 350 352 354 355 357 356 357 357 359 361 361 359 358 359 357 362 360 364 364 362 364 365 366 360 361 361 357
304 305 306 307 305 300 298 303 316 313 314 315 317 320 326 330 337 340 343 346 347 348 349 350 352 354 355 356 357 357 357 358 360 358 358 360 360 361 363 365 365 364 362 364 366 364 361 361 360
303 303 306 302 301 304 304 305 317 318 315 317 317 319 322 326 328 331 336 344 347 348 349 349 350 350 353 354 357 356 359 358 356 358 358 361 360 361 364 366 366 361 362 364 366 362 359 360 358

GFSSGP_sfc_thetae_081.txt.gz
Theta_e
352 348 351 346 326 322 316 319 330 328 327 333 334 330 328 334 329 323 345 350 351 351 354 359 363 360 362 363 361 362 359 358 358 359 359 359 361 362 362 362 363 363 363 362 362 362 362 362 362
348 344 347 339 324 312 315 325 327 330 332 334 332 331 332 329 338 338 342 351 352 352 352 355 363 361 361 363 361 363 362 361 360 360 361 360 358 362 362 361 362 363 363 362 361 361 363 362 362
352 347 337 331 325 315 319 327 330 331 333 332 332 336 336 329 338 340 348 351 350 352 351 358 364 361 361 362 361 361 362 361 361 361 360 361 360 361 360 361 362 362 362 363 361 361 362 362 360
342 342 340 328 318 321 325 331 332 329 334 334 336 332 339 340 340 345 350 350 348 350 356 363 363 361 362 362 362 361 362 361 361 361 361 361 361 361 361 362 362 361 362 362 359 359 361 362 360
344 338 327 319 320 322 330 331 332 330 332 333 335 331 331 341 345 347 348 348 347 350 356 361 365 363 362 362 362 362 362 360 361 361 361 362 360 361 361 361 361 362 361 361 361 361 362 361 360
335 339 322 320 321 327 332 333 333 332 332 335 334 332 333 345 343 346 348 347 350 350 351 357 362 363 362 361 362 362 360 360 360 361 360 360 360 360 360 361 361 361 361 361 361 362 362 361 360
332 333 324 323 323 325 331 337 333 332 333 333 339 331 337 341 345 347 347 349 349 352 352 356 359 363 362 362 362 361 361 360 361 360 359 360 360 358 359 360 361 361 361 361 362 363 362 360 359
338 337 326 324 324 323 334 335 337 334 335 341 343 329 331 341 346 348 348 348 350 349 350 355 356 355 358 359 361 361 361 360 360 359 360 360 359 359 359 362 361 360 360 361 361 361 362 360 358
343 331 323 324 326 325 334 331 337 342 337 339 340 337 339 343 345 345 344 346 347 348 350 354 353 355 360 359 360 361 359 361 360 358 359 360 356 356 356 363 361 361 361 361 361 361 362 361 360
338 331 326 332 333 331 330 332 332 333 333 335 337 339 341 342 343 341 343 343 345 345 346 349 353 354 356 352 360 358 356 357 358 358 360 359 356 354 353 360 361 360 361 361 361 361 362 362 356
335 324 330 334 336 336 332 329 334 330 330 337 333 336 339 340 341 340 342 342 343 346 348 352 356 360 355 355 356 355 353 355 357 361 357 354 353 352 352 356 356 359 360 356 358 356 355 352 351
330 332 331 335 337 334 332 334 331 333 335 341 340 339 339 339 338 339 340 341 343 345 348 352 355 356 353 353 354 350 351 351 352 353 356 355 350 352 360 354 353 354 357 356 355 354 357 356 354
331 329 329 334 333 337 337 334 335 334 340 342 342 339 338 338 339 341 341 343 344 344 347 352 355 357 356 363 351 351 349 350 352 354 355 357 355 357 358 357 354 357 357 353 355 359 357 355 352
332 332 327 330 328 337 333 333 335 336 341 342 339 337 338 337 338 340 340 341 343 346 348 352 353 356 356 363 361 356 354 351 352 352 355 358 357 360 357 359 360 358 363 358 362 355 365 356 352
332 325 326 328 332 333 336 330 329 338 339 336 336 337 337 337 338 339 341 341 343 346 350 352 353 354 358 358 356 356 353 354 351 353 359 359 359 363 371 357 355 359 359 361 358 359 362 353 350
327 327 318 326 330 333 332 323 334 340 338 335 335 335 336 337 338 340 340 341 344 347 350 353 350 352 356 358 363 360 356 355 361 353 356 359 361 360 364 357 356 356 364 357 359 363 360 351 351
324 317 317 322 331 332 331 326 331 339 336 335 333 335 336 336 337 339 341 340 343 348 351 352 352 351 355 360 358 358 364 358 365 359 358 362 362 361 363 359 357 361 357 353 352 354 353 351 350
315 316 317 319 328 328 325 326 335 334 334 333 332 333 335 334 335 340 340 341 344 348 352 353 352 353 358 358 359 356 354 360 359 363 358 362 362 363 363 357 358 359 356 353 353 362 354 348 350
318 317 316 322 328 327 326 326 332 331 332 332 330 330 332 332 337 341 342 344 344 347 350 353 354 358 355 354 351 349 348 353 355 358 361 361 362 363 363 359 359 358 355 355 357 355 354 351 348
318 317 314 321 326 326 323 324 332 333 330 331 331 334 330 331 337 341 344 343 342 345 348 353 355 357 357 354 357 352 361 349 358 358 361 361 362 364 361 364 361 362 354 360 358 357 354 342 352
318 317 315 314 320 322 318 319 326 332 333 332 334 336 336 333 336 339 342 343 342 342 346 352 356 358 359 361 355 358 359 358 352 356 356 360 361 361 363 362 364 362 362 354 359 357 350 349 346
313 319 316 315 314 310 321 309 322 330 330 332 334 335 338 337 337 340 342 343 341 342 347 353 356 358 358 361 362 365 352 346 350 355 358 361 362 361 361 362 363 364 358 360 358 353 362 360 348
312 319 317 315 313 314 316 313 312 327 326 327 331 336 337 339 337 339 342 344 344 343 346 352 357 361 363 362 366 357 357 354 354 354 364 362 366 362 359 363 363 363 360 366 362 360 362 355 350
317 316 316 315 312 305 311 312 309 318 324 330 330 337 338 338 340 341 343 346 344 345 345 350 357 362 362 361 361 363 360 359 357 355 354 356 357 358 362 361 363 364 363 363 361 362 361 361 363
315 312 305 303 303 302 312 311 312 323 328 328 327 332 337 339 340 341 341 342 343 345 347 349 355 358 360 359 360 361 361 361 360 360 352 352 351 355 364 364 364 360 364 362 364 365 362 360 355
312 311 305 298 300 302 312 308 315 327 330 330 333 332 338 340 339 340 343 345 343 344 347 350 355 358 360 360 364 366 365 357 354 359 361 356 354 357 367 363 362 362 362 362 364 359 358 365 357
311 308 313 307 309 304 309 315 322 325 326 324 326 333 336 335 341 341 344 342 346 346 347 351 355 358 360 359 363 365 365 363 360 365 362 355 366 356 362 361 361 362 362 363 366 358 363 362 361
311 315 306 307 300 299 306 310 312 317 320 320 320 325 333 342 340 339 341 345 346 346 347 350 354 356 359 360 360 360 361 364 363 361 362 361 362 361 354 361 364 363 362 363 366 365 364 361 357
308 308 310 310 308 302 301 308 321 318 319 317 319 322 325 330 335 338 344 346 344 348 350 350 352 355 357 359 361 361 361 361 363 360 360 361 361 362 362 364 365 363 364 363 369 367 363 361 360
309 310 310 304 304 307 305 308 321 322 322 319 318 321 324 328 329 330 335 338 341 342 344 347 351 352 355 358 363 360 363 363 359 361 361 363 364 362 364 366 364 363 361 365 365 361 358 358 359

GFSSGP_sfc_thetae_084.txt.gz
Theta_e
352 347 348 343 324 319 315 319 330 324 325 330 331 330 330 331 328 321 347 349 350 350 354 358 364 364 362 362 362 360 359 358 360 359 359 363 362 363 364 364 362 362 364 362 363 362 363 362 361
345 343 344 341 322 310 316 323 326 329 329 332 335 334 330 326 335 340 343 349 350 348 349 353 362 364 363 363 361 363 362 361 361 360 361 360 362 361 363 362 363 362 363 363 363 363 362 362 361
351 347 336 329 323 315 317 326 329 331 330 332 333 332 332 329 337 342 347 349 347 348 351 356 363 364 364 364 363 363 362 361 362 361 361 363 362 362 362 362 362 362 363 361 362 363 361 360 360
344 341 337 323 317 321 324 330 330 328 333 335 333 326 334 340 340 345 349 348 347 348 353 361 363 363 362 363 362 362 362 362 363 362 362 363 363 362 362 362 362 363 361 361 360 362 362 360 358
342 338 324 318 318 322 328 331 333 327 331 332 331 326 330 340 344 346 346 349 349 349 352 358 365 364 363 363 361 361 361 361 361 361 363 361 362 362 362 362 363 362 361 362 361 362 360 359 358
333 337 321 317 318 324 331 335 334 332 334 332 328 328 331 342 342 345 347 348 352 350 352 356 363 363 362 363 362 362 360 361 363 363 362 362 362 362 363 362 362 361 361 361 363 362 360 359 358
330 330 322 323 322 325 330 338 332 331 332 331 335 327 333 337 343 345 348 348 347 351 352 354 357 361 363 362 362 361 362 362 361 360 362 362 362 361 362 363 361 361 362 362 363 361 360 359 357
337 334 324 324 322 322 334 335 338 334 332 339 337 327 328 338 344 345 347 347 349 348 350 354 357 356 356 358 361 361 360 361 360 361 360 362 361 360 362 363 364 362 362 362 362 361 359 358 357
341 328 322 323 324 327 336 332 338 343 336 337 337 334 336 340 345 343 342 346 345 348 349 352 353 355 360 359 359 360 359 360 360 359 359 360 357 356 356 363 363 361 363 361 362 361 359 357 358
331 328 326 331 332 330 333 332 332 333 333 333 332 336 338 340 344 341 339 340 343 346 350 353 354 354 356 351 360 360 359 359 360 357 358 356 359 355 354 360 363 361 364 363 363 363 355 361 353
334 325 332 333 335 335 332 331 333 332 331 333 330 332 335 337 340 338 340 339 341 346 351 352 354 357 355 356 357 357 358 357 358 361 360 360 352 353 354 358 357 360 359 357 358 361 357 355 354
326 333 335 334 336 333 331 332 331 332 336 337 336 336 335 334 335 340 340 340 346 346 351 349 353 351 360 356 356 352 353 354 354 359 353 355 360 351 359 357 355 356 353 349 351 357 360 357 352
330 330 334 337 335 334 335 332 330 333 340 341 338 336 334 334 335 339 340 339 347 348 349 349 352 349 365 356 355 352 350 352 350 353 359 357 352 361 354 346 355 349 356 350 351 353 349 354 354
331 331 328 332 334 335 331 332 334 336 341 339 336 334 334 334 334 338 339 340 341 348 346 351 355 360 362 369 366 361 351 354 355 353 352 360 362 363 350 353 353 356 363 353 344 357 361 350 353
331 326 325 329 335 334 335 329 330 338 341 337 335 335 334 335 335 337 339 340 342 347 350 352 351 356 363 365 356 366 355 352 354 356 366 362 362 359 353 348 354 356 367 366 352 360 355 355 351
327 326 316 325 333 334 333 321 332 337 337 334 333 334 333 334 335 338 338 340 344 349 351 353 347 354 358 362 364 351 350 353 360 357 362 367 366 367 364 353 353 360 354 358 348 360 357 353 354
324 316 317 320 331 331 331 323 332 336 335 332 332 332 332 333 336 339 338 341 343 351 353 354 352 354 355 361 367 350 353 351 356 363 356 365 366 367 369 361 356 364 352 360 354 355 355 352 348
314 315 317 319 327 329 328 326 332 335 333 333 332 332 333 332 334 338 337 341 343 350 354 357 352 360 361 361 358 359 353 354 356 359 361 368 367 367 361 366 365 348 363 358 346 360 352 355 341
318 317 315 320 323 327 327 327 329 334 334 331 330 331 332 333 336 337 339 339 342 348 352 357 355 362 360 360 356 352 354 354 355 360 368 360 359 369 370 366 363 351 360 347 365 361 358 355 357
316 314 316 320 324 325 326 325 329 332 331 332 331 330 332 332 334 338 338 339 341 347 352 357 357 359 362 357 362 364 355 358 356 357 366 364 363 369 366 359 361 353 355 364 362 346 357 353 357
313 313 315 316 318 318 317 321 317 330 333 332 333 335 333 332 333 338 338 340 343 347 351 356 358 358 361 364 365 370 362 358 358 356 360 365 365 367 359 366 364 363 363 356 362 364 357 351 355
309 318 317 319 317 311 319 311 322 326 328 331 331 333 333 331 336 340 339 341 341 346 351 356 360 358 359 366 363 368 361 358 355 356 362 365 366 365 366 369 364 358 354 351 359 360 354 360 352
312 319 317 316 313 312 313 309 319 325 323 321 326 332 333 335 337 338 340 344 338 344 347 355 360 359 361 366 364 362 363 350 351 356 362 365 372 369 363 369 369 364 359 355 358 365 366 360 353
318 316 317 316 312 304 312 311 314 319 318 325 329 333 328 334 338 338 342 343 341 345 347 353 358 360 363 362 365 363 363 348 345 352 353 358 365 364 367 367 368 366 352 351 367 367 366 363 366
315 311 304 303 303 301 310 310 314 317 328 329 330 332 331 333 338 339 342 343 342 342 346 353 358 358 361 359 361 364 363 365 361 357 349 355 350 351 362 367 368 366 368 362 366 369 367 367 362
311 310 304 298 299 302 310 306 314 320 330 332 333 335 332 334 341 338 343 344 346 342 346 351 357 358 360 359 362 364 366 361 360 363 365 351 350 354 363 365 367 369 365 364 366 367 364 364 362
310 307 314 307 308 303 310 316 323 325 323 326 329 335 336 339 341 341 343 344 347 342 347 351 356 359 361 360 363 365 366 365 358 364 368 363 359 353 362 354 364 366 367 365 366 362 364 365 365
312 314 305 307 299 298 308 311 312 319 319 321 323 325 327 330 339 339 341 340 347 344 347 353 358 359 360 360 362 363 365 365 366 368 369 372 364 355 351 353 353 366 365 365 365 361 362 362 364
309 307 309 309 307 300 302 308 321 321 321 320 321 324 326 327 332 337 337 335 343 346 344 350 356 358 360 361 362 361 362 364 366 365 368 368 372 358 352 339 348 363 366 364 365 362 360 359 360
312 310 310 304 304 307 306 308 322 322 321 321 320 323 327 329 327 332 335 334 333 337 346 347 345 353 358 360 362 362 364 363 363 363 364 368 367 368 369 362 363 365 363 363 362 362 360 359 359

GFSSGP_sfc_thetae_087.txt.gz
Theta_e
351 348 345 339 323 319 314 317 327 323 325 330 332 329 327 331 324 317 343 348 351 353 356 358 364 361 360 360 359 359 358 359 359 361 363 363 363 365 365 363 363 363 365 363 363 363 361 361 361
346 343 340 333 318 309 313 322 323 329 330 330 331 331 330 328 337 339 341 348 351 353 354 357 364 363 361 361 361 362 361 361 361 361 361 362 362 364 363 363 362 362 365 363 363 362 362 361 360
349 344 332 325 320 313 315 325 328 332 332 328 328 332 332 330 339 339 345 347 347 346 351 356 364 365 363 363 362 361 363 362 361 360 360 362 362 362 363 363 362 362 363 364 363 360 360 358 356
343 339 335 321 314 321 323 327 331 326 329 330 330 325 336 342 339 343 345 345 346 348 352 362 363 363 363 363 362 362 362 361 361 362 362 362 361 363 362 362 362 361 360 361 362 361 359 359 360
342 336 322 319 317 322 329 333 332 327 327 327 330 326 331 339 343 344 344 347 348 350 353 358 365 365 363 362 362 362 362 361 361 363 362 362 362 362 362 362 362 362 361 362 361 360 359 360 360
329 334 320 315 317 325 330 333 330 327 327 330 328 328 330 342 341 343 346 344 350 350 353 356 362 363 363 362 361 361 361 361 361 362 361 362 362 362 362 361 362 362 359 363 361 360 358 358 359
329 328 321 317 318 323 330 337 332 326 326 327 332 324 329 338 344 347 348 345 347 352 352 355 356 360 363 362 361 361 361 361 361 361 361 362 362 362 362 361 361 362 362 362 360 358 358 358 357
333 332 323 322 320 321 333 334 339 332 327 335 334 324 326 336 343 344 346 348 347 350 352 353 355 355 354 355 361 362 361 360 360 360 360 363 362 362 361 363 365 362 362 362 359 357 356 354 354
341 324 320 322 322 326 334 331 339 342 334 332 334 331 336 340 343 342 341 344 345 347 349 352 352 352 352 353 356 359 361 360 360 359 360 360 351 352 356 361 364 361 361 360 360 358 356 355 355
331 323 324 331 331 330 333 333 333 332 332 331 330 335 339 340 341 337 336 339 342 344 348 349 351 351 352 354 352 351 353 351 352 351 352 349 349 349 355 359 363 362 360 358 360 362 359 359 350
333 325 332 331 334 335 332 330 334 331 328 327 326 330 336 336 336 336 336 339 343 346 348 348 349 349 347 350 351 348 350 351 352 348 350 350 349 351 352 352 353 352 354 351 352 354 351 350 351
328 332 333 333 335 332 330 333 331 335 334 334 332 333 337 335 334 334 335 342 342 343 346 348 350 349 349 350 349 347 348 350 346 352 347 346 346 347 348 352 350 346 347 344 348 350 353 354 353
322 328 334 335 333 332 332 330 332 332 339 339 333 332 335 336 335 337 340 343 345 345 346 346 346 346 348 351 348 347 349 345 347 346 347 350 348 347 345 345 350 348 345 345 339 343 347 344 347
332 331 333 332 331 332 328 330 332 332 332 337 331 329 329 330 336 338 341 342 342 343 346 343 343 347 351 352 349 348 345 342 345 345 349 352 350 348 348 347 348 345 349 346 339 343 348 343 343
331 325 328 332 331 330 333 326 328 334 333 335 330 330 330 331 337 335 341 344 342 343 346 345 346 351 352 346 349 348 349 348 347 350 348 350 350 345 346 340 343 346 351 347 348 347 351 345 346
324 324 318 327 331 332 330 319 332 336 333 334 330 330 330 330 332 336 337 343 343 344 342 341 350 348 347 348 346 346 350 348 346 350 351 354 350 349 346 344 346 349 344 349 344 345 342 341 343
319 312 316 320 332 330 327 322 331 336 335 331 330 330 329 329 330 335 336 337 343 345 343 341 346 345 349 350 349 346 345 345 350 349 351 351 352 353 352 348 346 352 346 347 347 344 345 342 340
309 312 316 316 327 328 324 321 329 334 333 331 330 329 329 329 329 334 336 339 344 345 345 346 347 345 345 350 349 347 346 349 352 351 354 356 354 354 350 354 348 348 347 347 342 343 342 344 338
312 312 314 320 326 326 321 323 329 331 331 329 328 329 328 328 332 332 336 339 345 343 344 345 348 350 348 349 342 345 341 345 351 353 354 350 350 356 353 352 346 348 347 343 350 347 346 346 346
308 310 313 321 325 322 313 319 328 330 330 330 329 327 328 328 329 329 334 339 343 342 343 349 349 348 348 348 349 348 347 347 349 354 355 353 354 353 355 351 350 348 346 349 346 340 344 342 341
306 307 310 315 320 319 315 315 322 329 331 332 334 333 334 330 328 329 331 337 340 343 345 348 347 348 348 349 351 354 352 351 349 352 351 356 357 356 353 353 352 345 346 343 345 349 341 338 343
299 309 312 314 313 306 318 306 314 323 326 328 330 332 333 335 330 331 330 335 339 343 348 350 348 346 346 351 345 346 342 343 344 346 351 351 357 357 356 354 353 353 345 342 345 352 346 339 338
304 312 315 316 311 311 310 308 313 322 321 324 326 330 332 334 334 332 333 336 341 344 346 351 349 347 345 350 350 348 346 343 344 350 348 353 353 358 355 354 352 350 349 347 348 349 348 347 347
311 307 313 312 310 300 309 306 312 317 322 325 327 331 333 334 334 336 336 338 340 343 346 351 349 348 347 351 349 348 346 342 343 343 349 347 350 351 351 356 353 353 346 341 342 350 349 350 348
305 299 297 297 299 297 302 307 310 321 327 324 324 329 330 332 334 335 336 339 338 340 344 346 351 347 349 350 348 351 349 348 347 348 344 346 346 345 347 353 353 352 349 346 346 351 349 352 346
301 301 296 294 294 296 303 303 310 323 328 330 327 331 329 329 333 335 334 339 340 338 344 346 349 349 349 348 350 351 350 350 348 351 346 350 342 346 349 353 353 355 352 353 353 352 351 349 349
302 300 305 297 301 295 306 311 318 322 323 328 329 329 326 327 329 330 331 340 343 338 343 346 348 349 349 350 350 353 352 351 349 349 349 348 347 352 353 350 353 353 354 352 353 351 351 351 349
305 307 298 296 292 290 305 306 309 316 316 321 322 325 328 332 336 333 337 339 340 341 345 348 350 350 351 351 353 353 353 354 354 355 353 352 350 349 349 350 348 352 354 354 352 349 351 350 350
303 301 301 299 299 292 298 305 318 315 317 317 321 324 327 329 334 337 338 336 338 338 343 347 349 352 352 352 353 352 355 355 354 354 355 352 349 348 347 345 341 347 352 353 352 350 350 352 349
306 303 301 294 294 299 303 304 321 318 318 320 321 325 326 329 329 333 335 337 338 336 337 340 341 344 347 354 354 354 355 355 356 355 355 354 349 349 345 338 337 343 350 354 352 351 351 350 348

GFSSGP_sfc_thetae_090.txt.gz
Theta_e
351 348 346 336 321 318 312 317 325 322 324 330 327 323 320 323 320 314 340 346 350 352 354 358 364 361 359 359 359 358 358 360 363 364 363 362 362 362 362 363 363 363 364 362 361 361 361 360 359
347 344 339 331 317 309 311 323 323 325 328 332 332 332 327 324 335 336 341 350 353 353 354 357 362 362 360 358 359 361 361 360 360 362 363 362 364 362 362 362 363 363 364 363 362 361 361 361 359
344 342 328 324 318 311 314 323 326 328 331 329 329 334 332 330 338 339 347 352 353 352 354 356 362 361 362 362 362 361 362 361 360 361 361 361 362 363 363 362 362 363 362 362 361 360 360 358 358
342 339 335 320 314 321 323 326 330 326 329 332 331 327 336 342 339 344 350 350 347 350 352 361 362 362 363 362 362 362 361 362 361 362 362 362 363 363 362 361 361 362 363 361 359 358 359 359 357
339 335 320 317 317 323 328 330 330 324 328 330 331 327 329 339 345 345 344 346 346 349 355 357 365 363 362 362 362 362 361 362 363 363 363 362 362 363 362 361 361 361 362 362 359 359 360 359 360
329 333 317 314 317 325 330 333 329 327 329 331 329 328 328 340 341 341 345 344 348 351 355 356 363 363 362 361 362 362 361 361 362 362 361 361 362 362 362 362 362 361 362 360 359 360 360 359 359
327 324 320 317 319 322 328 337 327 327 327 328 333 324 331 336 340 344 347 347 349 353 353 354 355 359 362 361 361 361 361 361 361 361 361 362 362 361 361 363 361 361 361 359 358 358 357 358 358
334 330 319 321 319 320 332 335 332 328 326 336 336 325 326 335 341 344 345 348 349 350 353 352 353 353 352 354 361 361 360 360 359 360 361 362 362 361 362 364 365 361 360 359 357 357 356 355 355
340 324 318 321 321 324 334 330 339 336 329 331 333 334 337 343 344 341 342 344 346 349 350 351 352 350 350 351 357 360 360 360 360 358 360 359 351 352 355 362 364 361 360 359 358 355 355 354 356
331 323 321 329 327 328 332 333 334 328 326 328 331 337 340 342 341 339 339 340 341 344 347 350 349 349 350 355 351 350 352 350 350 350 351 348 346 349 354 359 363 359 358 359 359 359 356 355 349
330 324 327 328 333 335 332 332 335 330 328 327 328 332 337 338 338 338 339 340 341 345 348 347 348 348 347 349 348 348 348 348 348 347 348 347 348 351 351 351 352 348 350 348 350 351 347 350 349
326 333 333 331 336 333 331 334 333 333 330 332 334 336 336 335 335 336 338 340 342 344 345 347 347 347 345 349 346 345 347 348 347 345 347 343 345 345 348 349 346 345 347 345 344 347 349 351 351
329 330 334 334 333 333 333 332 332 331 338 335 336 335 335 334 333 337 339 343 343 343 344 346 347 347 347 347 345 344 346 346 346 347 344 346 344 345 346 345 346 344 339 343 338 341 344 343 342
330 332 333 332 330 330 329 331 331 333 335 333 334 332 332 333 333 338 340 341 342 345 345 344 346 346 349 347 344 344 345 340 342 344 346 346 346 345 340 344 345 344 345 343 341 340 343 344 338
330 324 328 329 330 328 331 325 326 333 332 329 333 334 333 333 338 338 341 341 343 344 344 341 343 350 349 349 346 344 343 343 344 347 350 349 345 344 344 342 343 345 349 346 344 344 346 344 341
323 326 316 326 329 330 326 317 329 334 331 332 329 330 331 334 338 341 343 343 343 344 340 342 350 348 346 346 345 345 347 345 346 345 348 347 346 345 343 340 342 346 346 345 342 343 341 339 339
312 311 315 321 330 328 326 317 329 334 331 330 327 328 328 334 337 341 343 342 344 343 341 342 345 345 344 343 344 344 345 345 346 346 350 349 349 350 348 344 345 345 344 344 344 343 341 340 337
299 308 314 316 326 327 322 321 330 330 331 331 327 327 326 330 333 341 341 342 344 341 339 342 342 344 347 344 346 342 346 347 348 345 349 349 351 353 349 347 347 347 345 344 343 340 341 339 334
303 303 306 320 326 318 319 320 325 331 332 330 327 327 324 329 332 339 341 342 342 342 341 341 339 342 345 344 341 340 340 345 349 350 353 353 352 353 351 350 343 344 340 341 345 344 342 343 342
304 304 312 321 320 319 317 317 320 328 330 331 329 328 325 327 330 334 339 341 341 340 341 343 341 343 344 345 342 344 344 345 348 349 350 349 349 353 351 349 345 345 345 347 344 339 340 339 339
301 303 305 316 317 318 315 311 316 326 329 330 333 332 329 327 327 331 337 338 339 339 343 344 345 343 344 346 346 349 347 347 347 348 350 351 354 353 353 350 348 343 342 341 342 345 338 336 339
293 306 306 317 312 305 314 302 314 322 325 328 329 332 332 329 328 331 336 337 337 340 346 346 346 343 344 347 346 346 344 340 343 346 347 351 355 352 352 352 350 348 343 340 341 349 343 337 339
300 307 306 316 311 308 309 307 311 321 321 323 327 331 332 333 335 330 334 338 339 341 346 346 346 343 343 347 348 344 341 341 344 346 348 347 349 355 354 351 348 347 344 340 344 346 345 346 344
307 305 309 313 309 301 305 306 309 313 321 325 327 330 332 333 336 336 339 337 340 342 346 344 343 340 341 345 348 345 342 340 343 344 344 345 346 347 350 352 349 347 346 343 342 348 347 346 345
301 297 292 293 296 297 306 305 309 319 326 327 327 329 331 333 334 335 336 335 338 340 346 345 342 339 341 346 346 346 344 341 343 342 345 344 345 345 347 351 349 348 344 342 339 347 347 346 344
297 298 293 289 292 299 308 301 311 323 328 330 331 331 331 332 334 335 337 338 340 340 344 347 343 341 342 345 346 347 347 346 345 345 343 346 344 343 347 351 351 350 350 348 349 347 347 346 346
297 295 301 296 301 293 306 310 317 322 324 325 324 330 329 330 332 334 336 339 340 340 342 346 346 344 344 345 345 346 348 347 345 347 344 348 345 346 348 349 351 351 351 348 349 347 347 347 346
301 303 295 293 291 288 301 304 305 315 319 323 324 323 328 331 331 332 334 339 341 340 339 344 349 347 346 347 346 348 348 349 348 346 347 346 345 347 349 348 350 350 351 350 349 347 346 347 347
299 297 297 297 294 292 296 302 317 315 318 320 322 324 327 329 333 337 335 338 339 340 341 343 346 346 346 347 348 348 350 350 350 350 350 348 347 347 346 346 348 347 349 351 349 346 347 346 346
302 300 298 293 292 296 302 305 319 318 320 322 323 325 327 328 331 336 336 337 337 338 340 340 341 342 343 344 344 348 350 350 351 351 351 351 347 346 345 344 341 341 346 349 349 347 350 346 346

GFSSGP_sfc_thetae_093.txt.gz
Theta_e
351 348 345 335 320 316 313 316 324 322 319 322 322 321 319 323 320 311 334 339 350 350 354 355 361 361 359 358 358 358 361 361 361 361 362 361 361 362 362 362 361 363 363 360 360 358 359 358 358
346 345 338 329 315 308 311 323 321 325 327 322 326 328 326 324 334 333 339 349 352 351 353 356 361 359 359 358 357 357 358 360 362 361 362 361 361 362 362 362 362 362 363 360 361 360 359 358 357
345 343 327 322 317 310 312 322 325 328 327 324 330 334 332 328 336 338 346 351 352 351 353 353 360 359 359 360 361 360 359 359 362 361 362 362 362 362 362 362 362 362 362 361 361 360 358 357 356
338 337 334 319 313 320 322 326 329 327 330 333 332 326 335 340 339 345 350 352 350 351 352 358 361 362 361 361 361 361 361 359 360 361 361 362 362 361 361 362 363 362 360 360 360 359 358 356 358
338 334 319 317 316 322 328 330 329 325 327 329 330 326 328 339 347 348 348 349 348 349 354 356 364 362 362 362 362 361 362 361 361 361 361 362 362 362 361 361 361 361 359 358 359 359 357 358 361
330 331 313 313 317 325 329 332 331 328 329 329 328 327 328 342 343 344 346 346 350 352 354 355 362 362 362 362 361 361 361 362 362 362 361 362 362 362 362 361 361 360 360 359 359 358 358 358 358
326 323 318 317 319 322 327 334 329 327 326 326 331 323 330 336 340 342 342 345 351 353 352 354 355 358 360 360 361 361 360 360 361 361 361 362 362 362 362 360 360 360 358 358 359 358 357 357 358
333 328 319 320 318 319 331 333 331 328 326 334 333 323 324 333 341 344 343 345 348 350 352 350 351 353 352 353 360 360 360 359 360 361 361 361 361 361 362 363 363 359 358 356 356 356 356 356 357
340 323 316 320 320 323 332 325 334 335 330 331 334 332 334 340 344 341 342 343 345 349 347 348 349 349 349 352 355 357 359 358 358 359 361 355 350 354 355 360 362 359 357 356 356 355 355 355 356
329 321 320 328 328 326 330 328 327 328 327 328 330 334 338 340 339 338 338 338 341 344 346 348 347 347 348 354 350 347 350 349 350 350 348 347 347 349 355 357 361 359 359 358 358 356 356 355 347
330 323 327 327 330 332 331 331 330 325 324 328 327 332 336 336 336 337 339 340 340 344 347 347 346 347 348 348 347 347 346 346 346 348 346 345 347 350 349 348 349 343 351 348 348 348 345 347 347
325 329 329 331 332 333 331 334 326 329 329 335 335 337 337 336 336 337 338 339 341 343 345 346 347 346 344 347 346 345 345 346 345 345 345 344 345 346 346 347 345 344 344 341 343 345 345 347 350
327 329 334 334 334 334 334 332 329 332 333 336 336 337 336 336 336 339 340 340 342 342 344 345 346 345 344 346 344 343 345 346 345 344 344 344 343 343 344 344 344 341 339 342 339 340 342 343 339
331 330 331 332 332 332 330 329 330 330 334 333 334 334 335 335 335 338 339 340 341 343 343 344 345 345 345 345 343 342 344 343 344 344 343 344 344 343 340 342 343 343 343 343 340 338 343 343 335
332 326 328 328 328 329 331 325 325 332 333 331 332 333 334 333 335 336 340 341 341 343 344 343 344 345 345 345 343 343 343 340 341 343 345 346 345 342 341 342 342 343 347 345 342 343 343 339 339
325 325 317 327 329 329 326 316 328 333 330 329 331 332 331 331 335 339 341 341 342 343 342 343 348 346 345 345 343 343 342 342 344 345 347 346 345 344 340 338 340 345 345 345 340 340 340 338 338
312 313 315 320 329 327 323 317 328 333 330 328 329 330 330 331 337 339 342 342 343 342 340 340 345 344 345 344 343 343 343 343 344 345 346 346 346 346 343 340 343 343 343 341 342 341 338 338 336
299 308 315 316 324 325 321 316 326 330 329 330 328 330 329 331 334 340 342 342 342 340 340 342 343 342 342 342 341 342 343 344 344 345 347 347 348 349 348 345 343 344 343 342 343 340 339 337 334
302 303 310 321 324 320 318 319 324 328 330 329 327 324 327 331 338 340 341 342 342 339 338 340 340 343 342 340 338 338 340 342 345 344 348 348 348 351 348 348 343 342 338 340 344 341 339 340 340
303 303 315 319 322 321 318 317 322 326 327 330 328 325 329 330 335 337 338 340 340 338 339 338 339 341 342 341 340 342 341 345 346 347 349 350 350 351 350 345 341 343 343 343 344 342 336 336 338
298 302 312 313 317 320 316 311 315 323 329 330 330 331 328 328 333 335 336 339 339 337 339 338 339 341 344 343 343 345 345 345 345 345 347 347 348 351 351 348 345 342 342 340 341 344 340 334 337
294 305 306 315 310 305 316 301 312 317 323 327 328 330 325 327 333 336 336 337 338 338 341 339 341 340 343 345 343 342 341 339 340 343 346 348 350 351 349 349 347 344 340 339 340 348 340 337 338
300 308 304 315 307 306 308 305 309 320 320 323 328 330 331 328 332 335 336 337 339 339 341 342 341 339 342 343 344 342 339 340 342 343 345 344 348 352 350 349 347 345 341 338 341 345 343 344 342
306 304 307 309 305 296 304 306 307 313 319 324 327 330 330 328 331 336 337 338 339 341 343 343 341 339 342 344 345 343 341 339 340 342 343 344 344 347 349 350 346 345 344 342 341 346 344 344 343
298 294 291 293 294 295 306 304 308 318 324 326 326 329 330 332 333 335 335 336 335 339 342 343 341 337 340 342 344 344 342 341 341 342 344 342 342 344 346 349 347 345 345 342 339 344 343 344 342
294 294 291 289 290 295 305 299 306 321 324 329 330 330 330 330 334 334 337 336 336 339 343 342 339 337 338 341 343 345 344 341 340 342 343 343 343 344 346 348 349 347 347 345 341 345 345 344 344
294 292 298 295 293 293 300 306 315 323 322 325 326 329 329 331 332 334 337 339 340 338 343 343 340 339 339 340 343 343 345 344 342 343 344 343 346 345 344 347 348 346 346 346 346 345 344 346 344
298 300 294 291 289 288 296 299 303 314 319 321 322 324 326 329 331 334 336 339 340 338 341 344 344 342 342 341 342 344 345 346 345 344 345 343 345 345 343 347 347 349 350 348 345 345 345 343 344
296 295 294 294 293 290 293 298 313 315 320 320 321 325 325 329 331 332 336 339 340 341 342 343 344 344 343 344 342 342 345 346 347 345 346 347 345 344 346 346 346 347 347 348 346 345 345 344 344
299 297 296 292 290 295 298 299 318 319 319 321 322 324 327 330 333 333 335 337 338 339 340 341 343 342 341 341 343 345 346 347 347 344 347 349 347 343 344 345 345 345 345 347 347 347 348 345 344

GFSSGP_sfc_thetae_096.txt.gz
Theta_e
350 346 344 335 318 315 309 314 323 313 312 319 317 318 316 324 319 307 331 339 349 350 353 358 362 360 360 359 359 361 360 361 362 361 361 361 361 362 362 361 361 360 362 357 357 357 358 357 358
346 344 338 330 315 306 308 321 320 322 320 318 320 325 326 323 333 329 334 346 351 352 353 356 361 358 358 357 357 359 360 359 361 361 360 360 361 361 360 360 361 361 360 360 359 359 359 358 358
345 343 327 320 316 310 310 323 324 324 320 318 329 333 331 327 332 336 344 350 351 351 353 353 358 357 356 357 358 357 359 359 360 359 360 361 361 362 362 361 361 361 360 360 359 358 357 357 358
336 335 332 318 312 319 321 325 325 320 321 333 331 326 334 339 337 343 350 351 350 350 350 356 359 359 360 360 360 359 358 360 361 361 361 361 362 361 362 362 361 361 361 360 359 358 357 357 357
339 333 319 316 315 322 327 330 329 324 327 329 330 324 328 340 346 348 349 350 349 347 351 355 360 360 359 359 360 360 359 359 360 360 360 361 361 361 361 362 360 359 359 360 358 358 357 359 359
330 330 313 313 316 324 329 332 330 328 328 329 326 326 328 343 344 345 348 347 350 351 353 356 359 360 359 359 360 360 359 360 360 360 361 362 361 361 361 361 361 360 359 358 356 357 357 357 357
326 323 317 318 318 321 327 334 328 326 326 326 331 323 332 337 341 344 344 348 352 353 352 354 355 356 359 360 360 360 360 359 360 361 361 361 360 360 362 361 361 359 359 358 356 358 357 357 358
333 327 319 320 318 319 329 330 331 326 324 333 333 322 325 333 340 342 345 347 348 350 352 351 352 352 352 354 360 359 360 359 358 360 360 361 361 361 360 362 361 359 358 357 357 357 357 357 358
339 322 317 318 320 322 331 325 333 333 327 331 333 331 334 340 340 340 341 344 345 349 348 349 349 349 351 353 356 357 358 358 358 358 359 355 353 356 357 362 360 358 357 356 356 355 355 357 359
329 319 321 327 328 326 327 327 327 325 326 326 329 335 339 339 336 335 336 338 342 344 346 348 348 348 349 354 349 349 351 350 351 350 349 349 351 355 357 360 361 360 359 356 354 353 354 353 349
329 321 327 328 328 331 327 326 330 325 322 325 326 331 336 336 335 333 335 339 340 344 347 348 346 347 349 348 348 348 346 347 349 348 348 348 351 352 352 352 348 349 353 349 349 349 350 350 351
324 330 330 330 331 330 328 332 327 329 328 331 332 334 335 334 334 333 336 338 339 343 346 347 347 346 345 348 347 346 345 346 346 348 348 347 348 348 349 349 348 348 344 344 345 347 348 350 351
326 328 333 334 332 332 334 328 327 330 333 334 335 334 333 334 335 337 338 339 341 341 344 345 346 345 345 347 345 345 346 347 347 346 348 347 347 347 349 347 347 346 347 346 344 345 346 348 342
330 330 332 334 331 333 329 328 328 331 334 333 334 333 333 334 335 337 337 338 340 342 343 345 345 346 345 345 344 343 346 348 346 347 346 347 346 347 346 346 347 347 348 349 345 344 348 346 340
331 324 328 329 331 329 332 323 324 331 333 331 332 333 334 335 337 337 338 339 341 342 344 344 345 346 344 345 345 343 346 343 344 347 346 348 348 346 346 346 346 348 352 350 347 347 346 344 343
323 324 316 326 328 329 327 317 328 333 331 329 331 333 333 333 335 338 340 341 342 342 342 344 348 345 345 345 344 344 344 342 346 347 348 349 348 347 347 344 346 347 349 348 348 346 346 344 344
308 310 315 320 329 326 323 318 327 331 330 329 329 331 332 329 333 337 341 341 342 342 342 342 345 345 345 346 344 345 345 345 346 348 348 349 348 348 348 345 348 351 348 348 347 346 344 344 342
299 308 315 316 324 325 320 318 325 329 329 328 329 329 329 329 333 338 342 342 342 342 341 342 344 345 345 344 343 345 344 345 347 348 348 350 351 351 351 348 349 349 348 347 350 348 347 346 345
302 305 312 319 324 321 319 319 323 327 328 327 327 327 327 330 334 338 341 343 341 340 340 342 342 342 342 341 340 341 342 345 347 348 351 351 352 353 352 351 350 348 346 348 347 345 347 344 343
301 310 315 319 323 319 318 317 323 327 326 327 328 325 327 328 333 337 339 340 340 338 340 341 342 341 342 342 342 343 343 346 349 348 351 352 353 354 353 349 347 348 349 350 349 345 343 343 344
297 300 314 314 317 319 315 311 316 324 328 330 331 331 328 329 333 336 336 339 339 337 338 340 340 342 341 342 345 345 347 347 347 348 350 350 349 353 351 348 348 348 348 346 348 350 346 342 344
295 307 316 314 309 301 313 298 312 317 323 326 328 329 328 330 334 335 335 337 338 338 340 341 340 342 343 343 344 344 341 340 343 346 350 352 352 354 354 353 349 348 347 348 348 351 345 347 344
300 308 313 314 306 303 306 304 309 316 315 322 327 329 329 329 334 334 336 338 339 340 339 340 340 341 344 344 345 343 343 343 345 346 347 349 350 353 351 353 351 351 347 348 348 352 351 352 350
305 305 308 308 302 296 303 304 304 312 314 321 327 329 330 327 334 336 338 339 339 340 340 340 340 339 343 344 344 344 343 342 343 345 346 348 350 352 354 353 351 351 350 347 349 352 352 350 349
298 299 293 296 295 294 300 304 306 317 322 323 326 328 331 329 331 335 335 336 338 338 339 341 340 338 341 343 345 345 344 344 341 344 345 346 347 349 350 353 350 349 350 349 347 351 352 352 350
293 295 291 288 290 294 304 299 305 321 325 328 330 331 331 328 332 335 335 336 337 339 341 342 340 339 340 343 344 345 344 343 344 345 347 347 347 349 351 352 353 351 350 348 346 349 350 351 350
292 290 296 292 292 294 299 304 314 322 323 326 327 328 328 331 332 335 336 337 338 338 342 342 341 340 340 342 344 345 346 344 343 346 348 347 349 349 350 351 353 351 351 352 352 351 351 352 351
297 298 292 290 287 288 293 300 301 315 318 322 325 325 328 331 331 333 334 336 338 340 343 344 342 340 341 342 343 344 346 347 347 347 347 347 347 350 349 348 349 351 352 353 350 351 351 350 349
295 292 292 292 292 289 289 295 311 314 321 321 323 325 326 329 332 334 337 339 340 342 343 345 343 341 342 342 342 344 345 348 349 347 349 350 350 349 347 348 349 350 351 353 352 350 350 350 350
297 293 293 290 289 292 294 296 318 320 323 322 323 326 328 329 330 333 336 338 338 339 342 343 343 342 344 345 345 343 345 347 348 347 348 351 351 349 346 348 349 350 349 351 352 350 352 347 349

GFSSGP_sfc_thetae_102.txt.gz
Theta_e
351 349 353 345 329 325 318 321 321 317 318 324 323 321 324 331 323 317 339 346 349 350 354 358 360 360 362 361 359 361 361 362 362 362 362 362 362 362 363 360 360 361 360 361 360 359 360 360 356
347 346 347 340 324 314 318 324 317 320 322 325 324 326 329 328 332 333 339 348 350 351 353 356 360 359 359 360 359 360 361 362 361 362 361 362 361 361 362 360 360 360 360 359 360 360 358 359 359
347 347 340 327 326 316 318 324 320 322 323 323 326 332 334 327 333 337 346 349 351 353 355 360 359 358 357 359 360 359 361 360 361 361 361 359 360 362 362 362 361 360 360 359 359 358 359 360 360
346 345 341 320 319 325 326 326 326 321 322 333 334 330 334 336 338 344 349 351 352 354 354 356 357 357 358 357 359 360 361 359 360 361 360 361 361 362 362 361 361 361 360 359 360 359 359 359 359
351 339 326 319 321 327 331 332 325 320 331 333 334 330 328 341 346 348 351 351 350 349 350 355 360 360 360 359 359 360 360 361 361 360 360 361 361 361 361 361 360 361 360 360 360 360 361 361 361
332 337 317 317 321 328 333 332 327 326 335 335 332 328 334 345 346 349 350 349 346 346 353 357 360 360 360 360 360 360 361 360 360 361 360 361 362 361 360 361 361 359 359 360 359 359 358 358 356
329 324 317 321 323 327 330 333 327 330 332 332 335 326 337 341 348 349 350 347 345 350 354 356 358 360 360 359 361 360 360 360 361 360 360 361 361 361 360 361 361 359 359 359 358 359 359 358 357
334 331 319 324 323 324 333 334 336 334 332 339 337 327 331 340 348 350 349 344 351 352 352 355 355 357 356 358 361 360 361 360 361 360 361 360 361 361 360 363 362 358 358 358 358 358 359 359 359
338 326 322 324 325 328 335 331 336 338 334 334 336 335 341 346 348 346 342 344 347 350 352 352 354 357 359 359 360 360 360 361 360 360 359 361 356 355 358 360 359 359 357 356 355 356 358 358 359
333 326 324 331 330 331 333 333 333 332 332 332 333 339 343 345 345 338 338 340 344 347 349 351 353 353 355 353 359 360 357 359 359 361 357 353 356 358 356 360 361 359 357 357 355 357 356 355 354
333 326 332 329 331 336 333 332 334 331 329 334 333 336 340 342 339 336 339 342 344 348 348 350 353 353 352 354 353 353 355 356 359 359 355 356 355 355 353 355 355 355 355 355 356 356 355 356 357
327 333 331 331 334 334 332 333 329 329 331 337 338 339 339 337 335 334 338 343 345 347 348 349 351 354 353 352 349 350 353 354 353 355 360 358 354 354 355 354 356 359 355 358 358 355 358 356 358
329 332 331 332 334 335 334 330 329 330 336 338 337 337 335 335 334 336 340 344 346 345 346 348 352 356 358 355 350 351 352 353 353 354 358 357 354 356 356 358 358 359 358 355 357 358 355 355 353
331 333 331 330 332 334 331 330 330 332 337 335 334 333 334 333 334 337 340 343 347 346 346 349 351 356 357 356 357 354 354 355 353 353 357 359 356 360 356 357 356 358 358 358 359 359 354 352 351
332 328 330 330 333 327 332 326 327 333 334 332 333 334 335 337 338 339 341 343 346 346 348 350 352 356 357 357 357 354 354 353 352 354 359 360 360 362 363 357 357 358 362 365 362 359 357 350 351
327 329 321 328 332 329 327 320 330 334 331 332 333 334 336 338 339 342 343 344 347 346 349 351 350 353 354 356 357 354 354 353 353 355 358 360 362 362 362 357 356 360 361 361 355 355 350 352 352
326 319 319 322 329 325 320 320 327 335 332 332 334 335 336 339 341 344 345 346 347 349 350 350 352 351 355 359 357 357 359 356 356 356 358 362 361 360 362 359 359 363 359 357 356 353 354 352 352
317 317 319 320 323 319 316 318 325 333 332 331 334 336 336 337 340 345 346 347 348 351 352 352 352 356 358 358 358 355 356 357 357 356 357 362 359 360 362 358 362 361 357 356 356 360 356 352 351
318 318 317 321 323 317 316 318 324 329 332 332 333 334 336 337 342 346 348 348 348 350 352 354 354 359 357 354 351 351 350 354 355 357 361 362 362 361 363 361 361 361 358 360 362 359 356 349 354
320 319 318 321 324 323 319 319 324 327 327 331 332 334 335 337 340 343 347 348 347 350 352 355 356 360 359 357 358 356 353 353 354 357 361 361 361 360 361 365 361 363 357 363 362 361 352 352 356
314 315 319 318 321 323 317 313 320 326 328 330 332 336 337 337 337 341 345 347 349 349 352 354 358 360 361 361 361 360 360 359 355 356 355 359 361 361 361 362 363 363 360 355 363 360 361 347 355
308 316 319 321 316 309 321 306 314 323 326 326 326 332 336 338 340 341 343 346 348 350 352 355 358 359 361 364 359 362 353 354 353 356 356 357 359 360 360 362 362 365 362 363 362 360 361 360 350
307 314 315 317 316 314 316 310 315 322 323 328 328 332 334 338 339 341 343 346 349 351 352 354 359 360 359 363 362 361 355 352 354 356 359 360 360 361 360 362 365 365 359 362 363 364 361 359 353
317 317 315 314 312 306 312 312 313 317 322 327 330 333 334 336 339 342 345 347 348 351 352 353 358 361 361 361 361 360 357 356 353 354 353 352 357 356 358 359 361 364 364 363 359 363 358 364 360
313 307 303 302 303 304 315 312 315 325 328 331 332 332 335 336 340 340 343 345 348 350 352 352 356 358 360 359 359 359 357 357 358 357 351 357 354 354 357 361 361 359 362 363 362 365 362 361 361
311 307 301 299 299 304 313 308 316 327 331 332 336 336 337 336 339 340 343 346 348 350 352 352 354 356 358 357 360 362 359 352 351 354 357 353 358 355 363 360 360 362 361 362 364 359 356 360 356
309 307 313 305 310 305 310 314 322 326 329 331 331 333 335 335 337 340 344 347 348 349 352 353 354 356 357 356 359 359 357 357 356 358 362 356 359 361 363 362 360 362 361 363 364 357 360 362 361
309 311 305 307 300 299 306 309 313 322 325 330 329 333 334 335 336 338 342 346 346 349 352 352 355 355 355 355 356 355 356 358 356 358 356 360 365 364 363 363 362 360 361 360 362 359 360 362 357
306 305 306 307 306 300 300 306 323 324 328 330 331 334 335 335 338 338 340 346 349 351 350 347 353 355 354 354 355 356 355 355 358 356 356 358 359 363 363 365 364 363 361 362 363 362 360 359 358
310 307 307 301 301 305 306 310 327 329 331 332 335 336 337 337 339 341 340 341 345 347 347 346 349 351 354 355 356 356 353 355 354 356 356 360 358 363 361 363 365 362 358 362 362 359 356 358 355

GFSSGP_sfc_thetae_105.txt.gz
Theta_e
351 350 352 347 331 328 317 318 323 319 321 326 326 325 328 330 324 319 342 347 349 350 353 359 360 361 360 359 360 361 363 362 363 362 362 362 362 361 360 360 360 361 360 360 360 359 357 355 358
352 347 349 340 326 315 315 321 318 321 324 325 327 330 328 324 332 335 340 348 349 348 352 356 361 361 361 360 361 361 362 362 362 362 362 362 362 361 362 360 360 359 360 360 359 359 360 360 358
352 348 340 329 325 316 316 322 322 323 325 326 326 335 329 326 334 338 346 348 350 354 356 359 359 358 360 360 359 361 360 361 362 361 361 362 362 361 361 360 360 359 359 359 360 360 360 359 358
346 346 340 322 319 322 322 324 324 322 326 333 334 325 331 339 338 343 347 350 350 352 353 357 357 357 356 361 361 361 360 361 362 360 362 361 361 362 362 361 361 361 361 360 360 360 360 361 358
347 336 323 319 320 323 326 327 325 323 330 333 330 324 329 339 344 346 347 349 348 349 347 354 361 361 360 359 360 360 362 362 361 361 360 362 362 362 362 361 361 361 361 361 360 361 361 360 357
333 334 318 317 322 325 330 329 325 328 331 334 329 329 333 342 343 345 349 349 345 345 352 357 361 361 360 359 360 361 361 360 361 361 361 362 362 363 362 362 360 361 360 360 360 359 359 356 355
329 325 321 320 324 326 328 330 327 332 332 329 333 328 334 340 344 345 344 342 346 350 352 354 358 360 360 362 361 361 361 360 362 362 362 361 361 361 362 361 360 361 360 359 360 359 359 358 358
335 330 324 324 323 324 330 330 332 331 329 338 336 328 330 340 344 345 342 342 347 348 351 353 354 354 358 357 361 361 362 362 361 361 361 362 362 362 362 362 359 359 359 359 358 359 359 360 358
339 325 324 323 324 327 333 331 337 338 335 335 337 336 340 343 344 342 339 345 346 347 350 350 350 355 360 358 359 360 362 363 361 360 361 363 357 356 358 361 359 358 358 356 356 356 359 360 360
336 327 326 331 332 331 334 334 335 333 332 332 334 340 342 343 341 337 338 339 341 343 346 349 351 351 355 349 360 358 357 358 359 358 360 360 357 354 352 358 358 356 356 356 356 358 359 361 358
335 328 331 333 334 334 332 333 335 331 328 333 334 337 340 340 338 336 338 340 341 343 346 347 352 353 351 352 351 352 356 356 356 356 354 355 353 354 351 355 355 355 359 354 357 357 355 351 352
327 334 333 334 335 333 332 335 330 330 332 338 339 339 339 337 335 336 338 340 342 342 344 347 348 354 351 349 349 350 351 353 350 353 359 359 355 354 364 352 352 362 352 355 359 351 355 354 353
330 332 332 333 334 334 334 331 331 330 337 339 339 338 336 335 334 338 341 342 344 342 344 346 350 359 358 353 348 352 352 354 351 356 357 361 358 355 356 360 356 357 361 351 353 352 351 353 351
332 333 333 334 335 334 330 330 330 332 337 337 336 334 334 334 334 338 340 341 343 344 345 348 352 356 357 353 356 352 351 352 353 354 356 360 356 361 354 358 353 355 357 353 355 356 350 349 348
333 328 330 329 332 330 333 325 325 333 335 333 332 331 333 334 336 337 341 342 345 345 347 349 351 352 353 354 355 355 352 351 353 354 359 359 361 362 360 353 354 356 357 361 357 354 353 347 347
329 326 319 327 331 332 333 319 328 334 333 329 330 331 332 334 337 339 341 343 346 346 348 349 349 350 351 354 356 356 356 353 355 353 356 360 362 361 363 355 353 355 357 355 352 351 347 348 348
323 317 318 322 328 327 326 322 330 332 330 329 331 331 333 335 339 341 342 344 345 348 349 349 350 350 353 357 359 359 360 357 354 354 357 362 361 361 366 360 357 365 356 353 358 346 356 346 348
312 315 320 318 321 323 319 321 330 330 329 328 329 332 332 334 337 342 343 344 346 349 350 351 350 354 361 359 360 356 357 356 354 356 357 361 359 360 362 359 359 364 357 353 353 362 352 350 348
320 319 318 320 322 319 318 320 323 330 332 329 329 330 332 333 339 342 343 344 346 349 349 351 352 357 356 351 350 353 355 359 361 358 361 361 360 361 363 360 359 361 362 361 359 356 355 347 350
317 320 317 319 321 320 318 317 322 326 331 331 330 330 333 334 337 341 343 343 344 347 349 351 355 357 359 353 367 364 354 354 355 357 360 363 360 361 360 367 361 358 357 360 362 362 353 346 348
318 316 316 314 320 321 318 312 317 324 328 332 333 334 336 335 335 341 342 343 345 347 349 352 356 358 360 362 363 359 359 359 351 354 356 358 360 360 362 362 364 361 363 357 363 358 360 345 348
310 324 321 315 317 307 318 303 313 320 322 325 329 332 334 333 336 340 341 343 343 348 350 355 357 359 360 363 365 358 354 348 356 356 358 357 360 360 361 362 362 364 364 366 361 360 365 364 345
312 318 320 318 316 312 313 309 313 322 319 321 324 331 334 333 336 335 340 343 344 349 349 353 358 361 362 364 360 357 358 352 349 355 362 366 363 360 359 362 363 363 359 363 364 361 365 358 356
319 317 317 318 314 306 313 313 311 315 322 324 325 327 330 335 338 340 340 343 345 348 348 352 357 361 360 362 361 362 359 359 352 356 355 355 355 357 360 360 362 363 364 361 359 363 362 364 365
318 316 307 305 305 304 314 312 316 323 326 330 330 328 331 337 336 338 338 343 346 348 350 349 356 357 358 359 358 359 357 357 357 355 355 351 353 352 359 362 362 359 363 363 363 364 364 360 359
314 314 308 300 301 306 316 307 315 328 331 335 336 333 332 334 339 338 341 345 345 346 350 349 354 356 358 358 359 361 361 354 352 357 360 357 353 355 363 361 360 360 363 362 364 359 355 365 357
311 310 316 310 307 305 310 317 322 328 328 331 334 336 334 337 333 336 341 345 348 348 347 352 354 356 357 356 359 360 359 358 357 350 359 359 361 360 363 360 361 361 361 362 364 358 361 363 361
312 315 307 309 300 300 306 310 314 320 325 328 331 334 337 339 337 339 339 342 346 347 350 352 353 355 356 355 355 356 357 358 358 359 359 350 359 360 363 361 361 361 362 363 364 362 363 361 358
307 307 309 310 308 302 301 307 323 325 328 330 332 334 337 336 337 338 342 342 347 350 348 350 350 355 354 355 355 355 354 354 356 354 356 359 359 359 360 362 361 360 361 362 362 366 362 360 360
311 308 308 303 303 307 306 308 328 329 330 332 333 335 339 339 340 338 340 345 349 351 353 353 356 352 354 353 357 356 356 355 352 354 355 359 360 362 361 362 361 359 360 361 361 361 357 357 356

GFSSGP_sfc_thetae_108.txt.gz
Theta_e
354 348 350 343 327 327 315 316 321 318 320 325 331 329 325 326 323 317 341 347 349 348 354 357 362 359 361 361 361 362 362 363 362 362 364 363 363 360 360 361 361 361 361 360 358 357 357 360 359
351 349 347 341 324 313 313 319 318 320 322 330 333 329 325 323 332 336 338 346 348 348 352 355 363 363 360 362 361 361 361 362 362 362 361 361 364 364 363 361 361 362 363 360 361 360 358 357 358
348 350 339 329 323 313 314 319 320 321 324 331 327 331 328 327 335 338 345 346 349 350 353 358 362 362 361 360 361 361 361 362 361 360 362 362 362 360 360 360 359 359 360 360 361 360 358 358 358
344 344 340 320 317 320 320 321 322 323 330 329 327 323 330 337 337 342 347 350 351 354 354 358 359 359 362 360 361 360 361 361 361 363 363 364 363 362 362 361 361 361 361 360 360 361 359 357 356
344 336 322 318 320 321 324 324 323 325 330 326 328 324 328 337 344 348 348 350 348 347 347 354 362 360 361 361 361 361 362 361 364 364 364 364 362 362 361 361 361 361 361 361 360 361 357 356 354
332 333 317 315 318 322 324 325 328 329 332 330 327 327 330 341 343 344 346 347 344 345 351 356 361 361 361 361 362 361 361 363 366 363 362 362 364 363 363 361 362 361 361 360 359 359 357 355 354
329 325 317 320 319 324 323 328 328 330 329 326 332 325 332 338 341 345 346 347 348 349 351 354 356 360 362 361 362 362 364 363 362 365 364 366 364 363 362 363 362 360 360 360 360 359 358 358 355
334 328 322 323 320 320 325 330 333 332 328 335 335 325 328 337 343 341 347 345 347 349 352 351 355 355 355 357 362 361 364 362 362 365 364 365 364 363 361 363 363 360 360 359 360 360 361 360 358
338 325 321 322 322 323 328 330 335 338 332 332 335 334 337 339 339 336 343 345 347 348 350 351 352 355 360 359 359 362 362 363 363 361 365 361 357 356 357 362 361 359 358 358 360 361 361 360 359
333 323 324 332 330 326 330 332 333 330 330 331 332 336 338 338 336 335 337 340 339 345 347 350 352 351 353 352 359 361 360 357 358 359 357 364 358 357 351 359 361 359 357 360 363 363 362 360 357
331 324 329 332 333 333 331 331 334 329 327 331 331 332 335 336 334 335 340 342 342 342 345 346 354 354 353 356 356 356 357 358 356 363 353 361 354 353 353 357 354 356 360 353 357 357 356 356 356
326 333 329 333 335 333 329 330 329 329 330 336 337 335 335 334 332 335 337 338 342 343 345 346 345 355 346 355 350 354 355 354 354 359 367 366 353 359 352 352 350 361 356 344 350 355 357 354 349
328 332 332 334 336 333 331 328 330 330 336 338 339 336 333 333 334 337 339 341 340 342 345 348 355 358 363 353 350 353 353 356 353 351 356 364 353 355 353 336 350 359 355 355 357 358 354 355 354
332 332 332 333 333 333 328 330 328 332 336 335 335 333 334 332 333 337 338 339 341 343 347 351 352 359 358 365 361 352 357 358 354 352 351 349 363 360 356 355 356 349 361 361 352 355 353 354 349
334 329 330 331 334 332 333 325 323 331 334 332 332 332 332 332 335 337 339 339 341 344 350 350 352 351 358 363 359 350 354 355 358 357 349 350 366 370 356 354 359 361 362 362 363 361 353 353 351
329 328 320 327 331 332 330 318 326 332 331 329 330 329 331 332 334 338 340 341 344 345 350 351 347 350 353 359 359 359 351 354 350 356 362 364 369 367 363 361 352 362 366 364 360 360 354 346 354
325 313 318 320 328 327 328 321 328 331 330 328 327 328 330 332 335 338 340 343 345 348 350 348 353 348 354 363 362 354 364 356 360 360 362 366 366 368 356 360 364 368 358 350 353 352 355 351 347
313 311 313 317 323 324 324 322 326 329 328 326 327 328 329 331 334 338 339 343 347 349 351 346 352 354 362 358 367 366 355 361 359 361 356 369 366 367 368 362 366 358 356 352 357 360 355 360 345
318 316 315 318 322 320 320 320 325 329 328 326 327 327 330 331 337 338 341 343 345 348 350 350 353 358 354 357 346 360 346 358 357 356 365 369 368 369 367 366 361 351 349 365 364 363 360 358 358
321 316 315 317 322 320 319 319 323 327 329 330 331 329 331 333 335 338 340 342 343 348 351 356 353 358 360 357 354 359 358 358 358 362 366 361 365 369 365 368 358 356 362 366 367 367 361 355 354
317 314 314 313 319 320 317 312 318 323 327 329 333 335 334 335 333 337 340 339 343 347 351 354 356 360 362 364 357 365 355 365 356 355 361 360 362 365 355 369 358 366 364 362 369 367 362 355 353
313 321 319 316 314 307 318 304 311 317 320 325 329 332 332 334 336 338 339 339 342 347 350 357 359 360 361 359 359 351 358 351 357 362 359 364 365 363 366 369 369 366 352 354 367 364 365 361 355
314 322 319 318 314 312 311 308 313 318 315 320 326 331 333 334 335 337 336 343 344 345 349 355 360 360 363 356 366 361 362 348 350 351 353 370 370 368 361 368 368 369 366 365 367 363 365 363 361
321 319 317 314 313 305 311 311 308 313 316 320 324 327 332 336 336 339 339 342 346 345 349 355 359 359 361 360 360 361 352 348 350 346 348 359 359 362 367 363 368 370 368 359 364 368 365 364 366
316 314 306 303 304 303 313 311 312 319 323 323 322 326 329 335 335 336 339 342 342 344 348 353 357 356 361 360 359 361 362 353 346 349 351 343 353 352 364 370 369 367 368 365 367 368 365 364 361
311 311 305 298 300 302 311 307 315 322 327 328 328 329 329 330 334 339 338 341 344 346 345 353 357 356 358 359 362 365 363 360 355 352 351 343 346 349 363 367 366 367 368 367 368 366 362 364 363
311 308 315 307 307 304 308 313 322 323 325 328 330 330 330 333 332 336 339 340 342 348 347 348 356 358 358 358 361 363 366 364 363 356 353 347 351 352 355 363 366 365 365 368 366 364 360 357 351
312 315 306 307 300 299 304 306 310 321 324 330 329 330 332 332 335 339 339 339 342 346 348 347 351 356 357 357 359 359 361 363 364 355 349 346 344 352 344 350 365 367 361 362 367 361 358 362 362
306 306 309 309 306 300 299 304 321 321 327 328 333 332 333 332 333 340 342 344 342 343 344 349 354 356 355 356 357 359 357 359 361 361 358 345 349 355 346 358 369 367 362 361 366 364 363 360 363
310 307 308 303 303 306 304 307 323 324 325 328 331 334 334 336 340 340 342 346 346 345 349 346 353 354 354 354 358 359 358 358 357 361 358 366 364 367 365 366 365 366 365 367 364 360 360 354 358

GFSSGP_sfc_thetae_111.txt.gz
Theta_e
352 350 346 344 324 323 310 312 322 321 322 328 328 325 323 326 321 313 340 345 347 349 353 355 363 362 362 362 363 362 362 362 361 364 364 361 361 362 362 361 361 360 361 355 357 360 360 359 360
345 346 343 338 319 309 309 317 314 324 326 326 328 327 324 322 331 334 339 346 349 351 352 357 362 363 362 362 362 362 362 362 361 362 364 362 362 363 362 361 360 360 361 361 360 357 358 359 359
344 348 335 326 319 311 308 316 316 325 329 326 325 330 329 326 334 336 344 346 348 349 353 356 364 363 362 361 361 362 362 362 362 362 363 362 360 360 360 360 361 361 361 360 360 357 357 357 358
338 341 334 316 315 322 315 317 319 325 326 327 326 323 333 339 337 344 350 349 348 351 354 360 362 361 360 361 361 361 361 361 362 362 362 361 361 361 361 361 361 360 360 360 361 357 356 355 354
335 331 318 315 318 318 319 322 325 322 324 325 328 325 329 338 344 345 346 350 346 347 350 353 362 362 361 361 362 362 361 362 362 362 362 362 361 361 362 361 362 362 360 360 361 356 355 353 352
326 328 315 312 317 319 320 327 327 324 326 327 326 328 330 341 342 346 348 342 343 347 353 353 361 362 363 361 361 362 362 363 363 363 363 363 362 362 364 361 360 360 360 359 357 355 354 353 352
328 318 314 318 320 316 323 332 328 324 325 326 330 325 331 333 341 344 342 342 348 351 352 354 353 357 361 364 361 362 362 362 362 363 363 362 362 361 362 360 360 361 360 359 358 356 355 354 352
332 325 321 322 320 317 327 331 329 325 324 333 332 324 322 335 342 343 343 344 346 349 351 351 352 354 354 355 362 362 362 362 363 363 363 365 363 361 361 363 363 360 360 360 358 357 356 356 355
338 321 317 319 320 320 330 328 337 335 328 330 333 331 333 340 341 339 337 340 344 347 348 350 351 351 351 354 357 360 361 361 362 362 362 362 354 353 355 359 362 359 359 359 359 358 358 359 360
331 321 321 329 329 326 330 330 329 329 329 329 330 333 337 340 340 339 339 339 338 341 347 348 350 351 351 353 353 354 355 352 351 343 348 351 350 348 353 358 361 358 358 358 358 357 358 361 354
331 321 324 326 331 332 330 330 332 329 324 329 326 329 330 332 334 335 336 339 338 341 345 345 346 349 345 349 351 352 352 352 346 338 340 349 349 346 341 348 352 351 356 337 349 340 348 351 354
326 330 328 327 331 328 330 334 329 330 329 333 332 332 331 328 334 336 335 337 338 341 342 344 347 344 346 351 350 348 350 349 347 347 349 349 343 336 336 343 349 348 341 333 345 346 346 350 351
327 325 326 327 329 331 334 329 330 330 333 333 332 332 329 327 335 338 339 340 338 340 341 342 347 345 342 346 349 348 347 347 345 348 347 347 345 344 340 337 345 338 348 346 344 346 346 345 344
331 329 328 331 332 334 328 327 330 331 335 332 331 328 329 328 335 335 337 338 338 342 344 346 346 348 351 348 348 346 347 347 344 344 345 345 345 346 343 335 346 343 347 347 343 344 346 346 341
331 327 330 330 333 329 333 323 324 332 334 330 330 328 329 329 335 334 335 336 342 343 345 344 343 346 349 345 344 341 345 349 344 337 333 336 343 351 345 347 345 347 350 349 350 348 349 341 346
328 326 317 326 331 329 329 318 325 331 330 327 328 329 328 329 334 336 337 338 343 342 341 344 345 344 343 345 349 346 347 348 349 343 340 340 351 354 350 351 347 348 348 347 350 348 346 342 341
319 311 311 317 328 323 325 317 327 329 328 325 325 326 326 329 331 336 337 340 343 342 342 343 343 341 343 346 349 346 344 343 347 350 354 352 351 357 347 348 352 352 351 347 344 345 342 340 339
311 311 312 312 322 324 322 321 327 326 326 325 321 323 325 328 328 334 339 340 340 344 344 342 343 340 347 347 354 350 349 349 354 352 353 353 350 356 354 354 342 337 343 351 352 348 348 349 341
317 315 314 318 324 321 319 320 324 327 326 322 320 322 325 327 330 333 340 341 341 342 343 345 343 349 344 346 342 343 342 348 349 351 353 352 352 353 353 352 333 335 342 344 352 350 349 348 345
318 314 311 318 322 320 318 317 323 326 326 328 328 324 325 329 329 332 338 340 339 340 339 345 346 347 342 348 346 348 346 349 351 352 352 352 355 353 355 352 344 344 346 350 351 352 351 347 342
316 313 313 313 317 319 317 312 316 324 326 327 328 333 329 330 330 332 336 337 340 341 344 344 348 345 349 351 350 349 346 352 349 348 350 353 355 353 352 354 349 347 347 345 352 353 350 347 347
311 320 318 314 311 305 316 302 310 317 319 322 325 328 329 330 331 333 336 336 339 342 346 346 347 346 350 350 350 344 343 340 345 345 351 351 354 355 353 353 353 350 349 347 351 352 352 351 347
313 318 318 315 310 311 310 306 310 315 314 318 321 327 331 332 331 333 334 336 340 344 344 348 349 348 349 347 350 346 342 344 345 346 345 346 353 355 355 352 351 353 352 350 351 353 351 352 350
323 319 316 314 310 301 308 308 305 311 314 318 322 325 330 332 334 337 338 338 340 343 345 348 348 347 349 345 350 346 343 340 342 342 345 344 347 350 352 354 354 352 352 351 351 351 349 351 350
317 310 299 299 300 299 309 308 311 316 319 321 320 323 328 333 333 335 335 337 339 340 343 350 348 345 349 349 348 348 347 344 342 340 343 340 339 345 345 350 351 351 351 352 351 350 347 350 348
312 309 301 294 297 301 312 305 311 319 323 323 325 324 328 332 334 334 336 337 338 341 345 347 348 346 348 348 348 348 349 347 344 345 346 339 340 344 348 349 352 351 354 353 353 350 352 349 348
304 303 309 303 305 298 306 310 321 322 321 323 323 324 325 330 332 334 335 340 340 341 346 349 348 347 349 350 350 348 348 346 346 346 345 342 338 344 348 350 351 353 354 352 352 351 348 348 345
308 308 297 299 296 295 302 304 308 315 319 322 322 321 324 328 329 333 335 338 341 340 345 351 351 348 348 351 350 350 350 349 347 345 344 338 339 342 347 350 348 353 351 349 351 349 346 349 348
300 298 299 299 298 296 298 302 316 315 320 321 325 326 326 326 329 329 332 338 339 342 345 347 349 350 349 349 350 350 350 349 347 347 344 343 341 344 344 346 347 351 349 352 351 350 349 352 348
303 299 299 294 294 298 299 302 317 319 322 324 322 327 330 329 329 330 336 338 340 341 341 344 344 348 349 349 350 350 350 350 349 349 345 340 342 346 347 345 351 351 351 352 347 349 352 349 348

GFSSGP_sfc_thetae_114.txt.gz
Theta_e
351 350 348 342 321 318 309 315 322 320 320 327 328 325 320 324 318 311 336 343 344 348 351 356 363 362 362 362 362 361 361 361 362 360 360 361 361 361 360 361 361 358 358 360 360 359 360 360 359
344 346 344 334 315 304 309 320 318 320 324 327 327 327 324 322 333 334 337 346 350 350 351 355 362 362 362 362 362 361 361 361 362 360 361 361 362 361 361 360 358 359 359 358 358 359 359 359 359
343 349 334 322 315 309 306 321 320 324 328 327 326 330 327 326 335 337 343 349 350 351 353 354 362 363 361 362 362 362 360 361 362 362 361 360 361 361 361 361 361 360 358 356 357 358 358 359 357
337 339 331 317 314 320 313 320 323 323 327 330 329 324 332 338 337 341 347 349 349 352 353 360 361 362 361 361 361 361 361 362 362 362 361 361 360 359 359 360 360 359 359 359 355 356 356 356 356
332 331 317 315 317 319 321 322 323 321 325 328 329 324 328 339 343 344 346 350 350 350 353 357 363 362 361 361 362 361 361 362 362 361 361 361 361 361 361 360 360 360 360 360 354 354 353 354 355
327 325 314 309 315 319 322 325 325 325 327 330 328 327 329 340 342 346 348 348 349 347 350 354 361 361 361 362 362 362 362 362 362 361 361 360 361 361 361 360 359 358 358 357 354 353 351 352 352
325 318 314 316 319 318 321 327 323 325 326 327 332 325 331 336 340 345 343 343 348 351 350 351 353 357 362 361 362 362 363 363 361 362 362 362 361 361 360 359 359 358 357 355 354 352 351 351 351
331 322 316 320 318 317 328 328 328 326 324 335 335 324 323 336 344 339 341 347 349 351 352 349 350 353 353 355 362 362 361 362 363 362 362 361 361 361 360 362 362 358 356 355 355 355 355 357 355
337 320 316 319 321 322 328 323 333 332 329 331 333 331 335 340 340 339 341 342 346 348 349 349 350 350 351 352 357 360 363 362 364 362 363 360 350 352 354 357 359 357 357 356 357 358 358 357 358
329 319 320 326 327 326 325 329 328 325 325 327 328 335 338 338 337 337 337 338 340 343 346 347 348 348 350 356 352 352 354 352 352 352 351 349 347 349 353 355 357 357 356 356 358 359 358 360 353
330 320 322 324 327 331 327 324 330 325 323 326 326 331 335 335 334 337 338 339 339 343 346 346 348 347 345 351 350 351 349 347 338 338 345 348 347 341 339 346 347 347 353 336 345 345 345 348 350
323 325 324 325 327 328 327 331 327 329 327 331 332 335 335 335 336 337 337 338 338 341 344 346 346 345 344 349 349 348 349 346 344 344 347 346 335 334 337 344 341 342 343 333 338 342 340 344 348
323 326 326 329 328 329 331 332 329 329 332 333 334 335 335 334 335 336 338 339 340 340 342 344 344 342 346 347 347 346 346 345 346 346 346 343 336 333 337 340 340 342 337 342 338 342 344 346 348
329 327 326 327 329 333 330 329 329 329 332 330 329 327 329 332 334 335 337 337 338 339 339 342 342 344 344 343 346 345 344 342 343 344 346 345 343 340 341 337 337 337 342 346 345 343 344 343 339
329 323 326 328 330 330 332 323 323 329 329 327 327 326 328 335 336 336 337 336 338 339 342 341 343 346 344 345 345 344 345 343 340 336 341 340 345 346 343 338 337 344 345 348 347 348 345 345 342
321 325 317 325 328 330 329 315 326 329 328 326 325 327 331 334 334 336 338 339 341 341 340 341 345 344 343 343 341 342 346 344 343 333 336 340 351 349 345 345 343 346 349 348 345 342 342 340 340
318 311 312 316 328 325 325 318 327 330 327 325 323 324 329 331 333 334 339 341 341 340 339 338 340 340 342 344 345 342 344 344 345 342 343 345 349 351 347 348 343 345 344 347 344 343 340 337 339
310 310 312 312 322 324 321 319 327 327 327 325 323 323 324 330 329 336 340 341 340 340 339 339 339 337 341 344 349 343 345 347 347 347 350 350 349 354 352 351 342 338 343 345 349 345 348 343 339
317 315 314 317 323 321 319 319 322 327 327 322 319 322 325 328 332 337 339 340 340 340 339 339 336 339 343 342 342 340 340 344 346 348 350 351 349 351 349 348 331 342 347 347 347 349 350 343 340
318 313 311 317 323 321 318 318 321 324 326 325 328 320 323 323 331 334 335 338 340 339 339 341 339 342 340 342 343 342 344 345 346 349 350 351 351 351 353 348 344 345 347 346 349 349 347 347 343
316 313 312 313 316 319 317 313 316 321 326 327 327 328 325 325 329 332 333 336 338 337 340 340 343 339 342 346 347 344 345 347 344 345 346 350 351 351 351 350 348 346 343 342 348 349 348 344 346
310 319 317 314 310 302 316 302 311 315 318 323 324 325 327 326 332 333 333 334 336 338 342 342 342 342 347 348 345 341 339 338 341 342 345 348 352 350 351 351 351 347 347 345 348 352 349 347 343
310 320 316 314 311 308 309 304 308 316 314 319 321 325 328 328 332 332 334 335 338 341 342 343 342 345 345 345 345 342 340 340 343 343 343 344 346 351 351 349 351 350 348 346 347 347 349 348 346
319 317 316 313 310 300 306 307 307 308 314 319 323 324 328 329 331 334 335 337 337 343 342 344 341 344 344 344 346 344 341 341 341 341 341 342 341 345 348 351 350 349 348 347 348 348 348 348 347
317 307 300 298 299 298 309 306 309 315 318 318 320 324 326 331 331 333 332 335 337 339 344 343 340 342 342 343 346 345 342 340 339 340 340 340 338 343 344 346 348 349 349 349 349 347 344 347 345
311 305 301 295 297 301 311 303 310 321 321 322 323 326 327 329 332 332 333 336 337 339 344 344 342 341 343 344 346 345 345 343 342 340 342 341 339 342 345 348 349 349 351 348 350 346 349 345 344
309 304 310 300 303 299 304 308 317 320 318 320 321 324 324 327 331 332 334 336 337 339 344 344 344 343 343 343 345 344 346 345 343 343 343 341 338 341 344 348 348 349 350 350 349 347 347 347 342
309 309 297 297 294 293 301 304 306 314 317 318 318 321 323 329 331 333 335 337 338 340 344 347 346 345 345 344 346 345 345 345 344 344 343 339 337 339 341 346 347 347 351 349 348 347 344 346 345
298 296 295 297 300 294 295 300 315 315 319 321 322 322 322 328 331 333 335 337 339 341 345 347 347 345 346 347 347 345 345 346 343 342 341 338 335 336 340 344 344 346 348 349 349 347 346 348 346
299 295 295 292 292 295 298 297 317 319 320 323 325 328 323 328 331 331 335 336 338 342 345 347 347 346 346 349 347 346 346 346 342 342 343 342 337 340 342 343 343 345 348 349 347 346 352 347 345

GFSSGP_sfc_thetae_117.txt.gz
Theta_e
352 349 348 341 318 313 308 313 320 315 316 322 325 323 320 324 315 307 332 337 341 343 350 356 360 360 361 361 361 361 360 358 360 359 359 360 360 360 361 360 360 360 359 358 359 359 359 359 358
344 347 344 332 311 304 308 319 317 319 323 325 326 324 323 321 332 329 332 342 344 347 349 354 362 361 360 361 362 361 361 359 360 359 359 360 360 359 360 357 355 355 358 358 359 359 359 359 358
342 349 332 318 312 303 309 319 319 323 326 326 325 329 327 325 331 331 340 345 349 348 350 353 360 361 361 362 361 361 360 360 360 360 359 358 359 357 357 361 359 357 356 357 358 358 358 357 358
337 339 330 314 310 316 316 319 323 323 328 329 328 323 331 337 335 340 346 349 348 350 352 356 360 360 360 361 361 361 361 361 361 360 359 359 359 359 359 360 359 359 358 355 356 357 356 356 358
331 329 317 314 314 317 321 323 324 323 326 327 328 323 328 338 343 346 346 349 348 350 353 354 360 360 361 360 361 361 361 361 360 360 360 360 359 359 358 358 358 358 359 355 354 355 354 356 358
324 324 313 310 312 318 321 324 326 325 327 328 326 326 328 339 341 344 348 349 351 350 352 354 359 359 360 361 361 361 361 361 361 361 360 361 360 361 360 359 357 357 358 354 353 352 352 354 355
321 319 313 314 314 317 320 328 326 326 326 326 330 323 330 336 343 347 347 348 347 348 349 352 354 358 361 361 361 361 361 361 361 361 360 360 360 359 359 358 357 357 356 355 353 352 353 354 354
328 323 317 318 315 315 324 326 329 326 324 334 333 323 324 333 344 342 342 344 346 347 349 348 350 353 352 354 361 361 361 361 361 361 360 360 359 359 359 360 359 357 356 356 355 355 355 357 356
336 318 314 317 318 321 327 323 330 333 329 331 333 331 335 341 339 339 342 344 346 348 346 347 349 348 349 352 357 360 362 362 361 360 359 359 350 351 353 356 358 358 358 358 358 357 356 357 358
328 316 320 326 326 325 324 324 326 326 325 327 329 335 339 340 334 338 338 339 341 342 345 346 347 347 350 355 351 350 356 353 353 352 350 347 346 349 353 355 359 359 359 358 359 358 358 357 353
329 317 324 325 328 329 329 326 328 324 322 327 327 331 335 333 335 337 338 340 340 343 345 346 345 346 348 348 348 349 347 346 342 344 346 346 345 340 342 344 346 345 353 342 336 341 340 343 345
322 327 326 326 328 328 326 330 325 325 326 332 333 334 333 332 335 336 337 338 339 342 343 345 346 346 343 349 347 347 346 339 338 339 342 342 334 335 336 341 340 338 343 342 336 340 341 342 344
325 325 326 328 329 328 329 328 327 326 330 334 335 333 332 332 335 338 339 339 339 341 342 344 344 344 344 347 346 345 346 342 344 344 345 340 330 331 334 337 337 339 335 341 342 342 343 343 343
328 327 326 327 327 329 329 330 331 329 331 332 332 331 332 333 335 335 337 337 339 339 341 343 342 342 344 344 345 344 344 344 345 344 344 342 338 335 339 336 333 336 340 344 343 344 342 342 340
329 323 324 326 328 326 330 323 323 329 330 330 331 331 333 334 334 335 338 337 338 338 340 341 341 342 342 342 344 343 342 342 341 343 343 343 344 342 341 338 337 341 345 346 345 345 345 342 341
322 322 314 323 325 327 326 314 325 328 326 326 327 330 331 331 334 337 338 337 338 338 339 340 345 344 342 343 343 343 342 340 337 335 337 340 347 346 342 341 343 345 346 346 343 341 340 339 338
317 310 311 316 322 325 324 317 325 328 325 324 323 324 326 331 333 335 337 338 337 339 338 339 341 340 342 341 340 341 343 344 340 334 339 343 350 349 344 345 342 341 342 346 347 343 338 336 337
308 310 312 312 318 323 319 320 326 326 325 322 321 326 328 329 330 335 337 339 339 338 337 338 338 339 342 343 341 341 342 342 344 343 345 347 348 351 349 346 337 338 343 347 347 345 346 338 336
316 314 313 316 321 320 318 318 323 326 327 322 318 322 326 328 331 335 338 340 338 338 336 336 334 337 341 342 340 339 339 343 343 347 348 348 348 350 349 339 334 344 345 347 349 348 346 342 339
315 313 311 317 322 319 317 316 323 324 326 324 324 318 325 324 330 335 336 337 337 337 337 336 334 339 340 340 341 339 341 342 344 347 347 348 349 351 350 346 342 343 342 346 347 347 344 344 343
313 312 311 312 316 318 317 313 318 322 325 327 325 326 327 327 329 333 334 335 337 336 336 337 336 340 340 342 345 342 344 344 343 343 343 346 348 350 351 348 345 344 341 344 346 347 345 340 339
309 318 315 313 309 303 316 301 312 318 317 321 323 324 323 327 331 333 333 333 336 337 339 337 339 337 342 344 342 339 338 337 339 340 344 346 349 348 350 349 348 345 345 344 348 349 346 344 339
308 318 315 313 309 306 308 303 307 317 316 318 320 323 324 327 330 330 332 334 337 339 339 340 339 341 344 344 342 339 338 339 339 341 341 343 345 348 351 348 348 346 345 346 346 346 345 346 341
320 314 313 312 306 298 305 305 305 310 315 319 320 324 325 327 330 331 333 335 336 338 340 340 339 340 342 343 342 341 339 339 339 339 340 341 341 344 347 350 348 347 345 346 346 345 346 345 346
316 308 298 297 298 297 309 305 306 314 317 320 320 324 326 327 330 330 331 332 334 337 339 340 339 339 340 344 343 342 340 341 339 339 339 339 339 342 343 346 347 347 346 347 347 345 343 345 344
309 305 299 293 296 300 310 303 307 319 320 321 324 326 327 329 330 331 332 333 334 338 338 340 338 340 339 341 343 343 342 340 339 339 339 339 340 342 343 345 347 348 348 345 347 345 347 344 343
308 301 306 302 298 298 305 309 314 319 318 319 318 323 325 328 330 331 332 334 335 338 339 340 338 339 341 340 342 342 343 342 341 341 339 340 340 341 342 347 347 348 347 348 347 345 345 344 341
309 310 299 299 292 291 300 303 304 312 314 316 318 320 324 328 330 330 332 335 336 338 341 342 341 339 342 341 342 342 343 344 342 342 341 341 338 337 342 345 346 346 346 349 347 346 344 344 342
297 296 295 297 297 292 293 299 313 312 317 316 318 322 325 327 330 331 332 335 337 339 341 342 342 341 341 341 342 341 343 343 342 341 341 341 338 336 337 338 344 343 346 347 345 346 345 343 344
301 294 293 291 290 292 294 293 314 318 319 323 323 325 325 327 330 332 333 335 337 337 339 342 343 343 343 344 343 343 343 344 341 340 340 339 336 334 335 339 342 342 345 343 344 345 347 345 343

GFSSGP_sfc_thetae_120.txt.gz
Theta_e
348 347 348 339 314 311 307 311 317 313 315 320 323 320 320 324 315 307 330 338 341 343 350 355 358 359 360 360 361 360 359 361 361 360 360 360 360 360 361 360 358 359 359 359 360 359 360 359 359
348 346 343 330 308 303 307 318 312 316 320 322 324 325 323 320 329 326 329 341 342 345 350 353 358 359 360 361 360 360 359 360 359 360 360 360 360 360 358 355 358 359 358 359 358 358 358 358 357
341 346 331 316 309 304 307 317 318 322 325 325 324 329 327 324 328 329 336 342 347 347 350 353 359 361 360 360 360 359 360 360 360 360 360 360 360 357 359 360 358 357 358 359 359 359 358 359 359
337 339 327 311 309 312 315 319 322 323 327 329 327 323 330 333 334 338 342 347 346 348 352 356 359 360 360 360 360 360 360 360 360 360 360 360 358 359 359 359 359 357 356 357 357 357 358 359 360
331 328 317 313 311 317 320 323 324 323 325 325 327 322 326 337 341 344 345 347 346 348 350 354 359 359 360 360 360 360 361 360 359 359 359 358 359 359 358 358 359 359 356 356 356 356 357 358 360
322 323 313 307 311 318 321 325 326 325 326 327 325 325 327 340 341 343 347 347 350 349 351 353 358 359 359 360 360 360 360 360 360 360 358 358 358 359 359 358 358 359 355 354 354 354 355 356 359
319 319 314 312 312 315 320 328 326 324 324 324 330 322 331 335 342 346 347 347 348 350 351 351 354 355 360 361 361 360 360 360 360 359 359 359 359 358 359 358 357 357 355 354 353 354 355 355 355
325 323 316 316 312 313 323 326 330 326 324 333 333 322 324 333 344 343 344 344 345 346 349 349 351 353 353 353 360 360 360 360 360 360 359 360 359 359 360 359 359 357 356 355 354 354 355 357 357
335 317 314 317 316 318 325 324 330 333 328 329 332 330 334 341 340 340 340 342 344 346 347 347 349 349 349 351 357 359 360 361 360 358 359 355 352 353 354 359 359 359 359 358 357 358 359 359 357
325 316 319 325 326 324 324 325 327 326 326 326 328 335 339 337 338 337 336 337 340 342 344 346 348 349 350 356 352 351 357 355 354 352 349 349 350 354 354 357 358 357 357 354 350 356 351 347 349
328 318 324 325 327 329 328 325 328 324 322 326 326 331 335 333 336 336 337 338 340 342 345 346 346 348 348 348 349 349 348 348 347 349 348 348 346 342 345 346 346 343 350 346 340 342 343 344 347
322 328 327 328 328 327 327 329 323 325 326 331 333 334 334 330 335 336 337 338 339 341 344 346 346 347 346 349 348 347 344 340 342 344 347 345 339 338 339 343 343 343 340 343 344 343 346 347 347
325 325 327 329 329 328 330 327 325 325 332 334 334 334 332 330 335 337 339 340 340 340 343 344 345 345 345 348 347 347 346 340 342 343 346 342 337 335 338 340 341 342 341 345 346 347 347 347 347
327 326 325 327 327 329 325 329 327 327 333 331 332 331 331 332 335 337 338 337 338 341 342 344 344 345 346 346 346 346 347 346 347 347 348 343 339 335 342 341 340 342 346 348 347 348 348 346 346
327 321 324 326 327 325 328 323 325 328 331 329 329 330 330 332 335 336 338 337 339 340 342 342 343 344 344 345 346 346 344 346 346 345 346 346 347 344 345 344 345 347 350 351 351 349 348 347 345
323 321 314 322 324 327 326 312 325 329 329 327 328 329 330 332 334 338 338 338 339 339 340 342 346 343 343 343 344 345 343 344 344 342 345 344 348 348 347 347 349 351 351 352 351 347 345 344 346
315 308 311 315 323 323 323 314 324 329 328 325 327 328 330 331 332 335 339 338 337 338 339 340 342 343 343 344 344 344 343 342 340 337 341 345 352 351 350 350 347 346 350 352 352 349 344 343 344
306 308 310 310 318 322 319 318 323 325 326 325 326 328 328 329 331 335 337 338 337 339 339 340 341 341 342 341 341 343 344 346 343 341 345 348 352 352 352 347 344 348 352 353 353 351 347 345 345
314 314 310 316 320 319 317 319 322 324 324 322 318 321 324 328 332 335 337 338 338 338 337 338 337 340 342 342 340 341 341 344 345 347 350 351 352 353 348 337 345 351 352 352 354 352 350 348 346
315 312 311 317 321 319 317 317 323 324 325 323 319 322 325 327 327 332 335 337 337 336 337 337 337 339 342 343 342 342 343 345 346 349 351 353 350 353 351 346 348 350 350 352 352 351 348 345 343
314 312 311 312 317 318 316 312 318 324 326 326 325 322 326 325 327 331 334 335 336 335 336 336 335 339 342 344 343 344 346 346 346 348 349 351 353 353 354 350 348 349 349 351 353 352 350 344 343
309 315 316 313 308 304 316 302 312 319 320 321 322 323 323 326 329 332 333 333 335 336 338 337 336 339 341 345 343 343 341 340 343 344 347 350 353 353 353 353 351 352 351 353 355 353 352 349 343
309 318 314 312 308 306 308 305 307 317 316 319 320 323 324 326 329 331 333 335 336 337 338 338 337 338 342 344 344 342 341 342 344 344 346 349 350 353 354 353 352 352 352 353 353 353 353 351 347
318 312 311 309 305 297 305 305 304 310 315 320 322 322 325 324 329 332 334 336 335 338 339 339 338 338 343 344 343 342 341 341 342 343 343 345 347 349 352 353 352 353 351 353 352 352 352 352 351
311 303 295 293 297 298 308 305 304 312 318 322 322 321 325 325 328 330 330 333 334 336 338 339 338 338 342 343 343 343 342 342 343 343 343 343 344 346 348 352 352 351 352 352 353 352 350 351 351
306 301 296 292 295 298 310 302 305 316 321 325 326 325 326 325 328 329 330 332 333 336 338 339 338 338 341 342 343 343 344 343 343 343 343 344 344 346 348 349 351 352 353 351 353 351 351 351 350
307 300 305 298 302 298 302 308 312 318 317 319 323 323 325 327 328 329 331 332 333 336 337 339 338 339 341 341 343 343 344 343 342 343 344 343 344 344 347 348 351 351 352 353 352 350 350 351 349
308 311 298 298 293 292 297 303 302 310 314 316 316 320 324 328 328 330 331 332 334 337 338 340 340 339 341 341 342 343 344 345 345 344 343 342 344 344 345 347 350 350 351 353 352 352 352 350 348
301 302 295 299 298 294 291 293 313 314 314 316 318 321 321 327 328 330 332 333 335 338 339 339 339 339 340 341 342 343 343 345 346 345 345 344 344 341 342 345 347 347 349 352 352 351 351 349 350
301 295 294 293 291 292 292 292 318 321 322 321 322 322 322 328 330 331 332 333 334 337 338 340 340 340 340 342 342 343 343 345 344 343 344 345 343 342 341 341 343 346 347 351 349 350 353 349 348

GFSSGP_sfc_thetae_123.txt.gz
Theta_e
350 349 351 346 323 321 312 313 320 317 318 324 326 322 322 326 318 314 338 343 343 345 352 352 355 355 357 359 361 360 360 359 360 361 361 361 361 360 360 359 359 360 360 360 360 360 360 361 361
351 346 346 339 318 310 312 319 316 320 323 327 327 327 325 321 330 331 335 344 345 349 353 354 358 358 359 359 360 360 360 360 361 361 361 360 360 358 359 360 360 360 359 359 359 358 357 358 359
349 347 336 327 319 311 313 320 320 323 326 327 326 331 328 324 330 333 340 345 347 352 355 356 358 359 359 359 360 360 360 361 360 361 360 360 359 361 360 358 358 360 360 360 358 358 359 359 359
342 344 334 320 314 317 319 322 325 325 327 330 329 323 330 334 333 338 344 346 347 352 357 357 359 360 360 360 359 361 360 360 361 360 360 358 360 359 360 359 357 359 359 359 359 360 361 361 360
337 334 323 317 315 319 324 326 327 325 326 327 328 322 326 340 343 343 345 346 348 351 354 356 360 360 360 359 360 359 360 360 360 359 360 360 360 360 360 359 359 357 357 358 357 359 359 360 358
330 330 316 310 315 321 325 328 328 327 328 327 325 325 330 344 341 343 346 347 351 350 353 356 358 359 360 360 361 361 360 360 359 359 359 359 359 359 359 359 359 356 356 356 356 357 358 360 357
327 326 316 314 316 318 322 330 327 326 326 325 329 324 332 340 344 346 347 349 349 349 352 356 354 359 359 360 361 361 360 359 359 359 359 358 359 360 359 358 357 355 354 355 355 357 357 357 357
331 329 318 317 316 316 326 329 331 327 326 334 333 324 326 340 347 348 347 347 350 351 351 354 357 358 358 361 360 361 361 360 359 359 360 359 360 360 360 360 360 356 355 353 354 356 357 357 357
336 323 317 316 317 319 328 326 331 334 329 331 334 332 337 344 346 343 344 347 350 350 352 356 356 358 359 361 360 360 361 360 359 360 360 360 358 357 357 360 360 359 358 357 356 355 358 357 356
327 321 320 325 327 323 326 326 327 326 327 329 332 338 342 343 342 339 340 341 343 345 350 354 355 354 358 360 362 362 362 362 362 360 360 359 359 360 359 357 354 357 355 353 348 351 349 350 354
328 320 325 327 329 330 326 327 329 324 323 329 329 334 338 339 339 341 341 340 339 342 349 352 355 357 357 360 360 360 360 359 359 359 358 358 356 354 355 355 351 353 348 351 350 350 352 350 353
324 328 328 328 329 330 327 330 327 327 327 334 335 337 338 338 339 340 337 338 341 344 347 352 353 356 356 356 358 356 354 354 353 356 358 357 351 351 353 353 352 353 353 356 358 356 358 358 357
326 327 329 329 330 331 331 328 325 327 333 335 337 337 337 338 339 339 340 342 345 344 347 350 353 356 357 357 357 353 352 351 352 355 358 356 351 350 350 351 352 354 356 358 359 360 359 358 355
328 328 326 328 329 330 327 328 328 330 334 334 335 335 336 337 338 340 342 342 343 344 347 350 351 355 356 355 357 355 355 352 356 356 358 355 351 348 351 354 355 357 360 361 361 360 359 356 353
330 323 325 326 327 325 330 325 324 332 333 332 334 335 336 337 340 340 342 343 345 346 349 349 350 353 355 356 357 358 360 358 357 357 357 356 357 358 358 357 357 360 363 364 364 360 360 353 350
323 321 317 320 325 326 328 318 329 333 331 330 332 334 335 336 339 342 343 344 347 346 348 351 348 350 353 355 357 357 358 357 357 356 358 355 358 359 360 358 359 361 365 365 362 357 352 350 351
320 311 314 315 323 324 325 319 327 332 330 329 332 333 334 336 338 342 344 345 346 348 349 350 352 352 353 356 355 356 355 355 355 354 355 357 361 360 361 360 357 361 364 364 362 357 355 350 350
311 312 312 312 317 322 320 320 326 330 328 328 331 333 334 334 337 341 344 345 347 348 351 352 352 354 356 354 355 355 353 354 352 350 354 358 362 361 363 359 357 363 363 361 359 359 357 355 355
314 315 312 314 319 317 318 321 324 328 328 328 330 332 333 334 338 341 343 345 345 347 348 351 351 353 353 351 350 350 349 352 351 353 357 359 362 363 362 356 360 364 362 363 364 361 359 354 356
316 315 313 317 320 318 317 318 324 326 326 329 330 331 333 334 336 339 342 343 344 346 348 350 351 353 354 352 353 353 353 354 355 356 360 361 359 362 362 358 361 362 362 363 364 363 358 354 357
316 314 313 314 319 319 317 313 318 324 328 328 330 331 333 334 334 337 340 342 344 345 348 349 351 353 354 355 353 354 355 356 354 358 363 359 361 361 362 360 361 361 363 360 363 362 360 351 352
310 318 317 315 314 308 317 304 313 319 322 326 327 327 330 333 336 337 339 341 343 345 348 349 350 352 353 356 354 355 350 349 356 363 362 361 362 361 361 361 361 364 362 364 364 362 361 360 352
312 320 317 315 313 312 311 307 312 319 319 324 327 329 329 332 334 335 338 341 344 345 346 348 350 351 353 355 356 355 353 352 356 355 357 362 362 361 361 363 362 362 361 365 364 364 363 359 356
322 317 316 314 312 303 309 309 308 314 320 322 327 329 331 331 334 336 340 343 343 345 345 346 348 350 352 354 356 356 355 354 351 353 352 354 357 358 362 361 363 365 361 362 362 364 362 363 361
317 313 305 302 302 302 310 307 310 317 322 326 326 328 332 332 333 336 338 340 342 343 344 346 347 348 350 352 355 355 356 356 356 355 352 354 353 354 360 363 362 365 363 362 364 363 362 361 359
313 309 303 295 299 303 312 306 312 321 322 326 331 329 332 332 333 335 338 340 342 343 345 346 346 347 350 351 354 356 358 354 354 356 354 353 353 354 360 359 362 361 363 362 363 360 359 360 358
312 307 312 305 307 303 306 312 318 321 321 325 326 328 328 331 333 334 338 341 342 343 345 346 347 348 349 350 354 355 356 356 354 357 356 353 356 355 356 358 358 360 361 362 362 357 359 361 360
316 317 306 307 297 294 302 306 309 317 320 322 324 326 328 331 331 332 334 339 342 343 345 347 348 347 348 350 353 353 355 356 357 356 355 356 355 356 356 356 357 359 361 361 362 362 361 361 358
311 311 308 307 304 299 298 301 318 318 322 322 323 327 330 330 333 334 333 339 342 343 344 345 347 347 347 349 351 353 353 354 355 355 356 357 356 354 354 355 356 357 358 360 361 362 361 360 360
311 310 311 304 300 304 303 302 321 322 324 326 325 327 329 332 334 334 335 337 341 342 343 343 346 347 348 350 351 351 352 354 353 354 355 357 356 356 355 353 353 354 356 359 359 358 358 358 357

GFSSGP_sfc_thetae_126.txt.gz
Theta_e
350 352 357 350 327 322 315 317 323 321 321 328 329 326 325 328 323 319 338 339 343 346 350 351 354 355 353 357 359 359 359 358 360 361 360 361 361 360 360 361 361 361 360 361 360 361 362 361 361
352 350 352 343 321 313 315 322 319 323 326 330 329 329 326 324 333 335 338 344 346 348 350 352 357 357 355 359 359 360 359 359 359 359 360 360 360 361 361 361 361 359 359 359 358 359 360 361 361
352 351 341 329 322 314 315 322 324 326 329 328 327 333 329 327 335 338 343 345 349 351 352 355 358 359 358 359 360 360 360 359 360 361 360 360 361 361 359 360 361 360 359 359 360 361 360 360 361
347 348 339 324 317 322 322 325 327 326 330 331 330 326 332 337 336 341 344 346 349 351 352 357 359 359 360 359 360 360 359 359 360 359 360 361 360 360 359 359 360 360 360 360 361 361 361 360 361
344 340 327 319 320 324 327 328 330 327 328 330 330 324 329 340 342 343 345 347 347 350 351 356 359 359 359 360 361 361 360 361 360 360 360 360 360 360 360 359 358 359 359 359 360 361 360 359 357
336 335 320 315 320 325 328 330 330 329 331 330 328 328 333 342 341 343 347 348 348 347 351 353 359 360 359 360 360 360 360 360 361 360 360 360 360 360 361 359 357 358 358 358 358 360 360 359 358
332 331 318 318 320 323 326 332 328 328 328 328 331 326 336 338 343 345 347 349 348 347 350 351 353 358 359 361 361 360 360 359 359 360 360 360 360 359 358 357 356 356 357 357 358 358 358 359 359
338 333 321 320 319 320 329 331 332 329 328 335 333 325 330 340 345 347 348 347 346 346 349 350 353 356 359 358 360 361 360 360 359 359 361 360 360 359 358 360 357 355 354 355 356 357 358 358 359
338 326 320 319 320 324 331 328 334 335 331 331 334 332 338 344 346 344 344 345 345 346 349 351 353 356 360 361 360 360 359 360 360 359 358 357 352 353 355 360 359 358 356 355 355 357 357 356 357
334 326 324 329 329 326 329 329 330 328 328 331 332 338 342 343 342 340 339 340 340 344 348 351 352 353 356 356 361 362 357 356 355 355 357 353 356 358 355 357 356 357 355 352 353 353 352 353 354
332 326 328 327 331 330 329 328 331 327 324 330 331 335 338 340 341 339 339 340 339 345 349 351 354 356 355 357 356 354 353 353 355 359 357 357 356 357 356 356 352 354 352 352 351 352 354 354 355
327 332 331 329 332 330 328 331 324 328 328 335 336 338 339 339 338 340 339 338 339 345 347 350 353 356 355 354 351 351 351 351 350 356 359 357 353 354 358 353 354 358 355 357 360 355 360 360 359
329 331 332 331 332 332 333 329 328 330 334 336 338 338 336 338 340 342 340 341 342 343 347 350 354 357 357 355 350 349 349 349 351 354 357 357 354 353 354 356 358 361 361 357 358 359 357 357 351
332 332 329 330 329 332 329 330 329 332 335 334 334 335 338 338 339 341 341 341 343 344 347 351 353 357 356 356 358 354 352 353 353 354 356 358 355 356 358 358 356 359 363 361 361 362 357 353 349
333 327 329 327 327 329 333 327 327 335 334 333 333 335 337 339 341 341 344 343 344 346 348 350 352 355 356 357 357 354 354 351 351 353 359 359 363 361 366 358 360 361 365 368 363 359 358 350 347
326 326 318 326 327 327 329 319 331 336 333 331 332 334 336 339 340 343 344 345 345 345 348 350 349 352 356 357 357 353 355 355 354 354 356 359 361 364 363 358 360 364 367 366 360 353 351 350 347
323 317 317 320 328 325 325 321 333 335 333 330 332 334 336 338 341 344 344 345 344 348 352 350 352 353 355 359 356 356 358 356 356 356 357 362 362 362 363 361 360 369 366 361 356 354 351 350 349
313 315 317 317 322 324 321 322 330 334 332 332 332 332 335 337 339 344 344 345 346 350 353 354 354 356 358 357 359 356 354 355 355 354 356 360 361 364 364 359 365 365 363 358 359 360 360 357 354
314 317 316 319 322 317 317 323 328 332 332 328 331 332 334 335 341 344 344 345 347 348 350 354 355 358 360 354 351 350 349 352 351 354 357 360 363 365 366 361 362 365 360 366 366 360 359 355 362
314 315 316 320 322 318 316 322 325 329 332 328 332 331 333 335 338 342 343 345 346 348 350 353 355 357 360 355 355 354 356 352 353 356 360 360 360 364 364 365 363 363 360 366 368 366 356 358 363
313 314 314 314 321 322 316 314 319 328 331 333 335 335 334 334 335 340 343 344 345 347 350 352 356 358 361 360 357 358 361 361 355 356 355 359 361 360 366 365 364 365 363 358 365 365 362 352 359
309 319 317 316 317 309 317 305 314 326 328 330 332 335 334 334 336 339 342 344 345 347 350 353 356 358 358 359 358 358 350 347 350 354 355 358 361 361 363 363 366 367 361 364 364 364 364 364 354
313 321 318 317 316 315 313 310 314 321 321 325 331 334 334 335 335 337 341 345 346 348 349 352 356 358 359 360 363 353 352 351 352 352 358 361 362 363 362 363 364 364 359 366 364 362 368 362 356
323 318 317 317 316 308 314 312 313 317 321 324 331 333 334 335 335 338 341 345 346 348 349 351 355 357 359 359 357 356 356 354 350 353 353 352 353 356 362 362 365 366 363 363 362 365 363 362 362
320 316 304 304 305 308 315 313 315 319 325 326 329 333 335 337 336 337 339 341 345 347 349 350 354 355 356 357 356 356 357 357 356 356 351 355 352 353 359 362 362 358 360 360 363 366 363 362 359
314 312 304 297 301 307 315 308 315 323 325 329 331 333 336 336 337 336 339 342 346 347 349 350 351 354 355 354 356 358 361 355 354 357 352 355 353 355 360 361 361 362 362 362 363 360 359 360 358
312 308 314 308 309 306 310 313 322 325 325 328 326 333 334 335 337 336 339 343 346 348 349 351 352 354 354 352 354 357 359 359 356 359 362 356 362 358 362 363 362 362 362 363 363 359 359 361 361
318 318 306 308 300 298 303 308 309 321 322 325 326 328 332 336 337 336 339 342 346 348 349 351 352 353 353 352 353 354 357 359 360 363 359 361 360 362 362 361 361 362 363 363 365 360 361 361 358
315 314 312 312 309 300 302 306 320 324 326 325 326 329 332 334 337 338 340 342 346 347 348 349 351 352 352 352 353 354 354 355 359 359 362 361 362 362 361 361 360 361 362 362 365 363 360 359 360
317 315 313 305 304 308 305 305 324 326 328 328 328 328 331 335 336 338 336 343 345 347 348 348 351 351 352 353 354 354 355 356 355 358 358 361 362 363 362 360 360 360 360 362 362 360 358 358 357

GFSSGP_sfc_thetae_129.txt.gz
Theta_e
346 354 356 350 332 324 313 317 323 321 322 328 331 326 325 329 323 318 339 340 341 342 348 350 354 353 357 357 359 358 359 360 360 360 361 360 360 360 361 360 361 361 361 360 361 361 362 361 361
352 353 352 344 320 309 313 320 320 324 327 330 331 330 327 326 334 334 336 344 344 343 347 350 356 355 358 357 359 359 359 360 360 361 361 361 361 360 361 360 359 360 360 360 360 361 361 361 360
355 353 344 333 318 311 314 321 324 327 329 328 327 332 331 328 335 335 341 345 346 347 350 352 356 356 359 358 359 359 359 360 361 360 360 360 361 360 361 360 360 360 360 361 361 360 361 360 360
349 347 343 323 315 320 321 324 326 326 330 331 329 326 333 338 337 341 346 345 346 347 350 356 358 358 360 359 359 360 359 359 359 361 360 360 359 359 360 361 360 360 361 361 363 361 360 361 360
347 339 325 318 317 323 325 327 327 325 327 328 329 325 329 338 342 343 345 345 346 349 350 354 359 360 360 361 360 360 360 361 361 361 361 361 360 361 360 360 360 361 361 361 362 360 358 356 356
336 335 317 315 318 324 327 329 328 327 330 330 326 328 331 340 340 342 345 344 346 349 349 353 360 359 361 360 360 360 360 360 360 360 360 360 360 362 359 358 359 359 360 360 361 360 360 358 354
331 329 317 317 320 323 326 332 326 326 328 327 332 327 332 336 342 344 345 345 344 348 345 349 354 360 361 360 360 361 360 360 360 361 361 361 360 360 358 357 358 358 358 359 359 360 359 360 358
337 332 321 319 318 321 329 331 330 327 327 334 334 327 328 338 343 345 346 344 343 344 345 346 350 353 356 358 359 360 360 360 360 360 360 361 358 357 357 360 357 356 357 358 357 358 358 358 360
340 326 318 318 320 325 331 329 334 334 330 331 334 332 337 341 343 342 341 340 341 343 344 352 352 356 359 358 359 360 360 361 360 359 360 361 355 355 355 360 358 356 354 355 355 355 356 357 358
333 324 322 332 328 326 329 329 329 328 328 329 331 337 340 341 341 339 337 337 340 343 345 347 351 350 354 354 360 358 355 357 353 352 357 355 358 354 352 357 358 357 357 359 359 357 358 358 357
333 327 330 328 334 330 329 330 330 326 325 330 330 335 338 339 339 337 337 338 340 345 345 350 352 355 354 357 355 354 352 350 351 355 362 357 353 355 355 354 356 354 357 351 353 354 354 353 352
328 333 331 330 334 330 328 330 326 330 330 334 336 337 337 337 336 335 337 338 341 345 346 347 352 358 354 354 351 352 350 347 347 354 359 358 352 354 355 350 353 354 350 356 356 352 357 355 355
329 332 333 332 333 333 333 327 325 330 333 336 336 337 337 337 337 338 340 340 343 344 346 348 352 357 358 353 348 349 349 347 351 354 358 355 351 353 352 356 356 354 353 351 353 354 354 353 350
333 334 332 330 333 333 329 329 331 330 334 335 335 334 334 334 336 339 340 339 342 345 347 350 351 355 355 353 354 350 354 348 348 350 356 358 352 355 354 355 352 353 354 354 354 357 354 349 346
335 329 330 328 327 331 334 325 325 333 334 332 332 334 335 336 338 338 340 341 344 345 348 350 352 354 357 356 354 352 348 348 348 352 358 358 358 361 370 353 361 353 357 360 358 358 355 348 346
327 327 318 325 328 329 331 318 330 335 332 329 331 333 335 335 337 341 341 343 346 347 348 351 349 352 353 354 354 353 356 350 358 354 354 358 361 362 364 356 358 356 361 356 354 353 350 346 346
324 314 319 323 331 326 326 321 331 335 332 328 330 332 334 336 337 342 342 343 345 348 349 350 353 351 353 356 356 359 356 355 357 353 353 359 358 360 363 356 361 367 361 357 351 350 351 348 347
307 312 318 319 326 327 322 322 328 332 331 329 329 331 333 334 336 341 342 343 344 349 350 351 351 356 356 354 359 356 352 355 351 360 355 359 358 360 366 357 362 365 358 355 360 364 355 352 348
315 316 318 322 326 323 320 321 325 330 331 327 328 331 332 333 338 340 342 344 344 347 349 353 356 357 355 352 350 351 347 354 352 352 359 360 359 361 364 358 360 360 364 367 363 359 360 353 356
314 314 317 322 325 322 317 319 324 331 329 332 330 329 330 333 336 339 341 342 344 346 349 352 356 359 358 357 358 356 352 350 353 356 358 359 359 361 361 364 360 362 360 365 366 366 360 352 356
314 315 313 315 322 324 317 313 317 329 334 335 331 332 334 333 334 339 340 341 343 345 348 352 355 358 359 360 357 357 359 360 353 356 354 357 359 360 362 361 364 364 364 359 362 364 367 351 353
309 319 317 316 318 310 319 304 315 322 328 331 330 334 333 333 336 338 339 341 342 346 348 352 356 360 358 361 358 364 351 347 347 351 354 358 360 361 360 361 363 364 365 366 361 361 364 365 351
312 319 318 317 313 313 314 307 313 322 322 328 330 334 334 333 335 337 339 341 343 346 348 350 356 362 360 360 362 354 357 353 353 356 363 363 367 362 360 362 362 364 359 367 365 363 366 361 355
318 317 318 317 314 308 312 310 310 317 323 329 333 333 336 333 335 338 340 343 343 346 348 350 356 360 362 360 359 359 358 352 355 356 353 353 353 357 361 362 363 364 364 363 362 367 364 365 364
316 313 305 304 305 304 312 311 314 321 326 329 333 334 336 336 335 336 339 340 343 345 347 350 355 356 357 357 356 357 358 358 357 356 353 355 352 350 364 364 363 360 364 362 364 365 364 363 360
313 312 306 298 302 303 315 309 312 324 327 330 331 335 337 334 337 335 338 340 343 345 347 349 353 356 357 356 360 362 360 355 354 358 356 355 352 353 368 362 363 366 363 362 364 358 358 360 359
311 309 315 306 309 306 304 317 323 326 327 328 328 329 334 335 335 336 338 340 343 345 348 350 353 356 357 354 356 359 361 359 358 367 363 356 362 354 361 361 365 364 366 366 364 358 363 361 361
313 318 307 307 298 299 308 306 308 321 326 328 328 330 332 334 337 337 337 340 343 346 348 351 353 355 356 355 354 354 356 359 360 361 359 362 362 361 361 360 361 361 363 363 365 363 363 361 357
313 310 311 312 312 305 304 304 319 326 328 326 327 330 332 334 339 339 337 340 344 345 347 349 352 353 355 354 353 354 354 356 359 358 361 361 362 364 362 363 363 361 361 363 364 365 363 359 363
309 309 313 307 304 304 300 306 326 330 331 331 327 328 333 333 340 340 340 341 344 346 348 348 350 352 354 355 355 353 354 356 354 357 359 362 362 363 363 365 362 362 361 362 363 361 361 358 359